[[[{"header":{"parameterUnit":"kt","parameterCategory":2,"dx":1,"dy":1,"la1":29.587661999999998,"la2":31.0,"lo1":-88.76705300000003,"lo2":-86.6583820000003,"nx":115,"ny":88,"refTime":"2022-10-23T06:00:00:Z","depth":0,"parameterNumber":1,"parameterNumberName":"U-component_of_WINDS"},"data":[-13.0235,-13.0235,-13.0235,-13.0933,-13.2155,-13.3551,-13.4889,-13.5703,-13.4656,-13.4132,-13.3376,-13.1573,-13.0235,-13.0235,-13.0235,-12.9877,-12.9277,-12.8551,-12.7943,-12.7273,-12.6657,-12.6466,-12.6342,-12.6342,-12.6342,-12.6624,-12.7076,-12.7922,-12.8769,-13.0179,-13.1308,-13.1985,-13.3001,-13.3057,-13.3113,-13.2211,-13.1195,-13.1646,-13.1533,-13.1364,-13.0913,-13.1195,-13.1872,-13.1308,-13.0518,-12.922,-12.8373,-12.7979,-12.7245,-12.6681,-12.6342,-12.6342,-12.6342,-12.6342,-12.6342,-12.6342,-12.6342,-12.6342,-12.6342,-12.6568,-12.7979,-12.9615,-13.0292,-13.1251,-13.2831,-13.3659,-13.3659,-13.3659,-13.3659,-13.3659,-13.3603,-13.3565,-13.3057,-13.2436,-13.2098,-13.1082,-13.0348,-12.9897,-12.9502,-12.8994,-12.8317,-12.7358,-12.6511,-12.5834,-12.5834,-12.6173,-12.6173,-12.6173,-12.6116,-12.5834,-12.5496,-12.4327,-12.2993,-12.0995,-11.9072,-11.777,-11.7349,-11.7867,-11.8765,-12.0715,-12.2416,-12.4024,-12.5021,-12.5107,-12.4968,-12.4842,-12.5094,-12.547,-12.5969,-12.6218,-12.6342,-12.6049,-12.5226,-12.4013,-12.2545,-13.0235,-13.0235,-13.0235,-13.0991,-13.2334,-13.3551,-13.4889,-13.5703,-13.4714,-13.4132,-13.3667,-13.1282,-13.0352,-13.0235,-13.0235,-12.9757,-12.9277,-12.8551,-12.7943,-12.7273,-12.6714,-12.6466,-12.6342,-12.6342,-12.6342,-12.6511,-12.6624,-12.7245,-12.7922,-12.8769,-13.001,-13.1421,-13.1646,-13.159,-13.2436,-13.1928,-13.1195,-13.1985,-13.2154,-13.1928,-13.1816,-13.1872,-13.1703,-13.0969,-12.9841,-12.8486,-12.7866,-12.7358,-12.6681,-12.6342,-12.6342,-12.6342,-12.6342,-12.6342,-12.6342,-12.6342,-12.6342,-12.6342,-12.6342,-12.6399,-12.7866,-12.9276,-12.9784,-13.1026,-13.3057,-13.3659,-13.3659,-13.3659,-13.3659,-13.3659,-13.3603,-13.3508,-13.2831,-13.2211,-13.2041,-13.159,-13.1138,-13.0743,-13.0348,-12.9953,-12.8825,-12.7584,-12.6455,-12.5214,-12.527,-12.5778,-12.5947,-12.5891,-12.5665,-12.5214,-12.4424,-12.3156,-12.1659,-12.0138,-11.8508,-11.769,-11.7378,-11.7754,-11.827,-11.9985,-12.1862,-12.4158,-12.5427,-12.547,-12.547,-12.5345,-12.5595,-12.5845,-12.6094,-12.6342,-12.6286,-12.6173,-12.5181,-12.3934,-12.2697,-13.0235,-13.0235,-13.0235,-13.134,-13.3144,-13.3842,-13.5238,-13.6459,-13.4947,-13.3725,-13.2795,-13.1166,-13.0235,-13.0235,-13.0235,-12.9877,-12.9277,-12.8551,-12.7943,-12.7273,-12.6657,-12.6466,-12.6342,-12.6342,-12.6342,-12.6342,-12.6342,-12.6511,-12.7076,-12.7696,-12.843,-12.9558,-13.1138,-13.1759,-13.2323,-13.2718,-13.2606,-13.2944,-13.3001,-13.2606,-13.1928,-13.1082,-13.0631,-12.9558,-12.8317,-12.7471,-12.6906,-12.6737,-12.6342,-12.6342,-12.6342,-12.6342,-12.6342,-12.6342,-12.6342,-12.6342,-12.6342,-12.6342,-12.6342,-12.6624,-12.7527,-12.9107,-13.001,-13.1308,-13.3226,-13.3659,-13.3659,-13.3565,-13.3565,-13.3001,-13.2944,-13.2718,-13.2041,-13.1421,-13.1082,-13.1251,-13.1138,-13.1082,-13.1138,-13.0461,-12.9051,-12.7696,-12.6116,-12.4819,-12.3859,-12.4311,-12.4141,-12.3916,-12.4367,-12.4311,-12.3239,-12.1926,-12.0098,-11.8515,-11.8129,-11.7837,-11.7601,-11.7719,-11.7949,-11.988,-12.1982,-12.4225,-12.5969,-12.5969,-12.5969,-12.5845,-12.5845,-12.6094,-12.6342,-12.6342,-12.6286,-12.6116,-12.4865,-12.3672,-12.2377,-13.0235,-13.0235,-13.0235,-13.1515,-13.3551,-13.3958,-13.5238,-13.6692,-13.4889,-13.3376,-13.2038,-13.0875,-13.0235,-13.0116,-13.0116,-12.9517,-12.8915,-12.8186,-12.7698,-12.7084,-12.659,-12.6342,-12.6342,-12.6342,-12.6342,-12.6342,-12.6342,-12.6399,-12.6624,-12.7189,-12.7866,-12.8486,-12.9502,-13.1138,-13.2041,-13.2606,-13.3057,-13.3508,-13.3508,-13.3057,-13.1985,-13.0687,-12.9446,-12.8261,-12.7189,-12.6568,-12.6455,-12.6342,-12.6342,-12.6342,-12.6342,-12.6342,-12.6342,-12.6342,-12.6342,-12.6342,-12.6342,-12.6342,-12.6455,-12.6906,-12.7979,-12.9333,-13.0631,-13.1928,-13.2888,-13.3508,-13.3678,-13.3396,-13.3057,-13.238,-13.1872,-13.1533,-13.1082,-13.0405,-12.9897,-13.0348,-13.08,-13.1251,-13.1816,-13.0631,-12.9163,-12.7527,-12.5778,-12.4311,-12.2956,-12.2449,-12.2449,-12.2505,-12.3013,-12.2674,-12.1546,-12.1088,-11.9094,-11.8359,-11.8303,-11.8073,-11.8129,-11.8247,-11.842,-12.0118,-12.2103,-12.3681,-12.4798,-12.5609,-12.6342,-12.6218,-12.6218,-12.6342,-12.6342,-12.6342,-12.6229,-12.5891,-12.4752,-12.3456,-12.2166,-13.0235,-13.0235,-13.0235,-13.0991,-13.2387,-13.3667,-13.4191,-13.4365,-13.4132,-13.3376,-13.198,-13.0759,-13.0235,-12.9997,-12.9757,-12.9277,-12.843,-12.7943,-12.7453,-12.6466,-12.6342,-12.6342,-12.6342,-12.6342,-12.6342,-12.6342,-12.6342,-12.6342,-12.6399,-12.6624,-12.7301,-12.8148,-12.8769,-12.9897,-13.1533,-13.2267,-13.3113,-13.3565,-13.3508,-13.2888,-13.1759,-13.0574,-12.9389,-12.8091,-12.7076,-12.6342,-12.6342,-12.6342,-12.6342,-12.6342,-12.6342,-12.6342,-12.6342,-12.6342,-12.6342,-12.6342,-12.6342,-12.6342,-12.6511,-12.7245,-12.8543,-12.9784,-13.1082,-13.2323,-13.3001,-13.3508,-13.3057,-13.2718,-13.2098,-13.1421,-13.0631,-13.0179,-12.9558,-12.8825,-12.8712,-12.9163,-12.9558,-13.001,-13.0405,-12.9953,-12.843,-12.6737,-12.4931,-12.2505,-12.1038,-12.1771,-12.1828,-12.1602,-12.1546,-12.0812,-12.0417,-12.053,-11.9336,-11.8772,-11.8599,-11.8599,-11.8599,-11.8829,-11.9002,-12.0361,-12.2561,-12.3408,-12.3916,-12.5101,-12.6342,-12.6342,-12.6342,-12.6342,-12.6342,-12.6342,-12.6116,-12.5665,-12.4649,-12.3295,-12.1828,-13.0235,-13.0235,-13.0235,-13.0468,-13.1282,-13.3202,-13.3144,-13.2038,-13.262,-13.2213,-13.0991,-13.041,-12.9997,-12.9757,-12.9757,-12.9156,-12.7885,-12.7698,-12.733,-12.659,-12.6342,-12.6342,-12.6342,-12.6342,-12.6342,-12.6342,-12.6342,-12.6342,-12.6342,-12.6399,-12.6455,-12.7301,-12.8881,-12.9784,-13.0969,-13.2323,-13.317,-13.3339,-13.3001,-13.1985,-13.0743,-12.9502,-12.8317,-12.7132,-12.6681,-12.6342,-12.6342,-12.6342,-12.6342,-12.6342,-12.6342,-12.6342,-12.6342,-12.6342,-12.6342,-12.6342,-12.6342,-12.6342,-12.6511,-12.7471,-12.8712,-12.9897,-13.1195,-13.2436,-13.3113,-13.3113,-13.2436,-13.1703,-13.1026,-13.0348,-12.9558,-12.8769,-12.7979,-12.7245,-12.7584,-12.7922,-12.8261,-12.8599,-12.8712,-12.8712,-12.7584,-12.5947,-12.3803,-12.1207,-11.9909,-12.0361,-12.053,-12.053,-12.0304,-11.974,-11.9796,-11.9853,-11.9345,-11.895,-11.895,-11.8833,-11.9228,-11.9622,-11.974,-12.0812,-12.2956,-12.4085,-12.4536,-12.5383,-12.6286,-12.6342,-12.6342,-12.6342,-12.6342,-12.6342,-12.6229,-12.5214,-12.3972,-12.2731,-12.1151,-13.0235,-13.0235,-13.0235,-13.0235,-13.0584,-13.262,-13.2562,-13.105,-13.1752,-13.1399,-13.0235,-13.0235,-12.9997,-12.9637,-12.9877,-12.9098,-12.8372,-12.782,-12.733,-12.6961,-12.6466,-12.6342,-12.6342,-12.6342,-12.6342,-12.6342,-12.6342,-12.6342,-12.6342,-12.6342,-12.6399,-12.6906,-12.843,-12.9784,-13.1138,-13.2718,-13.3339,-13.3508,-13.2606,-13.1477,-13.0179,-12.8994,-12.7753,-12.685,-12.6399,-12.6342,-12.6342,-12.6342,-12.6342,-12.6342,-12.6342,-12.6342,-12.6342,-12.6342,-12.6342,-12.6342,-12.6342,-12.6342,-12.6511,-12.7471,-12.8656,-12.9953,-13.1251,-13.238,-13.2662,-13.2436,-13.1646,-13.0631,-12.9728,-12.8881,-12.8035,-12.7696,-12.7189,-12.6794,-12.685,-12.7076,-12.7301,-12.7696,-12.8148,-12.7979,-12.7189,-12.5496,-12.369,-12.1264,-11.9684,-11.9176,-11.9119,-11.9571,-11.9571,-11.9345,-11.9289,-11.9232,-11.895,-11.895,-11.895,-11.9063,-11.974,-12.0417,-12.053,-12.1264,-12.3239,-12.4536,-12.5157,-12.5721,-12.6173,-12.6342,-12.6342,-12.6342,-12.6342,-12.6342,-12.5834,-12.4536,-12.3239,-12.1941,-12.0474,-13.0235,-13.0235,-13.0235,-13.0235,-13.041,-13.1573,-13.2155,-13.2038,-13.2038,-13.134,-13.0235,-13.0235,-13.0116,-12.9997,-12.9637,-12.9156,-12.8736,-12.7885,-12.7519,-12.7027,-12.6657,-12.6466,-12.6342,-12.6342,-12.6342,-12.6342,-12.6342,-12.6342,-12.6342,-12.6342,-12.6963,-12.7866,-12.8712,-13.0236,-13.159,-13.2888,-13.3283,-13.3057,-13.2211,-13.0913,-12.9615,-12.8543,-12.7358,-12.6737,-12.6342,-12.6342,-12.6342,-12.6342,-12.6342,-12.6342,-12.6342,-12.6342,-12.6342,-12.6342,-12.6342,-12.6342,-12.6342,-12.6342,-12.6511,-12.7471,-12.8712,-12.9953,-13.1026,-13.1646,-13.1928,-13.1646,-13.0518,-12.9389,-12.8486,-12.7527,-12.685,-12.6681,-12.6568,-12.6455,-12.6342,-12.6399,-12.6568,-12.685,-12.7358,-12.7189,-12.6455,-12.5101,-12.3351,-12.1771,-12.0079,-11.9458,-11.9006,-11.9289,-11.9289,-11.9006,-11.9006,-11.895,-11.895,-11.895,-11.9063,-11.9232,-11.9966,-12.1207,-12.132,-12.2223,-12.3351,-12.4696,-12.5383,-12.5891,-12.6229,-12.6342,-12.6342,-12.6342,-12.6342,-12.5665,-12.5157,-12.4029,-12.3069,-12.1659,-12.0079,-13.0991,-13.0235,-13.0235,-13.0235,-13.0293,-13.0701,-13.0875,-13.0875,-13.0875,-13.0642,-13.0293,-13.0235,-13.0116,-12.9757,-12.9579,-12.9459,-12.8007,-12.8308,-12.8251,-12.6657,-12.6781,-12.6714,-12.6466,-12.6342,-12.6342,-12.6342,-12.6342,-12.6342,-12.6342,-12.6342,-12.7019,-12.8261,-12.9841,-13.1195,-13.2267,-13.2606,-13.2662,-13.2323,-13.1364,-13.0123,-12.8938,-12.7753,-12.6794,-12.6511,-12.6342,-12.6342,-12.6342,-12.6342,-12.6342,-12.6342,-12.6342,-12.6342,-12.6342,-12.6342,-12.6342,-12.6342,-12.6342,-12.6342,-12.6624,-12.7471,-12.8712,-12.9841,-12.9446,-13.0292,-13.1477,-13.0631,-12.9276,-12.8373,-12.7471,-12.685,-12.6511,-12.6511,-12.6399,-12.6399,-12.6342,-12.6342,-12.6455,-12.6455,-12.6794,-12.6737,-12.6116,-12.4706,-12.3126,-12.1771,-12.0586,-11.974,-11.895,-11.895,-11.9006,-11.895,-11.895,-11.895,-11.895,-11.895,-11.9063,-11.9289,-12.0304,-12.1715,-12.29,-12.3972,-12.4988,-12.5326,-12.5778,-12.6229,-12.6286,-12.6342,-12.6342,-12.6342,-12.6342,-12.5834,-12.4706,-12.3634,-12.2844,-12.1264,-11.9514,-13.1631,-13.0817,-13.041,-13.0235,-13.0235,-13.0235,-13.0235,-13.0235,-13.0235,-13.0235,-13.0235,-13.0235,-12.9997,-12.9877,-12.9877,-12.9579,-12.8494,-12.9156,-12.8673,-12.7084,-12.6904,-12.6657,-12.6466,-12.6342,-12.6342,-12.6342,-12.6342,-12.6342,-12.6342,-12.6342,-12.7019,-12.8261,-12.9897,-13.1928,-13.2606,-13.2549,-13.1928,-13.1646,-13.0292,-12.9051,-12.8204,-12.7076,-12.6399,-12.6342,-12.6342,-12.6342,-12.6342,-12.6342,-12.6342,-12.6342,-12.6342,-12.6342,-12.6342,-12.6342,-12.6342,-12.6342,-12.6342,-12.6342,-12.6624,-12.7471,-12.8712,-12.9558,-13.001,-13.0687,-13.1421,-12.9841,-12.8825,-12.8148,-12.7189,-12.6624,-12.6342,-12.6399,-12.6399,-12.6399,-12.6342,-12.6342,-12.6342,-12.6342,-12.6342,-12.6342,-12.6342,-12.5157,-12.4141,-12.3182,-12.1489,-12.0361,-11.9289,-11.9063,-11.895,-11.895,-11.895,-11.895,-11.895,-11.895,-11.9006,-11.9176,-11.9966,-12.1659,-12.3351,-12.4819,-12.5609,-12.6004,-12.6286,-12.6286,-12.6286,-12.6342,-12.6342,-12.6342,-12.6342,-12.5665,-12.4085,-12.29,-12.1941,-12.053,-11.9176,-13.2097,-13.1922,-13.0701,-13.0235,-13.0235,-13.0235,-13.0235,-13.0235,-13.0235,-13.0235,-13.0235,-13.0235,-13.0235,-13.0235,-13.0116,-12.9997,-12.9459,-12.8794,-12.8308,-12.782,-12.715,-12.6533,-12.6466,-12.6342,-12.6342,-12.6342,-12.6342,-12.6342,-12.6342,-12.6342,-12.7019,-12.8261,-12.9333,-13.0631,-13.1816,-13.1872,-13.1816,-13.1477,-12.9333,-12.843,-12.7696,-12.6906,-12.6399,-12.6342,-12.6342,-12.6342,-12.6342,-12.6342,-12.6342,-12.6342,-12.6342,-12.6342,-12.6342,-12.6342,-12.6342,-12.6342,-12.6342,-12.6342,-12.6399,-12.7414,-12.8599,-12.9728,-13.0066,-13.0969,-13.1421,-13.0743,-12.9446,-12.8656,-12.7414,-12.6681,-12.6568,-12.6455,-12.6511,-12.6511,-12.6399,-12.6342,-12.6342,-12.6342,-12.6342,-12.6342,-12.6342,-12.6173,-12.5326,-12.4198,-12.2336,-12.0869,-11.974,-11.9119,-11.9006,-11.895,-11.895,-11.895,-11.895,-11.895,-11.895,-11.9119,-12.0022,-12.1715,-12.3351,-12.4706,-12.5665,-12.6173,-12.6342,-12.6342,-12.6342,-12.6342,-12.6342,-12.6342,-12.6342,-12.6116,-12.4141,-12.2449,-12.1038,-11.9966,-11.9289,-13.2446,-13.0817,-13.0352,-13.0235,-13.0235,-13.0235,-13.0235,-13.0235,-13.0235,-13.0235,-13.0235,-13.0235,-13.0235,-13.0235,-13.0235,-13.0058,-12.9637,-12.9156,-12.8673,-12.8065,-12.7519,-12.715,-12.6904,-12.6657,-12.6342,-12.6342,-12.6342,-12.6342,-12.6342,-12.6342,-12.7019,-12.7809,-12.8599,-12.9502,-13.0348,-13.0518,-13.0123,-12.9446,-12.8373,-12.7866,-12.6963,-12.6511,-12.6342,-12.6342,-12.6342,-12.6342,-12.6342,-12.6342,-12.6342,-12.6342,-12.6342,-12.6342,-12.6342,-12.6342,-12.6342,-12.6342,-12.6342,-12.6342,-12.6342,-12.6906,-12.7809,-12.9446,-12.9953,-13.0631,-13.1082,-13.0743,-13.0179,-12.9333,-12.843,-12.7979,-12.8938,-12.7358,-12.6681,-12.7076,-12.6906,-12.6342,-12.6342,-12.6342,-12.6342,-12.6342,-12.6342,-12.6286,-12.5496,-12.4762,-12.3126,-12.1941,-12.0643,-11.9684,-11.9289,-11.895,-11.895,-11.895,-11.895,-11.895,-11.9006,-11.9966,-12.0925,-12.2561,-12.369,-12.4931,-12.5721,-12.606,-12.6342,-12.6342,-12.6342,-12.6342,-12.6342,-12.6342,-12.6342,-12.6229,-12.4762,-12.2956,-12.1489,-11.9853,-11.9289,-13.2387,-13.0933,-13.041,-13.0235,-13.0235,-13.0235,-13.0235,-13.0235,-13.0235,-13.0235,-13.0235,-13.0235,-13.0235,-13.0235,-13.0235,-12.9997,-12.9637,-12.9397,-12.9035,-12.8551,-12.782,-12.7396,-12.7027,-12.6714,-12.6342,-12.6342,-12.6342,-12.6342,-12.6342,-12.6342,-12.6906,-12.764,-12.8599,-12.9051,-12.9615,-13.0292,-12.9671,-12.8769,-12.7696,-12.7189,-12.6399,-12.6342,-12.6342,-12.6342,-12.6342,-12.6342,-12.6342,-12.6342,-12.6342,-12.6342,-12.6342,-12.6342,-12.6342,-12.6342,-12.6342,-12.6342,-12.6342,-12.6342,-12.6342,-12.6511,-12.7189,-12.8769,-12.9671,-13.0574,-13.2493,-13.1533,-13.0913,-13.0348,-12.9615,-12.9051,-12.9728,-12.8373,-12.7189,-12.7527,-12.7301,-12.6568,-12.6342,-12.6342,-12.6342,-12.6342,-12.6342,-12.6342,-12.5834,-12.527,-12.4085,-12.2844,-12.1433,-12.0135,-11.9401,-11.895,-11.895,-11.895,-11.895,-11.895,-11.9063,-12.0361,-12.1884,-12.3013,-12.4141,-12.5157,-12.6004,-12.6286,-12.6342,-12.6342,-12.6342,-12.6342,-12.6342,-12.6342,-12.5947,-12.527,-12.4254,-12.3069,-12.1546,-11.9853,-11.9289,-13.2097,-13.1922,-13.0701,-13.0235,-13.0235,-13.0235,-13.0235,-13.0235,-13.0235,-13.0235,-13.0235,-13.0235,-13.0235,-13.0235,-13.0235,-13.0235,-13.0235,-12.9517,-12.9397,-12.8915,-12.8007,-12.7519,-12.7273,-12.6781,-12.6342,-12.6342,-12.6342,-12.6342,-12.6342,-12.6511,-12.6511,-12.6624,-12.8373,-12.8712,-12.9107,-12.9615,-12.922,-12.843,-12.7132,-12.6455,-12.6399,-12.6342,-12.6342,-12.6342,-12.6342,-12.6342,-12.6342,-12.6342,-12.6342,-12.6342,-12.6342,-12.6342,-12.6342,-12.6342,-12.6568,-12.6568,-12.6568,-12.6342,-12.6342,-12.6399,-12.7019,-12.8317,-12.9897,-13.1703,-13.3226,-13.2549,-13.2154,-13.1928,-13.0856,-13.0461,-13.0066,-12.9163,-12.843,-12.8317,-12.7809,-12.7019,-12.6455,-12.6399,-12.6342,-12.6342,-12.6342,-12.6342,-12.5947,-12.5609,-12.4593,-12.3521,-12.2166,-12.0981,-12.0135,-11.9119,-11.9063,-11.895,-11.895,-11.9176,-11.9289,-12.0586,-12.2392,-12.3746,-12.4762,-12.5609,-12.6229,-12.6286,-12.6342,-12.6342,-12.6342,-12.6342,-12.6342,-12.6229,-12.5834,-12.4649,-12.3521,-12.2505,-12.1151,-11.9796,-11.9176,-13.1573,-13.0701,-13.0352,-13.0235,-13.0235,-13.0235,-13.0235,-13.0235,-13.0235,-13.0235,-13.0235,-13.0235,-13.0235,-13.0235,-13.0235,-13.0235,-13.0235,-12.9637,-12.9637,-12.9219,-12.8372,-12.7763,-12.7396,-12.6781,-12.6342,-12.6342,-12.6342,-12.6399,-12.6624,-12.6963,-12.7019,-12.6455,-12.8035,-12.8261,-12.8148,-12.8261,-12.8373,-12.7809,-12.6906,-12.6399,-12.6342,-12.6342,-12.6342,-12.6342,-12.6342,-12.6342,-12.6342,-12.6342,-12.6342,-12.6342,-12.6342,-12.6342,-12.6399,-12.6455,-12.6737,-12.7076,-12.6624,-12.6399,-12.6455,-12.6399,-12.6511,-12.7414,-12.8994,-13.1477,-13.3113,-13.3621,-13.3339,-13.317,-13.2098,-13.2098,-13.2098,-13.0743,-12.9784,-12.8994,-12.8261,-12.7358,-12.6624,-12.6455,-12.6342,-12.6342,-12.6342,-12.6342,-12.6229,-12.5891,-12.5214,-12.4141,-12.3069,-12.1941,-12.0756,-11.9514,-11.9232,-11.895,-11.9232,-11.9853,-12.053,-12.1771,-12.3069,-12.4424,-12.5383,-12.606,-12.6229,-12.6342,-12.6342,-12.6342,-12.6342,-12.6342,-12.6342,-12.6173,-12.5947,-12.4593,-12.3295,-12.2166,-12.0869,-11.9796,-11.9006,-13.0352,-13.0235,-13.0235,-13.0235,-13.0235,-13.0235,-13.0235,-13.0235,-13.0235,-13.0235,-13.0235,-13.0235,-13.0235,-13.0235,-13.0235,-13.0235,-13.0235,-12.9877,-12.9877,-12.9397,-12.8551,-12.7763,-12.7698,-12.6961,-12.6342,-12.6342,-12.6342,-12.6568,-12.7019,-12.7358,-12.7471,-12.7076,-12.7358,-12.7471,-12.7189,-12.7132,-12.7245,-12.7076,-12.6794,-12.6342,-12.6342,-12.6342,-12.6342,-12.6342,-12.6342,-12.6342,-12.6342,-12.6342,-12.6342,-12.6342,-12.6342,-12.6342,-12.6399,-12.685,-12.7019,-12.7471,-12.6681,-12.6624,-12.6906,-12.6568,-12.6455,-12.6906,-12.8599,-13.0574,-13.1872,-13.2944,-13.3734,-13.3659,-13.3113,-13.3057,-13.3113,-13.1928,-13.0913,-12.9784,-12.8712,-12.764,-12.6681,-12.6511,-12.6342,-12.6342,-12.6342,-12.6342,-12.6286,-12.606,-12.5552,-12.448,-12.3295,-12.2166,-12.0981,-11.9796,-11.9176,-11.9006,-11.9684,-12.0474,-12.1546,-12.2731,-12.3859,-12.4706,-12.5665,-12.6173,-12.6286,-12.6342,-12.6342,-12.6342,-12.6342,-12.6342,-12.6342,-12.6004,-12.5439,-12.4311,-12.3126,-12.1546,-12.0022,-11.9119,-11.9006,-12.8839,-13.0003,-13.0119,-13.0235,-13.0235,-13.0235,-13.0235,-13.0235,-13.0235,-13.0235,-13.0235,-13.0235,-13.0235,-13.0235,-13.0235,-13.0235,-13.0235,-13.0116,-12.9877,-12.9397,-12.8551,-12.7943,-12.7453,-12.6714,-12.6466,-12.659,-12.6636,-12.7189,-12.764,-12.7132,-12.7132,-12.7471,-12.7019,-12.6511,-12.6737,-12.7076,-12.7358,-12.6568,-12.6342,-12.6342,-12.6342,-12.6342,-12.6342,-12.6342,-12.6342,-12.6342,-12.6342,-12.6342,-12.6342,-12.6342,-12.6342,-12.6399,-12.6681,-12.7584,-12.7189,-12.6681,-12.6568,-12.6906,-12.7358,-12.685,-12.6342,-12.7132,-12.8712,-12.9784,-13.1195,-13.2606,-13.3659,-13.3659,-13.3603,-13.3603,-13.3508,-13.2718,-13.1646,-13.0518,-12.9389,-12.8091,-12.6906,-12.685,-12.6399,-12.6342,-12.6342,-12.6342,-12.6342,-12.6173,-12.5947,-12.4762,-12.3521,-12.2336,-12.1151,-11.9796,-11.9006,-11.9289,-11.9853,-12.0812,-12.1941,-12.3182,-12.4198,-12.4875,-12.5665,-12.6286,-12.6342,-12.6342,-12.6342,-12.6342,-12.6342,-12.6342,-12.6342,-12.5891,-12.4931,-12.4029,-12.3126,-12.1433,-11.9458,-11.9063,-11.895,-12.756,-12.8781,-12.977,-13.0235,-13.0235,-13.0235,-13.0235,-13.0235,-13.0235,-13.0235,-13.0235,-13.0235,-13.0235,-13.0235,-13.0235,-13.0235,-13.0235,-13.0235,-12.9877,-12.9156,-12.8551,-12.8186,-12.782,-12.7027,-12.6647,-12.7064,-12.7382,-12.7922,-12.8035,-12.764,-12.7301,-12.7189,-12.7696,-12.7358,-12.6455,-12.6737,-12.6568,-12.6342,-12.6342,-12.6342,-12.6342,-12.6342,-12.6342,-12.6342,-12.6342,-12.6342,-12.6342,-12.6342,-12.6342,-12.6455,-12.6511,-12.6794,-12.7471,-12.7076,-12.6568,-12.6568,-12.7245,-12.7189,-12.7019,-12.6399,-12.685,-12.7584,-12.9163,-13.0461,-13.1533,-13.2662,-13.3659,-13.3659,-13.3659,-13.3791,-13.3565,-13.3508,-13.2718,-13.1533,-13.0179,-12.9107,-12.7922,-12.6906,-12.6455,-12.6173,-12.6342,-12.6342,-12.6342,-12.6229,-12.6229,-12.5157,-12.3746,-12.2561,-12.1828,-12.0361,-11.9345,-11.9571,-12.0191,-12.1264,-12.2561,-12.3859,-12.448,-12.5214,-12.6004,-12.6342,-12.6342,-12.6342,-12.6342,-12.6342,-12.6342,-12.6342,-12.6342,-12.606,-12.4762,-12.369,-12.3013,-12.1715,-11.9796,-11.9006,-11.895,-12.6571,-12.8316,-12.9014,-12.9654,-13.0177,-13.0235,-13.0235,-13.0235,-13.0235,-13.0235,-13.0235,-13.0235,-13.0235,-13.0235,-13.0235,-13.0235,-13.0116,-12.9997,-12.9397,-12.8794,-12.8186,-12.782,-12.7641,-12.6837,-12.7121,-12.7811,-12.8072,-12.8148,-12.8091,-12.764,-12.7245,-12.7019,-12.6455,-12.6455,-12.6286,-12.6342,-12.6342,-12.6342,-12.6342,-12.6342,-12.6342,-12.6342,-12.6342,-12.6342,-12.6342,-12.6342,-12.6342,-12.6342,-12.6568,-12.7076,-12.7189,-12.7584,-12.7584,-12.7189,-12.6568,-12.7076,-12.7189,-12.6906,-12.6511,-12.6963,-12.7471,-12.8317,-12.9953,-13.1195,-13.2041,-13.2944,-13.3603,-13.3659,-13.3791,-13.3565,-13.2944,-13.3452,-13.2775,-13.1421,-13.0405,-12.9389,-12.8261,-12.7076,-12.6173,-12.5439,-12.5834,-12.6173,-12.6229,-12.6342,-12.6342,-12.5383,-12.3972,-12.3182,-12.2618,-12.1207,-11.974,-12.0135,-12.0756,-12.1997,-12.3521,-12.4311,-12.464,-12.5665,-12.6342,-12.6342,-12.6342,-12.6342,-12.6342,-12.6286,-12.6342,-12.6342,-12.6173,-12.5552,-12.4311,-12.3126,-12.2223,-12.1207,-11.974,-11.895,-11.895,-12.5815,-12.8025,-12.8199,-12.9072,-13.0119,-13.0235,-13.0235,-13.0235,-13.0235,-13.0235,-13.0235,-13.0235,-13.0235,-13.0235,-13.0235,-13.0235,-13.0116,-12.9877,-12.9277,-12.8551,-12.7943,-12.7763,-12.7641,-12.6961,-12.711,-12.8208,-12.7608,-12.7414,-12.7358,-12.6737,-12.6568,-12.7132,-12.6004,-12.5552,-12.6173,-12.6342,-12.6342,-12.6342,-12.6342,-12.6342,-12.6342,-12.6342,-12.6342,-12.6342,-12.6342,-12.6342,-12.6342,-12.6568,-12.7076,-12.8035,-12.8148,-12.8261,-12.8317,-12.7414,-12.7132,-12.7245,-12.6906,-12.6794,-12.6906,-12.764,-12.8204,-12.9163,-13.0631,-13.1816,-13.2154,-13.2831,-13.2944,-13.3001,-13.2775,-13.2662,-13.1759,-13.2211,-13.1816,-13.0687,-12.9558,-12.8712,-12.7696,-12.6399,-12.5101,-12.4875,-12.5439,-12.5947,-12.6173,-12.6342,-12.6342,-12.5721,-12.4424,-12.3634,-12.29,-12.1715,-12.053,-12.0812,-12.1433,-12.2956,-12.4189,-12.4527,-12.5214,-12.6116,-12.6342,-12.6342,-12.6342,-12.6342,-12.6229,-12.6173,-12.6116,-12.5891,-12.5326,-12.4706,-12.3577,-12.2279,-12.132,-12.0417,-11.9571,-11.895,-11.895,-12.5291,-12.6803,-12.785,-12.9014,-13.0119,-13.0235,-13.0235,-13.0235,-13.0235,-13.0235,-13.0235,-13.0235,-13.0235,-13.0235,-13.0235,-13.0235,-13.0235,-12.9997,-12.9517,-12.8915,-12.8186,-12.8186,-12.8072,-12.698,-12.6544,-12.7264,-12.5912,-12.5721,-12.5947,-12.5552,-12.5609,-12.6342,-12.6004,-12.606,-12.6229,-12.6342,-12.6342,-12.6342,-12.6342,-12.6342,-12.6342,-12.6342,-12.6342,-12.6342,-12.6342,-12.6342,-12.6511,-12.7189,-12.7922,-12.8091,-12.8148,-12.8712,-12.9107,-12.8543,-12.7696,-12.6568,-12.6624,-12.685,-12.7584,-12.8148,-12.9107,-13.1308,-13.1816,-13.1872,-13.1872,-13.1985,-13.1816,-13.1251,-13.0913,-13.08,-13.0348,-13.08,-13.0574,-12.9784,-12.8035,-12.7019,-12.6229,-12.4593,-12.3972,-12.4029,-12.448,-12.5214,-12.5721,-12.6004,-12.6229,-12.6116,-12.4988,-12.3972,-12.3126,-12.2166,-12.1546,-12.1489,-12.2505,-12.3916,-12.448,-12.4875,-12.5721,-12.6342,-12.6342,-12.6342,-12.6342,-12.6004,-12.5552,-12.5665,-12.5439,-12.4931,-12.4424,-12.3634,-12.2561,-12.1433,-12.053,-11.9966,-11.9458,-11.9006,-11.895,-12.4186,-12.5466,-12.6745,-12.8025,-12.9188,-12.9944,-13.0235,-13.0235,-13.0235,-13.0235,-13.0235,-13.0235,-13.0235,-13.0235,-13.0235,-13.0235,-13.0235,-13.0235,-12.9757,-12.8794,-12.7763,-12.7641,-12.7649,-12.5892,-12.4733,-12.5105,-12.4054,-12.3803,-12.4311,-12.448,-12.4762,-12.5326,-12.6004,-12.6286,-12.6342,-12.6342,-12.6342,-12.6342,-12.6342,-12.6342,-12.6342,-12.6342,-12.6342,-12.6342,-12.6342,-12.6342,-12.6399,-12.7527,-12.8373,-12.8825,-12.8543,-12.8486,-12.8712,-12.7866,-12.6963,-12.6568,-12.685,-12.764,-12.8204,-12.8769,-12.9671,-13.08,-13.0913,-13.0913,-13.0913,-13.0913,-13.0518,-13.0179,-12.9897,-12.9671,-12.9163,-12.9446,-12.9502,-12.8938,-12.7414,-12.6455,-12.5834,-12.3521,-12.1884,-12.2336,-12.3182,-12.4085,-12.4819,-12.5101,-12.527,-12.5496,-12.4424,-12.3408,-12.2618,-12.2392,-12.1884,-12.1997,-12.3239,-12.4141,-12.4593,-12.5157,-12.5891,-12.6229,-12.6116,-12.606,-12.5778,-12.527,-12.4819,-12.448,-12.4198,-12.3803,-12.3295,-12.2279,-12.132,-12.0643,-12.0079,-11.9571,-11.9176,-11.9006,-11.895,-12.3313,-12.4535,-12.5757,-12.7152,-12.8432,-12.9654,-13.0235,-13.0235,-13.0235,-13.0235,-13.0235,-13.0235,-13.0235,-13.0235,-13.0235,-13.0235,-13.0235,-12.9997,-12.9517,-12.8308,-12.698,-12.6394,-12.56,-12.4054,-12.2979,-12.2759,-12.2463,-12.2279,-12.2561,-12.3408,-12.4076,-12.4649,-12.5721,-12.6342,-12.6342,-12.6342,-12.6342,-12.6342,-12.6342,-12.6342,-12.6342,-12.6342,-12.6342,-12.6342,-12.6342,-12.6229,-12.6286,-12.7358,-12.843,-12.8825,-12.8543,-12.8148,-12.7909,-12.7132,-12.6455,-12.6568,-12.7358,-12.8091,-12.8317,-12.9163,-13.0066,-13.0123,-13.0179,-12.9897,-12.9728,-12.9615,-12.9502,-12.922,-12.922,-12.8599,-12.7979,-12.8656,-12.8543,-12.764,-12.6342,-12.5214,-12.4593,-12.2223,-12.0699,-12.0925,-12.1715,-12.2674,-12.3859,-12.4085,-12.4141,-12.4536,-12.3859,-12.2787,-12.2449,-12.2223,-12.1884,-12.1546,-12.2787,-12.3916,-12.4198,-12.4424,-12.5326,-12.5947,-12.5721,-12.5552,-12.4819,-12.4254,-12.3859,-12.3464,-12.3013,-12.2561,-12.2166,-12.1264,-12.0417,-12.0079,-11.9627,-11.9289,-11.9063,-11.9006,-11.895,-12.3313,-12.4535,-12.5873,-12.7152,-12.8316,-12.9654,-13.0061,-13.0177,-13.0177,-13.0235,-13.0116,-13.0235,-13.0235,-13.0235,-13.0235,-13.0235,-13.0235,-12.9583,-12.9339,-12.8328,-12.6685,-12.4458,-12.3488,-12.2456,-12.1891,-12.1157,-12.0987,-12.0925,-12.1433,-12.2336,-12.3408,-12.4536,-12.5721,-12.6286,-12.6342,-12.6342,-12.6342,-12.6342,-12.6342,-12.6286,-12.6116,-12.6116,-12.6004,-12.5947,-12.5891,-12.5496,-12.5439,-12.6737,-12.7584,-12.6737,-12.764,-12.7866,-12.7922,-12.6963,-12.6399,-12.6568,-12.7414,-12.8148,-12.8317,-12.9163,-12.9897,-12.9841,-12.9841,-12.9615,-12.8599,-12.8317,-12.8035,-12.7245,-12.6737,-12.6906,-12.6737,-12.6681,-12.6794,-12.6286,-12.4367,-12.2674,-12.1376,-12.0022,-11.9571,-12.053,-12.0699,-12.1546,-12.2336,-12.2731,-12.2505,-12.2787,-12.2166,-12.1207,-12.0812,-12.1207,-12.1433,-12.1376,-12.2336,-12.3521,-12.369,-12.3746,-12.4649,-12.527,-12.4819,-12.4311,-12.3577,-12.2844,-12.2674,-12.2336,-12.1602,-12.1094,-12.0869,-12.0361,-11.9571,-11.9119,-11.9289,-11.9119,-11.895,-11.895,-11.895,-12.2906,-12.3488,-12.4709,-12.5524,-12.628,-12.8258,-12.8893,-12.8772,-12.9648,-12.9877,-12.9397,-12.9877,-12.9997,-12.9757,-13.0058,-13.0235,-13.0119,-12.9242,-12.8704,-12.8276,-12.5948,-12.3349,-12.1162,-12.053,-12.0248,-11.974,-11.9684,-12.0079,-12.0812,-12.1997,-12.3295,-12.4424,-12.5721,-12.6286,-12.6229,-12.6342,-12.6342,-12.6286,-12.6342,-12.5947,-12.5326,-12.527,-12.4931,-12.4311,-12.4141,-12.4029,-12.3859,-12.5778,-12.6116,-12.4875,-12.5383,-12.6399,-12.6906,-12.6568,-12.6342,-12.6399,-12.7471,-12.8091,-12.8261,-12.8599,-12.8938,-12.8825,-12.8204,-12.764,-12.7301,-12.7076,-12.7019,-12.6399,-12.6342,-12.6342,-12.6342,-12.6342,-12.6004,-12.5214,-12.3013,-12.1376,-12.0812,-11.9684,-11.9289,-11.9514,-11.974,-12.0135,-12.132,-12.1489,-12.1207,-12.0756,-12.0361,-11.974,-11.9176,-12.0191,-12.0812,-12.1207,-12.1997,-12.2618,-12.29,-12.2844,-12.3408,-12.369,-12.3408,-12.29,-12.1997,-12.0925,-12.0981,-12.1038,-12.0248,-11.9684,-11.9684,-11.9458,-11.895,-11.895,-11.895,-11.895,-11.895,-11.895,-11.895,-12.2728,-12.2732,-12.3895,-12.4419,-12.4768,-12.6571,-12.7381,-12.7143,-12.8366,-12.8183,-12.7758,-12.8595,-12.8717,-12.8357,-12.8893,-12.9246,-12.8779,-12.7906,-12.7429,-12.6938,-12.458,-12.176,-11.9862,-11.9176,-11.9006,-11.9006,-11.9063,-11.9401,-12.0248,-12.1433,-12.2674,-12.3972,-12.4762,-12.5383,-12.5721,-12.5383,-12.5496,-12.5778,-12.5552,-12.4931,-12.448,-12.4254,-12.3521,-12.2674,-12.2731,-12.29,-12.3351,-12.4311,-12.3859,-12.2336,-12.3577,-12.5044,-12.6229,-12.6004,-12.5721,-12.5834,-12.6568,-12.7019,-12.685,-12.7245,-12.7471,-12.7189,-12.6737,-12.6342,-12.6342,-12.6342,-12.6342,-12.6342,-12.6342,-12.6342,-12.6342,-12.6342,-12.5721,-12.448,-12.2787,-12.1151,-12.0304,-11.9458,-11.895,-11.895,-11.9006,-11.9401,-12.0022,-12.0191,-11.9909,-11.9232,-11.8837,-11.8555,-11.7878,-11.8329,-11.9063,-11.9909,-12.0925,-12.1546,-12.1997,-12.1884,-12.1941,-12.2166,-12.1997,-12.1546,-12.0586,-11.974,-11.9853,-12.0022,-11.9514,-11.9345,-11.9119,-11.9006,-11.895,-11.895,-11.895,-11.895,-11.895,-11.895,-11.895,-12.2728,-12.279,-12.3895,-12.4302,-12.4363,-12.5295,-12.5698,-12.5639,-12.5987,-12.5693,-12.5282,-12.6278,-12.6396,-12.6046,-12.657,-12.692,-12.6513,-12.5932,-12.5345,-12.4068,-12.1938,-12.0443,-12.014,-11.9345,-11.895,-11.895,-11.895,-11.9063,-11.9514,-12.0474,-12.1489,-12.2787,-12.3126,-12.3464,-12.4254,-12.3464,-12.3746,-12.4367,-12.3634,-12.3634,-12.4076,-12.3295,-12.2618,-12.2561,-12.2505,-12.29,-12.3351,-12.2223,-12.1151,-12.1207,-12.3013,-12.4649,-12.5721,-12.5157,-12.447,-12.4593,-12.4649,-12.4311,-12.3916,-12.5326,-12.606,-12.5439,-12.5947,-12.6342,-12.6342,-12.6342,-12.6342,-12.6342,-12.6342,-12.6342,-12.6342,-12.6342,-12.5665,-12.4536,-12.2956,-12.1264,-11.9458,-11.9063,-11.895,-11.895,-11.895,-11.9006,-11.9119,-11.9176,-11.816,-11.6919,-11.6298,-11.6298,-11.6016,-11.658,-11.7031,-11.7991,-11.9289,-12.0022,-12.0812,-12.0699,-12.0643,-12.0812,-12.0756,-12.0191,-11.9345,-11.9176,-11.9289,-11.9232,-11.9006,-11.9006,-11.895,-11.895,-11.895,-11.895,-11.895,-11.895,-11.895,-11.895,-11.8894,-12.2728,-12.2786,-12.3081,-12.3029,-12.2863,-12.3907,-12.3963,-12.332,-12.4417,-12.4408,-12.3934,-12.5115,-12.5349,-12.4762,-12.5466,-12.5874,-12.5642,-12.4367,-12.3154,-12.1889,-12.0225,-11.9646,-11.9519,-11.9119,-11.895,-11.895,-11.895,-11.9345,-12.0022,-12.053,-12.132,-12.2392,-12.2674,-12.29,-12.3239,-12.3577,-12.3464,-12.3351,-12.3577,-12.3239,-12.2279,-12.1659,-12.1433,-12.1433,-12.1433,-12.1659,-12.1941,-12.053,-11.9966,-12.0756,-12.1546,-12.2674,-12.3803,-12.369,-12.3295,-12.3295,-12.3351,-12.3521,-12.3859,-12.4649,-12.5214,-12.5665,-12.606,-12.6342,-12.6342,-12.6342,-12.6342,-12.6342,-12.6342,-12.6342,-12.6342,-12.6342,-12.5383,-12.3577,-12.211,-12.0756,-11.9401,-11.895,-11.8894,-11.8837,-11.8894,-11.895,-11.895,-11.8894,-11.8216,-11.6862,-11.6354,-11.6129,-11.4718,-11.5395,-11.5847,-11.658,-11.7991,-11.9063,-11.9514,-11.9571,-11.9458,-11.9571,-11.974,-11.9232,-11.895,-11.895,-11.895,-11.895,-11.895,-11.895,-11.895,-11.895,-11.895,-11.895,-11.895,-11.8837,-11.8668,-11.8724,-11.8329,-12.1922,-12.181,-12.2216,-12.1939,-12.1487,-12.2121,-12.1889,-12.1305,-12.2397,-12.25,-12.1965,-12.3263,-12.3439,-12.2797,-12.3556,-12.4138,-12.4253,-12.2347,-12.1084,-12.0456,-11.9823,-11.9243,-11.9067,-11.895,-11.895,-11.895,-11.895,-11.9176,-11.9458,-11.9458,-12.0191,-12.1151,-12.1038,-12.1264,-12.1997,-12.2449,-12.2674,-12.211,-12.2505,-12.2223,-12.0869,-12.0361,-12.0191,-12.0135,-12.0191,-12.0361,-12.0586,-11.9571,-11.9401,-12.0079,-12.0135,-12.1094,-12.2787,-12.3239,-12.3182,-12.3182,-12.29,-12.3069,-12.3803,-12.4132,-12.4931,-12.5552,-12.6116,-12.6286,-12.6342,-12.6342,-12.6342,-12.6342,-12.6342,-12.6342,-12.6229,-12.6004,-12.4198,-12.1207,-12.0079,-11.9006,-11.7821,-11.7709,-11.7934,-11.8216,-11.8329,-11.8555,-11.8837,-11.895,-11.8386,-11.7201,-11.6524,-11.5959,-11.4605,-11.5452,-11.6016,-11.6129,-11.7539,-11.9006,-11.9176,-11.9232,-11.9176,-11.9232,-11.9289,-11.895,-11.895,-11.895,-11.895,-11.895,-11.895,-11.895,-11.895,-11.895,-11.895,-11.895,-11.8724,-11.8499,-11.8386,-11.7934,-11.737,-12.0364,-11.9923,-12.1136,-12.1199,-12.0572,-12.0342,-11.9823,-11.9937,-11.9994,-11.9873,-11.9692,-12.0398,-12.08,-12.0225,-12.0857,-12.1317,-12.1489,-12.0165,-11.9473,-11.9766,-11.9243,-11.895,-11.895,-11.895,-11.8894,-11.8724,-11.8894,-11.8273,-11.7257,-11.7426,-11.7991,-11.8668,-11.816,-11.895,-12.0699,-12.0079,-11.9909,-12.0417,-12.0022,-11.9853,-12.0417,-11.9627,-11.9176,-11.9176,-11.9006,-11.9401,-12.0474,-11.9401,-11.8668,-11.8837,-11.895,-12.0699,-12.3351,-12.4085,-12.4311,-12.4029,-12.3239,-12.2731,-12.29,-12.3916,-12.4414,-12.4988,-12.5665,-12.6116,-12.606,-12.6004,-12.5947,-12.5891,-12.5947,-12.6004,-12.5721,-12.4706,-12.2279,-11.8104,-11.7426,-11.6862,-11.5847,-11.5395,-11.579,-11.6806,-11.7031,-11.7596,-11.8442,-11.8555,-11.7878,-11.6693,-11.5847,-11.5,-11.4549,-11.5,-11.5847,-11.6693,-11.7878,-11.8837,-11.895,-11.8894,-11.8894,-11.8894,-11.8837,-11.895,-11.895,-11.895,-11.895,-11.895,-11.895,-11.8611,-11.8611,-11.7934,-11.8104,-11.8047,-11.8329,-11.8104,-11.7596,-11.6975,-11.6411,-11.8037,-11.8098,-11.9305,-11.9483,-11.9029,-11.954,-11.9535,-11.9243,-11.9243,-11.9183,-11.9067,-11.9708,-11.9823,-11.936,-11.9823,-12.0228,-12.0285,-11.936,-11.9243,-11.9651,-11.9243,-11.895,-11.895,-11.895,-11.8499,-11.7765,-11.7652,-11.7031,-11.6016,-11.6636,-11.7201,-11.7709,-11.8216,-11.8781,-11.9458,-11.9966,-11.9853,-11.9684,-11.9966,-11.9853,-11.9458,-11.9176,-11.9345,-11.9796,-11.8499,-11.7878,-11.816,-11.7088,-11.6467,-11.6693,-11.8104,-11.9458,-12.0699,-12.2336,-12.3239,-12.3182,-12.2844,-12.2956,-12.3803,-12.4254,-12.4819,-12.5609,-12.5383,-12.5101,-12.4988,-12.4311,-12.3916,-12.3859,-12.3803,-12.3408,-12.2392,-12.0643,-11.8837,-11.7426,-11.6298,-11.5677,-11.5339,-11.5226,-11.5395,-11.5677,-11.579,-11.6016,-11.6354,-11.6467,-11.5959,-11.4718,-11.4267,-11.3533,-11.3138,-11.3984,-11.5452,-11.5959,-11.7539,-11.8611,-11.8611,-11.8442,-11.8442,-11.8499,-11.8442,-11.8781,-11.895,-11.895,-11.895,-11.895,-11.8781,-11.8386,-11.7821,-11.6975,-11.658,-11.6354,-11.6807,-11.7205,-11.6526,-11.596,-11.5452,-11.5816,-11.6389,-11.7538,-11.749,-11.7151,-11.8228,-11.8564,-11.8273,-11.8724,-11.895,-11.9067,-11.936,-11.9243,-11.8894,-11.8453,-11.8115,-11.8172,-11.8279,-11.8448,-11.8623,-11.8448,-11.8273,-11.8216,-11.7821,-11.7144,-11.6467,-11.6411,-11.6016,-11.5452,-11.6016,-11.658,-11.7088,-11.7878,-11.8499,-11.9006,-11.974,-11.974,-11.9119,-11.9627,-11.974,-11.9063,-11.895,-11.9063,-11.9232,-11.7821,-11.6806,-11.6411,-11.5226,-11.4831,-11.5282,-11.7201,-11.8668,-11.9684,-12.1941,-12.3295,-12.3295,-12.3295,-12.3464,-12.3746,-12.3803,-12.4198,-12.4875,-12.4254,-12.3803,-12.369,-12.3126,-12.2674,-12.2561,-12.2279,-12.0812,-11.9006,-11.6919,-11.5508,-11.5,-11.4323,-11.3815,-11.3872,-11.3872,-11.3872,-11.3928,-11.4323,-11.4774,-11.5226,-11.5282,-11.4944,-11.4154,-11.3589,-11.3082,-11.263,-11.342,-11.4492,-11.4944,-11.658,-11.816,-11.7821,-11.7652,-11.7652,-11.7652,-11.7709,-11.7652,-11.7539,-11.7314,-11.7426,-11.7314,-11.7257,-11.6919,-11.6693,-11.5959,-11.6074,-11.5848,-11.6017,-11.613,-11.5223,-11.5444,-11.493,-11.3702,-11.4961,-11.561,-11.5563,-11.5282,-11.6467,-11.6919,-11.7031,-11.816,-11.8724,-11.8611,-11.8668,-11.8724,-11.8499,-11.6242,-11.5226,-11.5339,-11.6185,-11.6524,-11.6638,-11.658,-11.6693,-11.6693,-11.5677,-11.5057,-11.4718,-11.4662,-11.4662,-11.4605,-11.4944,-11.5677,-11.6749,-11.7031,-11.7652,-11.8611,-11.895,-11.895,-11.895,-11.9006,-11.895,-11.895,-11.8781,-11.8047,-11.7144,-11.6806,-11.6185,-11.5169,-11.3928,-11.3815,-11.5113,-11.6411,-11.8047,-12.0304,-12.2787,-12.3907,-12.385,-12.4085,-12.369,-12.2731,-12.2674,-12.2787,-12.2731,-12.2731,-12.2561,-12.2505,-12.2279,-12.211,-12.2392,-12.0981,-11.895,-11.6072,-11.4436,-11.3025,-11.1953,-11.1558,-11.1614,-11.1558,-11.184,-11.1445,-11.1727,-11.263,-11.3589,-11.4774,-11.5113,-11.4718,-11.4323,-11.3815,-11.2969,-11.2743,-11.3082,-11.342,-11.3928,-11.5226,-11.6524,-11.5508,-11.5734,-11.5677,-11.579,-11.6072,-11.5564,-11.5339,-11.5282,-11.5395,-11.5452,-11.579,-11.579,-11.5395,-11.5226,-11.5282,-11.511,-11.5219,-11.5214,-11.458,-11.4852,-11.4618,-11.2052,-11.2335,-11.2565,-11.308,-11.3984,-11.5226,-11.5734,-11.5847,-11.6129,-11.6298,-11.6298,-11.6298,-11.6298,-11.6072,-11.4605,-11.3872,-11.3759,-11.3194,-11.2912,-11.2912,-11.2912,-11.2912,-11.2912,-11.2574,-11.2009,-11.1332,-11.1276,-11.0712,-11.0034,-11.1445,-11.3082,-11.4492,-11.6129,-11.7201,-11.7596,-11.8555,-11.895,-11.8894,-11.895,-11.895,-11.8668,-11.7201,-11.6129,-11.5677,-11.4831,-11.421,-11.3815,-11.263,-11.2517,-11.3815,-11.5903,-11.7314,-11.8104,-12.0361,-12.1376,-12.0643,-12.1264,-12.1546,-12.1264,-12.211,-12.2674,-12.2561,-12.1715,-12.1207,-12.1094,-12.0474,-12.0022,-11.9853,-11.7991,-11.658,-11.5113,-11.3251,-11.1897,-11.1502,-11.1389,-11.1389,-11.1332,-11.1389,-11.1332,-11.1389,-11.1558,-11.2122,-11.2348,-11.2517,-11.2348,-11.1784,-11.1727,-11.1671,-11.105,-11.2235,-11.3251,-11.342,-11.4662,-11.5113,-11.421,-11.4436,-11.5226,-11.5282,-11.5113,-11.5057,-11.5282,-11.5226,-11.5226,-11.4549,-11.5113,-11.5057,-11.4154,-11.4093,-11.4256,-11.3681,-11.3611,-11.3822,-11.4032,-11.3752,-11.3738,-11.1389,-11.1389,-11.1389,-11.184,-11.263,-11.3928,-11.4492,-11.4549,-11.5057,-11.5282,-11.5169,-11.4154,-11.3702,-11.3646,-11.2912,-11.2292,-11.184,-11.1558,-11.1163,-11.0712,-11.0655,-11.0712,-11.0599,-11.0147,-10.9527,-10.8906,-10.8849,-10.8454,-10.8172,-10.9696,-11.1614,-11.3364,-11.5339,-11.6298,-11.6354,-11.7088,-11.7483,-11.7426,-11.7426,-11.7483,-11.7257,-11.6016,-11.5,-11.4492,-11.3759,-11.3082,-11.2517,-11.184,-11.1727,-11.263,-11.5395,-11.7031,-11.7031,-11.9853,-12.1207,-12.0586,-12.0643,-12.0474,-12.0022,-12.0699,-12.1151,-12.1151,-12.0417,-11.9966,-11.9966,-11.9345,-11.8499,-11.7483,-11.5677,-11.421,-11.3589,-11.1897,-11.0429,-10.9978,-10.9922,-10.9865,-10.9865,-10.9865,-10.9865,-10.9865,-10.9922,-11.0034,-11.0542,-11.0712,-11.0599,-11.0655,-11.0881,-11.1276,-11.0655,-11.1558,-11.2461,-11.263,-11.3138,-11.3251,-11.2799,-11.3251,-11.3533,-11.3646,-11.3702,-11.3702,-11.3589,-11.3702,-11.3702,-11.3646,-11.3477,-11.3138,-11.2687,-11.2902,-11.3283,-11.2994,-11.2857,-11.3608,-11.3763,-11.3763,-11.3293,-11.1163,-11.105,-11.1163,-11.1219,-11.1389,-11.2574,-11.3138,-11.3307,-11.4379,-11.4831,-11.4097,-11.2066,-11.105,-11.105,-11.0881,-11.026,-10.9414,-11.026,-11.0091,-10.9301,-10.9301,-10.9414,-10.9357,-10.8285,-10.7721,-10.7721,-10.7777,-10.7777,-10.7777,-10.9075,-11.0768,-11.2912,-11.4436,-11.5113,-11.5113,-11.5282,-11.5339,-11.5282,-11.5057,-11.4887,-11.4944,-11.4944,-11.4323,-11.3025,-11.2969,-11.2348,-11.105,-11.1276,-11.1389,-11.1671,-11.5,-11.6975,-11.7029,-12.0017,-12.1821,-12.1426,-12.0412,-11.9571,-11.8555,-11.8555,-11.8611,-11.8611,-11.8555,-11.8555,-11.8555,-11.8555,-11.7596,-11.579,-11.4154,-11.2912,-11.1502,-11.0429,-10.9301,-10.8229,-10.7947,-10.7721,-10.789,-10.7721,-10.7721,-10.7721,-10.8003,-10.8116,-10.9244,-10.947,-10.9809,-11.0373,-11.0768,-11.0937,-11.0881,-11.1332,-11.1558,-11.1107,-11.105,-11.105,-11.0994,-11.105,-11.105,-11.105,-11.105,-11.1219,-11.1445,-11.1445,-11.1332,-11.2009,-11.1727,-11.1893,-11.1777,-11.1821,-11.2254,-11.2292,-11.2926,-11.3783,-11.4262,-11.4193,-11.3263,-10.947,-10.868,-10.9639,-11.0034,-11.0147,-11.1332,-11.184,-11.184,-11.2122,-11.1163,-10.947,-10.8849,-10.8511,-10.8454,-10.7608,-10.7044,-10.6705,-10.6028,-10.6141,-10.6762,-10.6818,-10.7269,-10.8059,-10.789,-10.7721,-10.7721,-10.7721,-10.7721,-10.7834,-10.9019,-10.9978,-11.0655,-11.2687,-11.3759,-11.3759,-11.4774,-11.5282,-11.5169,-11.3251,-11.2235,-11.2235,-11.2292,-11.1727,-11.0599,-11.0486,-10.9865,-10.8737,-11.0373,-11.1389,-11.1558,-11.5,-11.6351,-11.5105,-11.662,-11.6676,-11.4937,-11.4432,-11.4265,-11.4549,-11.5508,-11.6129,-11.6129,-11.6129,-11.6129,-11.6129,-11.6072,-11.5847,-11.5282,-11.3984,-11.2743,-11.1389,-11.026,-10.9132,-10.789,-10.7721,-10.7552,-10.7664,-10.7721,-10.7721,-10.7721,-10.7721,-10.7721,-10.8059,-10.8116,-10.8342,-10.8737,-10.9414,-10.9978,-11.0147,-11.0881,-11.0429,-10.9244,-10.8511,-10.868,-10.8567,-10.8624,-10.868,-10.8511,-10.8624,-10.9132,-10.9809,-11.0034,-11.0317,-11.0994,-11.1276,-11.1381,-11.1929,-11.1735,-11.1698,-11.2007,-11.2002,-11.1824,-11.2087,-11.2087,-11.1389,-10.8342,-10.7834,-10.8454,-10.8737,-10.8793,-10.9414,-10.9696,-10.9639,-10.9132,-10.8172,-10.6987,-10.7495,-10.7721,-10.7664,-10.7044,-10.6479,-10.5972,-10.5238,-10.5012,-10.5069,-10.5069,-10.5407,-10.5972,-10.6028,-10.5689,-10.5294,-10.631,-10.6592,-10.6254,-10.789,-10.9075,-10.9752,-11.0937,-11.1897,-11.2461,-11.3138,-11.3533,-11.342,-11.0486,-10.8906,-10.8906,-10.8342,-10.7439,-10.631,-10.7439,-10.7382,-10.6084,-10.7326,-10.8003,-10.8003,-11.0542,-11.1848,-11.1741,-11.286,-11.3307,-11.2912,-11.3139,-11.3479,-11.3704,-11.4774,-11.5282,-11.5282,-11.5282,-11.4774,-11.3646,-11.3533,-11.3477,-11.3477,-11.2856,-11.1727,-10.9865,-10.9132,-10.8003,-10.6197,-10.6028,-10.6028,-10.6028,-10.6028,-10.6028,-10.6028,-10.6028,-10.6254,-10.6818,-10.6931,-10.7044,-10.7721,-10.8229,-10.8737,-10.8793,-10.9301,-10.9188,-10.8059,-10.7664,-10.7664,-10.7721,-10.7721,-10.7721,-10.7721,-10.7876,-10.8215,-10.8511,-10.895,-10.9283,-10.9956,-10.9962,-11.034,-11.0767,-11.0782,-11.0857,-11.1262,-11.1038,-11.1098,-11.0982,-11.0982,-11.0342,-10.7326,-10.7213,-10.7382,-10.7382,-10.7213,-10.7382,-10.7326,-10.71,-10.5746,-10.5294,-10.552,-10.6479,-10.7044,-10.7213,-10.7157,-10.6649,-10.5689,-10.5689,-10.5182,-10.4335,-10.4279,-10.4279,-10.4279,-10.4335,-10.3658,-10.2699,-10.4843,-10.5351,-10.4674,-10.6649,-10.8285,-10.9244,-10.9583,-11.0147,-11.105,-11.1332,-11.1219,-11.0824,-10.7777,-10.6197,-10.6197,-10.5125,-10.3658,-10.2009,-10.4279,-10.4843,-10.2868,-10.3602,-10.3715,-10.3037,-10.4561,-10.5884,-10.7094,-10.827,-10.9785,-11.1513,-11.2132,-11.2693,-11.3086,-11.3704,-11.4154,-11.4662,-11.4718,-11.3589,-11.0937,-11.0937,-11.1219,-11.1389,-11.1276,-11.0204,-10.8059,-10.7608,-10.6592,-10.4504,-10.4053,-10.4053,-10.4166,-10.4166,-10.4166,-10.4166,-10.3997,-10.4561,-10.552,-10.5689,-10.6028,-10.6874,-10.6931,-10.7269,-10.7382,-10.7326,-10.7213,-10.7157,-10.7157,-10.7213,-10.6931,-10.7157,-10.6987,-10.7213,-10.7407,-10.7616,-10.7593,-10.807,-10.8497,-10.8668,-10.8896,-10.9105,-10.9626,-10.9811,-10.9889,-11.0094,-11.0155,-11.0226,-11.0168,-11.0226,-10.9702,-10.5633,-10.4787,-10.5859,-10.5633,-10.4787,-10.5802,-10.5689,-10.4504,-10.2304,0.0,0.0,-10.3094,-10.3715,-10.4674,-10.4674,-10.4561,-10.4392,-10.4335,-10.4843,-10.5633,-10.5633,-10.5633,-10.5633,-10.5633,-10.4956,-10.3771,-10.5238,-10.5802,-10.5689,-10.7044,-10.7834,-10.8116,-10.9132,-10.9752,-10.9978,-11.0937,-11.0373,-10.8454,-10.7721,-10.7382,-10.7382,-10.7157,-10.4561,-9.9354,-10.253,-10.1852,-9.6566,-10.1288,-10.2135,-9.8241,-10.1062,-10.1934,-9.9817,-10.0668,-10.1908,-10.3256,-10.3472,-10.468,-10.7227,-10.7502,-10.8906,-11.1897,-11.2066,-11.0599,-10.7157,-10.8793,-11.0373,-11.1332,-11.0542,-10.9357,-10.7834,-10.6874,-10.5633,-10.4166,-10.3997,-10.3997,-10.3997,-10.3997,-10.3997,-10.3997,-10.3997,-10.4109,-10.4392,-10.4448,-10.4504,-10.4617,-10.4843,-10.5012,-10.5859,-10.5464,-10.4899,-10.4899,-10.5012,-10.4787,-10.473,-10.4787,-10.4674,-10.4899,-10.5197,-10.5731,-10.664,-10.7337,-10.8046,-10.8846,-10.9247,-10.9397,-10.9857,-10.9255,-10.8765,-10.9327,-10.8714,-10.7957,-10.7957,-10.7957,-10.7899,-10.2755,-10.2247,-10.2868,-10.2755,0.0,-10.2868,-10.2022,-10.016,-9.8975,-9.9144,-10.0484,-10.095,-10.157,-10.2135,-10.2135,-10.2135,-10.2191,-10.2812,-10.3432,-10.4053,-10.4674,-10.4956,-10.4956,-10.4956,-10.4335,-10.3207,-10.5012,-10.5633,-10.5125,-10.6818,-10.7382,-10.6874,-10.8059,-10.7721,-10.6028,-10.8285,-10.8624,-10.6818,-10.6197,-10.6141,-10.6762,-10.5577,-10.2868,-9.8805,-10.1514,0.0,0.0,0.0,0.0,0.0,0.0,0.0,0.0,-9.6949,0.0,-9.643,-9.2427,-9.0657,-9.2198,-9.3205,-9.5871,-10.0667,-10.1683,-10.0724,-9.7733,-10.2078,-10.4674,-10.3997,-10.5689,-10.6762,-10.6818,-10.631,-10.5464,-10.4166,-10.3997,-10.3997,-10.3997,-10.3997,-10.3997,-10.3997,-10.3997,-10.3997,-10.3997,-10.3997,-10.3997,-10.3997,-10.3997,-10.4279,-10.4787,-10.4392,-10.3997,-10.3997,-10.3997,-10.3997,-10.3997,-10.3997,-10.4053,-10.4404,-10.4753,-10.5442,-10.607,-10.6589,-10.7165,-10.7798,-10.797,-10.8072,-10.8519,-10.8257,-10.7892,-10.8033,-10.7725,-10.7318,-10.7318,-10.7318,-10.7318,-10.0385,-10.0385,-10.0385,-10.0216,-9.999,-9.9708,-9.8467,-9.6699,-9.6699,-9.7169,-9.8241,-9.9426,-10.0103,-10.0329,-10.0385,-10.0385,-10.0385,-10.1627,-10.2291,-10.2247,-10.3432,-10.394,-10.3658,-10.3432,-10.2642,-10.1783,-10.3827,-10.4335,-10.3376,-10.5802,-10.6536,-10.5633,-10.6818,-10.5746,-10.2868,0.0,0.0,0.0,-10.4335,-10.4392,-10.5125,-10.3263,-10.078,-9.7959,-10.0385,0.0,-9.8015,-9.9426,-9.9948,-9.9313,-9.9313,0.0,0.0,0.0,0.0,0.0,0.0,0.0,0.0,0.0,0.0,0.0,-8.8818,-8.8705,-8.8084,-9.3952,-9.683,-9.4517,-9.9539,-10.3037,-10.315,-10.332,-10.3263,-10.2699,-10.2586,-10.2812,-10.332,-10.332,-10.332,-10.332,-10.3545,-10.3658,-10.3658,-10.3884,-10.3997,-10.3997,-10.3997,-10.3997,-10.4053,-10.4053,-10.3997,-10.3997,-10.3997,-10.3997,-10.3997,-10.3997,-10.4201,-10.4709,-10.5156,-10.5558,-10.5872,-10.6329,-10.6726,-10.6685,-10.6726,-10.6883,-10.7277,-10.7318,-10.7376,-10.7318,-10.7318,-10.7201,-10.6969,-10.691,-10.7027,-10.0385,-10.0385,-10.0385,-9.9708,-9.8636,-9.7507,-9.6887,-9.6699,-9.6699,-9.6756,-9.6982,-9.8281,-9.937,-10.0329,-10.0385,-10.0385,-10.0442,-10.1627,-10.2291,-10.2348,-10.3432,-10.3432,-10.2417,-10.1345,-10.016,-9.9185,-10.0385,-10.095,-10.0893,-10.332,-10.4392,-10.4335,-10.552,-10.5351,-10.3884,-10.4279,-10.3376,-10.1119,-10.3037,-10.3602,-10.2699,-10.2461,-9.9934,-9.5645,-9.8692,-9.8918,-9.5476,-9.8523,-9.8765,-9.5608,-9.5382,-9.4913,-9.3677,-9.0997,-8.7287,0.0,-7.87,0.0,0.0,0.0,0.0,0.0,0.0,0.0,0.0,-8.656,-8.7858,-8.5432,-9.3727,-9.7507,-9.3332,-9.3896,-9.5363,-9.7338,-9.7507,-9.8354,-10.0498,-10.0837,-10.078,-10.078,-10.174,-10.2417,-10.2417,-10.3376,-10.3997,-10.394,-10.3816,-10.3579,-10.3827,-10.3816,-10.3715,-10.3997,-10.3997,-10.3715,-10.3771,-10.3884,-10.4088,-10.4595,-10.5085,-10.5715,-10.6098,-10.6651,-10.7161,-10.7103,-10.6987,-10.7045,-10.7259,-10.7201,-10.7201,-10.7085,-10.7027,-10.6736,-10.5863,-10.5631,-10.598,-9.8918,-9.8241,-9.8241,-9.7959,-9.7395,-9.683,-9.6699,-9.6699,-9.6699,-9.6699,-9.6756,-9.7959,-9.92,-10.0329,-10.0385,-10.0385,-10.0385,-10.0893,-10.1514,-10.2291,-10.2022,-10.2078,-10.2235,-10.095,-10.0047,-9.9539,-10.0047,-10.0724,-10.1401,-10.2473,-10.2981,-10.3037,-10.4279,-10.2191,-9.7073,-9.9595,-10.078,-10.0385,-10.2078,-10.3432,-10.4222,-10.4279,-10.2868,-10.0047,-10.0893,-10.0555,-9.8918,-10.0442,-10.0611,-9.8975,-9.8862,-9.767,-9.517,-8.5489,-7.9891,0.0,0.0,0.0,0.0,0.0,0.0,0.0,0.0,0.0,0.0,0.0,-7.6327,-7.9281,-8.9156,-9.3332,-8.8423,-8.9043,-9.0228,-9.13,-8.8987,-8.9664,-9.5589,-9.5589,-9.5702,-9.7056,-9.8918,-10.0258,-10.0258,-10.0667,-10.1457,-10.2812,-10.1634,-10.034,-9.9917,-10.0625,-10.1345,-10.1345,-10.1713,-10.1965,-10.1965,-10.2165,-10.2464,-10.2706,-10.3397,-10.3984,-10.4334,-10.4721,-10.5107,-10.5107,-10.5107,-10.5107,-10.5107,-10.5107,-10.5107,-10.5107,-10.5107,-10.4933,-10.4351,-10.4235,-10.4351,-9.7547,-9.6379,-9.4347,-9.384,-9.4347,-9.4347,-9.5118,-9.6097,-9.6097,-9.6322,-9.6605,-9.7282,-9.7716,-9.7716,-9.653,-9.6717,-9.8128,-9.841,-9.9708,-10.1683,-10.1401,-10.157,-10.2235,-10.095,-10.0385,-10.0329,-9.9708,-10.0103,-10.1232,-10.1105,-10.054,-9.9652,-10.078,-9.779,-9.1018,-9.4968,-9.8185,-10.0329,-10.1852,-10.3545,-10.5407,-10.4956,-10.4166,-10.315,-10.2247,-10.1909,-10.2191,-10.2291,-10.2291,-10.2235,-10.0314,-9.7766,-9.446,-8.0262,0.0,0.0,0.0,0.0,0.0,0.0,0.0,0.0,0.0,-6.3086,-5.2873,0.0,-6.6829,0.0,-8.3457,-8.8028,-8.4924,-8.436,0.0,0.0,-7.9902,-7.962,-8.673,-8.8028,-8.9213,-9.1413,-9.463,-9.6907,-9.7229,-9.7607,-9.8325,-9.9693,-9.8244,-9.6666,-9.5829,-9.7341,-9.8516,-9.8099,-9.8286,-9.862,-9.8716,-9.9459,-10.0431,-10.1194,-10.1987,-10.2468,-10.2659,-10.2983,-10.3268,-10.3362,-10.3362,-10.3362,-10.342,-10.3362,-10.3071,-10.185,-10.1559,-10.1734,-10.2373,-10.2432,-10.2664,-9.6756,-9.5965,-8.7915,-8.594,-8.7971,-8.7971,-9.0623,-9.4799,-9.4799,-9.5476,-9.6586,-9.5476,-9.3254,-9.0216,-8.568,0.0,-9.1718,-9.2937,-9.5927,-10.0555,-10.2755,-10.3207,-10.2235,-10.0893,-10.0385,-10.0272,-9.7959,-9.7507,-9.8789,-9.7773,-9.525,-9.1943,-9.3162,-9.226,-8.9608,-9.1978,-9.5645,-10.0216,-10.2642,-10.394,-10.4109,-10.1965,-10.0724,-10.0568,-10.0498,-10.1006,-10.2135,-10.2291,-10.2291,-10.2009,-9.4517,-8.878,-8.5511,0.0,0.0,0.0,0.0,0.0,0.0,0.0,0.0,0.0,0.0,0.0,0.0,0.0,0.0,-6.8853,-7.5275,0.0,-8.1933,-7.7983,0.0,0.0,0.0,-6.9068,-7.2002,-7.7363,-8.1313,-8.2667,0.0,0.0,-9.3594,-9.481,-9.5053,-9.3889,-9.442,-9.4604,-9.3868,-9.5689,-9.6678,-9.4823,-9.4266,-9.4107,-9.4526,-9.5959,-9.7966,-10.0457,-10.1793,-10.1739,-10.216,-10.2408,-10.283,-10.2977,-10.3304,-10.3188,-10.3304,-10.3013,-10.2001,-9.746,-9.6645,-9.7197,-9.9349,-9.9872,-10.0512,-9.0567,-8.6109,-8.1933,-8.12,-8.278,-8.2836,-8.5206,-8.9156,-8.9156,-8.8592,-8.7689,-8.8087,-8.5823,-8.1677,-8.0541,0.0,0.0,0.0,-8.8535,-9.4742,-9.4968,-9.683,-9.9862,-9.8636,-9.8072,-9.8015,-9.7056,-9.7321,-9.8467,-9.8749,-9.0567,-7.4806,0.0,-7.789,-7.7156,-8.4529,-9.051,-9.4686,-9.8636,-10.1062,-10.1796,-10.0837,-10.1062,-10.2417,-10.0385,-10.016,-10.2178,-10.0879,-9.7846,-9.3423,-8.8479,-8.2191,0.0,0.0,0.0,0.0,0.0,0.0,0.0,0.0,0.0,0.0,0.0,-5.1067,-4.3732,0.0,0.0,0.0,-5.9254,-6.1574,-6.4857,-6.8082,0.0,0.0,0.0,0.0,0.0,0.0,0.0,-7.4485,-8.0466,-8.5061,-8.7147,-8.8694,-8.9519,-8.9189,-8.9751,-8.9827,-8.896,0.0,-9.2519,-9.2945,-9.2021,-9.1666,-9.2871,-9.1512,-9.118,-9.4219,-9.5792,-9.6614,-9.6581,-9.7669,-9.8495,-9.8405,-9.8677,-9.8916,-9.8857,-9.8916,-9.8101,-9.6296,-9.583,-9.6121,-9.7022,-9.7255,-9.7487,-8.1223,0.0,0.0,0.0,0.0,-7.5836,-7.8213,-8.1924,-8.1608,-8.0703,-7.9401,-7.9669,0.0,0.0,0.0,0.0,0.0,0.0,-8.2272,-8.8366,-9.0454,-9.3275,-9.683,-9.5927,-9.5702,-9.5984,-9.5061,-9.4404,-9.4178,-9.2655,-8.1853,-6.3086,0.0,0.0,0.0,0.0,-8.5714,-9.051,-9.6492,-10.016,-10.1345,-10.0724,-10.1175,-10.2925,-10.0047,-9.8975,-9.999,-9.6943,-9.2316,-8.594,-7.9902,0.0,0.0,0.0,0.0,0.0,0.0,0.0,0.0,0.0,0.0,0.0,0.0,0.0,0.0,0.0,0.0,0.0,0.0,0.0,-5.3817,-6.0106,-6.1981,0.0,0.0,0.0,0.0,0.0,0.0,0.0,0.0,0.0,-7.8209,-8.1028,-8.382,0.0,0.0,-8.6751,-8.5167,-8.6952,-8.8585,-8.8847,-8.7538,0.0,-8.846,-8.6134,-8.5252,-8.8089,-9.0658,-9.1835,-9.0343,-9.1892,-9.2927,-9.1624,-9.3186,-9.3881,-9.2104,-9.0648,-8.9833,-9.0241,-9.0066,-8.9926,-9.0765,-9.158,-9.2162,0.0,0.0,0.0,0.0,-6.5585,0.0,0.0,0.0,-7.2237,-7.2363,0.0,-7.0825,0.0,0.0,0.0,0.0,-6.6029,-7.2736,0.0,0.0,-9.1413,-9.5081,-9.2993,-9.288,-9.3557,-9.4424,-9.0962,-8.7407,-8.357,-7.5557,0.0,0.0,0.0,0.0,0.0,0.0,-8.182,-8.91,-9.7507,-10.2586,-10.3658,-10.1514,-10.0385,-10.0385,-9.92,-9.7395,-9.4912,-9.0228,-8.5827,-8.1933,-6.8175,0.0,0.0,0.0,0.0,0.0,0.0,0.0,0.0,0.0,0.0,0.0,0.0,0.0,0.0,0.0,0.0,0.0,0.0,0.0,0.0,-5.5349,0.0,0.0,0.0,0.0,0.0,0.0,0.0,0.0,0.0,-7.0873,-6.6303,-7.2016,-7.8306,-8.2967,0.0,0.0,0.0,0.0,-8.5399,-8.1615,-7.9496,-7.8493,-7.8666,-8.0093,-8.2042,-8.4561,0.0,0.0,-8.551,-8.6318,-8.6515,-8.3451,-8.7832,-8.9693,-8.2265,-7.8073,-7.6082,-7.7187,-7.6664,-7.6315,-7.8583,-8.1159,-8.3371,0.0,0.0,0.0,0.0,0.0,0.0,0.0,0.0,0.0,-6.2169,-6.0912,-6.0114,0.0,0.0,0.0,0.0,0.0,0.0,0.0,0.0,-7.6573,-8.0466,-8.2103,-8.4529,-8.4642,-8.261,-8.0466,-7.4598,0.0,0.0,0.0,0.0,0.0,0.0,0.0,0.0,-7.646,-8.3175,-9.2485,-9.8297,-10.0272,-9.9595,-9.8749,-9.7902,-9.9031,-9.5815,-8.7689,-8.34,-7.7983,0.0,0.0,0.0,0.0,0.0,0.0,0.0,0.0,0.0,0.0,0.0,0.0,0.0,0.0,0.0,0.0,0.0,0.0,0.0,0.0,0.0,0.0,0.0,-5.3008,0.0,0.0,0.0,0.0,0.0,0.0,0.0,0.0,0.0,-5.8007,-6.6359,-7.3751,-7.7081,-8.059,-8.2755,-8.2619,0.0,0.0,0.0,0.0,0.0,0.0,0.0,-7.6431,-7.7347,-7.5931,-7.4754,-7.5227,-7.8063,-7.986,-7.8512,0.0,0.0,-7.0615,-6.8856,-6.9082,-6.9107,-6.9393,-6.9684,-6.98,-7.1203,-7.2791,0.0,0.0,0.0,0.0,0.0,0.0,0.0,0.0,0.0,-5.2843,-5.08,0.0,0.0,0.0,0.0,0.0,0.0,0.0,0.0,0.0,0.0,0.0,-7.251,-7.5049,0.0,0.0,0.0,0.0,0.0,0.0,0.0,0.0,0.0,0.0,0.0,0.0,-7.2848,-7.883,-8.9269,-9.5758,-9.779,-9.7151,-9.6435,-9.5984,-9.6774,-9.2711,-8.3288,0.0,0.0,0.0,0.0,0.0,0.0,0.0,0.0,0.0,0.0,0.0,0.0,0.0,0.0,0.0,0.0,0.0,0.0,0.0,0.0,0.0,0.0,0.0,0.0,0.0,-4.8586,0.0,0.0,0.0,0.0,0.0,0.0,0.0,0.0,0.0,0.0,-6.0226,-6.7683,-7.1421,-7.6335,-8.0,-8.0925,-8.133,-8.2114,0.0,0.0,0.0,0.0,0.0,0.0,0.0,0.0,0.0,0.0,0.0,0.0,0.0,0.0,-6.932,-6.1558,-6.0197,-6.0355,-6.029,0.0,0.0,0.0,0.0,0.0,0.0,0.0,0.0,0.0,0.0,0.0,0.0,0.0,0.0,0.0,-4.3463,0.0,0.0,-4.131,0.0,0.0,0.0,0.0,0.0,0.0,0.0,0.0,0.0,0.0,0.0,0.0,0.0,0.0,0.0,0.0,0.0,0.0,0.0,0.0,0.0,0.0,-7.1169,-7.6234,-8.831,-9.5194,-9.6322,-9.4178,-9.3501,-9.4368,-9.2225,-8.8084,-8.182,0.0,0.0,0.0,0.0,0.0,0.0,0.0,0.0,0.0,0.0,0.0,0.0,0.0,0.0,0.0,0.0,0.0,0.0,0.0,0.0,0.0,0.0,0.0,0.0,0.0,0.0,-4.0696,-4.5224,-4.8453,0.0,0.0,0.0,0.0,0.0,0.0,0.0,0.0,0.0,-6.6316,-7.333,-7.8032,-7.8574,-7.8593,-7.8991,-7.9876,-7.6908,-7.5443,-7.8207,-7.8237,-7.6619,0.0,0.0,0.0,0.0,0.0,0.0,0.0,0.0,0.0,0.0,0.0,0.0,0.0,0.0,0.0,0.0,0.0,0.0,0.0,0.0,0.0,0.0,0.0,0.0,0.0,0.0,0.0,0.0,0.0,0.0,0.0,0.0,0.0,0.0,0.0,0.0,0.0,0.0,0.0,0.0,0.0,0.0,0.0,0.0,0.0,0.0,0.0,0.0,0.0,0.0,0.0,0.0,0.0,0.0,-6.8684,-7.3582,-8.5827,-9.1921,-9.147,-9.2372,-9.2203,-9.0905,-9.0115,-8.5996,0.0,0.0,0.0,0.0,0.0,0.0,0.0,0.0,0.0,0.0,0.0,0.0,0.0,0.0,0.0,0.0,0.0,0.0,0.0,0.0,0.0,0.0,0.0,0.0,0.0,0.0,0.0,0.0,-5.2524,-5.1834,-4.7258,0.0,0.0,0.0,0.0,0.0,0.0,0.0,0.0,0.0,0.0,-7.644,-7.9438,-7.914,-7.8593,-7.8896,-7.8502,-7.8193,-7.815,-7.8237,-7.6755,-7.2044,0.0,0.0,0.0,0.0,0.0,0.0,0.0,0.0,0.0,0.0,0.0,0.0,0.0,0.0,0.0,0.0,0.0,0.0,0.0,0.0,0.0,0.0,0.0,0.0,0.0,0.0,0.0,0.0,0.0,0.0,0.0,0.0,0.0,0.0,0.0,0.0,0.0,0.0,0.0,0.0,0.0,0.0,0.0,0.0,0.0,0.0,0.0,0.0,0.0,0.0,0.0,0.0,0.0,-6.7138,-7.2255,-8.4268,-9.0211,-8.9532,-9.0769,-9.051,-8.8479,-8.8028,-8.278,0.0,0.0,0.0,0.0,0.0,0.0,0.0,0.0,0.0,0.0,0.0,0.0,0.0,0.0,0.0,0.0,0.0,0.0,0.0,0.0,0.0,0.0,0.0,0.0,0.0,0.0,0.0,0.0,-4.9076,-4.9568,-4.6316,0.0,0.0,0.0,0.0,0.0,0.0,0.0,0.0,0.0,0.0,-7.2691,-7.565,-7.5786,0.0,0.0,-7.7337,-7.6864,-7.8628,-7.9542,-7.7245,-6.9277,-6.6252,0.0,0.0,0.0,0.0,0.0,0.0,0.0,0.0,0.0,0.0,0.0,0.0,0.0,0.0,0.0,0.0,0.0,0.0,0.0,0.0,0.0,0.0,0.0,0.0,0.0,0.0,0.0,0.0,0.0,0.0,0.0,0.0,0.0,0.0,0.0,0.0,0.0,0.0,0.0,0.0,0.0,0.0,0.0,0.0,0.0,0.0,0.0,0.0,0.0,0.0,0.0,0.0,-6.6343,-7.1679,-8.3474,-8.9626,-8.9455,-8.9192,-8.8509,-8.7012,-8.5714,-7.8717,0.0,0.0,0.0,0.0,0.0,0.0,0.0,0.0,0.0,0.0,0.0,0.0,0.0,0.0,0.0,0.0,0.0,0.0,0.0,0.0,0.0,0.0,0.0,0.0,0.0,0.0,0.0,0.0,0.0,0.0,0.0,0.0,0.0,0.0,0.0,0.0,0.0,0.0,0.0,0.0,0.0,-6.7698,-6.9239,-7.0222,-7.2565,0.0,-7.3859,-7.249,-7.8467,-8.0693,-7.7549,-6.5089,0.0,0.0,0.0,0.0,0.0,0.0,0.0,0.0,0.0,0.0,0.0,0.0,0.0,0.0,0.0,0.0,0.0,0.0,0.0,0.0,0.0,0.0,0.0,0.0,0.0,0.0,0.0,0.0,0.0,0.0,0.0,0.0,0.0,0.0,0.0,0.0,0.0,0.0,0.0,0.0,0.0,0.0,0.0,0.0,0.0,0.0,0.0,0.0,0.0,0.0,0.0,0.0,0.0,0.0,-6.8931,-8.2078,-8.7916,-8.5898,-8.738,-8.7154,-8.4529,-8.1482,0.0,0.0,0.0,0.0,0.0,0.0,0.0,0.0,0.0,0.0,0.0,0.0,0.0,0.0,0.0,0.0,0.0,0.0,0.0,0.0,0.0,0.0,0.0,0.0,0.0,0.0,0.0,-3.2208,0.0,0.0,0.0,0.0,0.0,0.0,0.0,0.0,0.0,0.0,0.0,0.0,0.0,0.0,-6.7845,-7.3297,-7.0961,-6.9486,0.0,0.0,-7.0375,-6.916,-7.2418,-7.2069,0.0,0.0,0.0,0.0,0.0,0.0,0.0,0.0,0.0,0.0,0.0,0.0,0.0,0.0,0.0,0.0,0.0,0.0,0.0,0.0,0.0,0.0,0.0,0.0,0.0,0.0,0.0,0.0,0.0,0.0,0.0,0.0,0.0,0.0,0.0,0.0,0.0,0.0,0.0,0.0,0.0,0.0,0.0,0.0,0.0,0.0,0.0,0.0,0.0,0.0,0.0,0.0,0.0,0.0,-6.1548,-6.828,-7.856,-8.4412,-8.5347,-8.6608,-8.6047,-8.3626,-7.9902,-7.3638,0.0,0.0,0.0,0.0,0.0,0.0,0.0,0.0,0.0,0.0,0.0,0.0,0.0,0.0,0.0,0.0,0.0,0.0,0.0,0.0,0.0,0.0,0.0,0.0,0.0,0.0,0.0,0.0,0.0,0.0,0.0,0.0,0.0,0.0,0.0,0.0,0.0,0.0,0.0,0.0,0.0,0.0,-6.9543,-6.6585,0.0,0.0,0.0,-6.6543,-6.6019,0.0,0.0,0.0,0.0,0.0,0.0,0.0,0.0,0.0,0.0,0.0,0.0,0.0,0.0,0.0,0.0,0.0,0.0,0.0,0.0,0.0,0.0,0.0,0.0,0.0,0.0,0.0,0.0,0.0,0.0,0.0,0.0,0.0,0.0,0.0,0.0,0.0,0.0,0.0,0.0,0.0,0.0,0.0,0.0,0.0,0.0,0.0,0.0,0.0,0.0,0.0,0.0,0.0,0.0,0.0,0.0,0.0,-6.8032,-7.4829,-8.0953,-8.6188,-8.6121,-8.5139,-8.3426,-7.9845,-7.33,0.0,0.0,0.0,0.0,0.0,0.0,0.0,0.0,0.0,0.0,0.0,0.0,0.0,0.0,0.0,0.0,0.0,0.0,0.0,0.0,0.0,0.0,0.0,0.0,0.0,0.0,0.0,0.0,0.0,0.0,0.0,0.0,0.0,0.0,0.0,0.0,0.0,0.0,0.0,0.0,0.0,-6.201,-6.276,-6.0225,-5.8671,0.0,0.0,-6.1426,-6.5147,-6.6194,0.0,0.0,0.0,0.0,0.0,0.0,0.0,0.0,0.0,0.0,0.0,0.0,0.0,0.0,0.0,0.0,0.0,0.0,0.0,0.0,0.0,0.0,0.0,0.0,0.0,0.0,0.0,0.0,0.0,0.0,0.0,0.0,0.0,0.0,0.0,0.0,0.0,0.0,0.0,0.0,0.0,0.0,0.0,0.0,0.0,0.0,0.0,0.0,0.0,0.0,0.0,0.0,0.0,0.0,0.0,0.0,-6.5901,-7.6187,-8.272,-8.5123,-8.5271,-8.4296,-8.2296,-7.9451,-7.33,0.0,0.0,0.0,0.0,0.0,0.0,0.0,0.0,0.0,0.0,0.0,0.0,0.0,0.0,0.0,0.0,0.0,0.0,0.0,0.0,0.0,0.0,0.0,0.0,0.0,0.0,0.0,0.0,0.0,0.0,0.0,0.0,0.0,0.0,0.0,0.0,0.0,0.0,0.0,0.0,0.0,-5.8489,-6.3807,-5.9526,0.0,0.0,0.0,0.0,-5.7469,-5.4619,0.0,0.0,0.0,0.0,0.0,0.0,0.0,0.0,0.0,0.0,0.0,0.0,0.0,0.0,0.0,0.0,0.0,0.0,0.0,0.0,0.0,0.0,0.0,0.0,0.0,0.0,0.0,0.0,0.0,0.0,0.0,0.0,0.0,0.0,0.0,0.0,0.0,0.0,0.0,0.0,0.0,0.0,0.0,0.0,0.0,0.0,0.0,0.0,0.0,0.0,0.0,0.0,0.0,0.0,0.0,0.0,-6.7404,-7.3552,-7.9002,-8.3803,-8.4033,-8.3269,-8.1844,-7.9281,-7.33,0.0,0.0,0.0,0.0,0.0,0.0,0.0,0.0,0.0,0.0,0.0,0.0,0.0,0.0,0.0,0.0,0.0,0.0,0.0,0.0,0.0,0.0,0.0,0.0,0.0,0.0,0.0,0.0,0.0,0.0,0.0,0.0,0.0,0.0,0.0,0.0,0.0,0.0,0.0,0.0,-5.2728,-5.494,-5.8981,0.0,0.0,0.0,0.0,0.0,0.0,-5.0721,-4.7988,0.0,0.0,0.0,0.0,0.0,0.0,0.0,0.0,0.0,0.0,0.0,0.0,0.0,0.0,0.0,0.0,0.0,0.0,0.0,0.0,0.0,0.0,0.0,0.0,0.0,0.0,0.0,0.0,0.0,0.0,0.0,0.0,0.0,0.0,0.0,0.0,0.0,0.0,0.0,0.0,0.0,0.0,0.0,0.0,0.0,0.0,0.0,0.0,0.0,0.0,0.0,0.0,0.0,0.0,0.0,-6.8269,-6.9762,-7.4356,-8.2275,-8.2828,-8.2642,-8.1924,-7.9416,-7.3243,-6.3425,0.0,0.0,0.0,0.0,0.0,0.0,0.0,0.0,0.0,0.0,0.0,0.0,0.0,0.0,0.0,0.0,0.0,0.0,0.0,0.0,0.0,0.0,0.0,0.0,0.0,0.0,0.0,0.0,0.0,0.0,0.0,0.0,0.0,0.0,0.0,0.0,0.0,0.0,0.0,-4.9267,-5.1001,0.0,0.0,0.0,0.0,0.0,0.0,0.0,0.0,-4.6592,0.0,0.0,0.0,0.0,0.0,0.0,0.0,0.0,0.0,0.0,0.0,0.0,0.0,0.0,0.0,0.0,0.0,0.0,0.0,0.0,0.0,0.0,0.0,0.0,0.0,0.0,0.0,0.0,0.0,0.0,0.0,0.0,0.0,0.0,0.0,0.0,0.0,0.0,0.0,0.0,0.0,0.0,0.0,0.0,0.0,0.0,0.0,0.0,0.0,0.0,0.0,0.0,0.0,0.0,0.0,0.0,-6.7005,-7.3948,-8.0124,-8.2045,-8.2743,-8.2324,-7.9514,-7.2792,-6.1953,0.0,0.0,0.0,0.0,0.0,0.0,0.0,0.0,0.0,0.0,0.0,0.0,0.0,0.0,0.0,0.0,0.0,0.0,0.0,0.0,0.0,0.0,0.0,0.0,0.0,0.0,0.0,0.0,0.0,0.0,0.0,0.0,0.0,0.0,0.0,0.0,0.0,0.0,-3.8099,-4.2345,0.0,0.0,0.0,0.0,0.0,0.0,0.0,0.0,-4.4573,0.0,0.0,0.0,0.0,0.0,0.0,0.0,0.0,0.0,0.0,0.0,0.0,0.0,0.0,0.0,0.0,0.0,0.0,0.0,0.0,0.0,0.0,0.0,0.0,0.0,0.0,0.0,0.0,0.0,0.0,0.0,0.0,0.0,0.0,0.0,0.0,0.0,0.0,0.0,0.0,0.0,0.0,0.0,0.0,0.0,0.0,0.0,0.0,0.0,0.0,0.0,0.0,0.0,0.0,0.0,0.0,0.0,0.0,-7.2944,-7.9679,-8.2182,-8.2979,-8.2255,-7.5887,-6.8669,0.0,0.0,0.0,0.0,0.0,0.0,0.0,0.0,0.0,0.0,0.0,0.0,0.0,0.0,0.0,0.0,0.0,0.0,0.0,0.0,0.0,0.0,0.0,0.0,0.0,0.0,0.0,0.0,0.0,0.0,0.0,0.0,0.0,0.0,0.0,0.0,0.0,0.0,0.0,0.0,0.0,0.0,0.0,0.0,0.0,0.0,0.0,0.0,0.0,0.0,0.0,0.0,0.0,0.0,0.0,0.0,0.0,0.0,0.0,0.0,0.0,0.0,0.0,0.0,0.0,0.0,0.0,0.0,0.0,0.0,0.0,0.0,0.0,0.0,0.0,0.0,0.0,0.0,0.0,0.0,0.0,0.0,0.0,0.0,0.0,0.0,0.0,0.0,0.0,0.0,0.0,0.0,0.0,0.0,0.0,0.0,0.0,0.0,0.0,0.0,0.0,0.0,0.0,0.0,0.0,0.0,0.0,0.0,-7.1431,-7.9018,-8.1834,-8.289,-8.2264,-7.2502,-6.4624,0.0,0.0,0.0,0.0,0.0,0.0,0.0,0.0,0.0,0.0,0.0,0.0,0.0,0.0,0.0,0.0,0.0,0.0,0.0,0.0,0.0,0.0,0.0,0.0,0.0,0.0,0.0,0.0,0.0,0.0,0.0,0.0,0.0,0.0,0.0,0.0,0.0,0.0,0.0,0.0,0.0,0.0,0.0,0.0,0.0,0.0,0.0,0.0,-4.3218,0.0,0.0,0.0,0.0,0.0,0.0,0.0,0.0,0.0,0.0,0.0,0.0,0.0,0.0,0.0,0.0,0.0,0.0,0.0,0.0,0.0,0.0,0.0,0.0,0.0,0.0,0.0,0.0,0.0,0.0,0.0,0.0,0.0,0.0,0.0,0.0,0.0,0.0,0.0,0.0,0.0,0.0,0.0,0.0,0.0,0.0,0.0,0.0,0.0,0.0,0.0,0.0,0.0,0.0,0.0,0.0,0.0,0.0,0.0,-6.9213,-7.6768,-8.0117,-8.1797,-8.1432,-7.1866,-6.275,0.0,0.0,0.0,0.0,0.0,0.0,0.0,0.0,0.0,0.0,0.0,0.0,0.0,0.0,0.0,0.0,0.0,0.0,0.0,0.0,0.0,0.0,0.0,0.0,0.0,0.0,0.0,0.0,0.0,0.0,0.0,0.0,0.0,0.0,0.0,0.0,0.0,0.0,0.0,0.0,0.0,0.0,0.0,0.0,0.0,0.0,0.0,0.0,0.0,0.0,0.0,0.0,0.0,0.0,0.0,0.0,0.0,0.0,0.0,0.0,0.0,0.0,0.0,0.0,0.0,0.0,0.0,0.0,0.0,0.0,0.0,0.0,0.0,0.0,0.0,0.0,0.0,0.0,0.0,0.0,0.0,0.0,0.0,0.0,0.0,0.0,0.0,0.0,0.0,0.0,0.0,0.0,0.0,0.0,0.0,0.0,0.0,0.0,0.0,0.0,0.0,0.0,0.0,0.0,0.0,0.0,0.0,0.0,-6.4449,-7.2069,-7.7149,-7.8063,-7.4354,-6.4961,-5.781,0.0,0.0,0.0,0.0,0.0,0.0,0.0,0.0,0.0,0.0,0.0,0.0,0.0,0.0,0.0,0.0,0.0,0.0,0.0,0.0,0.0,0.0,0.0,0.0,0.0,0.0,0.0,0.0,0.0,0.0,0.0,0.0,0.0,0.0,0.0,0.0,0.0,0.0,0.0,0.0,0.0,0.0,0.0,0.0,0.0,0.0,0.0,0.0,0.0,0.0,0.0,0.0,0.0,0.0,0.0,0.0,0.0,0.0,0.0,0.0,0.0,0.0,0.0,0.0,0.0,0.0,0.0,0.0,0.0,0.0,0.0,0.0,0.0,0.0,0.0,0.0,0.0,0.0,0.0,0.0,0.0,0.0,0.0,0.0,0.0,0.0,0.0,0.0,0.0,0.0,0.0,0.0,0.0,0.0,0.0,0.0,0.0,0.0,0.0,0.0,0.0,0.0,0.0,0.0,0.0,0.0,0.0,0.0,0.0,-6.6892,-7.2592,-7.265,-6.6479,-5.8533,-5.2996,0.0,0.0,0.0,0.0,0.0,0.0,0.0,0.0,0.0,0.0,0.0,0.0,0.0,0.0,0.0,0.0,0.0,0.0,0.0,0.0,0.0,0.0,0.0,0.0,0.0,0.0,0.0,0.0,0.0,0.0,0.0,0.0,0.0,0.0,0.0,0.0,0.0,0.0,0.0,0.0,0.0,0.0,0.0,0.0,0.0,0.0,0.0,0.0,0.0,0.0,0.0,0.0,0.0,0.0,0.0,0.0,0.0,0.0,0.0,0.0,0.0,0.0,0.0,0.0,0.0,0.0,0.0,0.0,0.0,0.0,0.0,0.0,0.0,0.0,0.0,0.0,0.0,0.0,0.0,0.0,0.0,0.0,0.0,0.0,0.0,0.0,0.0,0.0,0.0,0.0,0.0,0.0,0.0,0.0,0.0,0.0,0.0,0.0,0.0,0.0,0.0,0.0,0.0,0.0,0.0,0.0,0.0,0.0,0.0,-6.16,-6.5612,-6.5027,-5.9642,-5.4526,-4.8809,0.0,0.0,0.0,0.0,0.0,0.0,0.0,0.0,0.0,0.0,0.0,0.0,0.0,0.0,0.0,0.0,0.0,0.0,0.0,0.0,0.0,0.0,0.0,0.0,0.0,0.0,0.0,0.0,0.0,0.0,0.0,0.0,0.0,0.0,0.0,0.0,0.0,0.0,0.0,0.0,0.0,0.0,0.0,0.0,0.0,0.0,0.0,0.0,0.0,0.0,0.0,0.0,0.0,0.0,0.0,0.0,0.0,0.0,0.0,0.0,0.0,0.0,0.0,0.0,0.0,0.0,0.0,0.0,0.0,0.0,0.0,0.0,0.0,0.0,0.0,0.0,0.0,0.0,0.0,0.0,0.0,0.0,0.0,0.0,0.0,0.0,0.0,0.0,0.0,0.0,0.0,0.0,0.0,0.0,0.0,0.0,0.0,0.0,0.0,0.0,0.0,0.0,0.0,0.0,0.0,0.0,0.0,0.0,0.0,-4.9616,-5.3804,-5.5963,-5.5622,-4.9164,-4.5535,-4.5167,0.0,0.0,0.0,0.0,0.0,0.0,0.0,0.0,0.0,0.0,0.0,0.0,0.0,0.0,0.0,0.0,0.0,0.0,0.0,0.0,0.0,0.0,0.0,0.0,0.0,0.0,0.0,0.0,0.0,0.0,0.0,0.0,0.0,0.0,0.0,0.0,0.0,0.0,0.0,0.0,0.0,0.0,0.0,0.0,0.0,0.0,0.0,0.0,0.0,0.0,0.0,0.0,0.0,0.0,0.0,0.0,0.0,0.0,0.0,0.0,0.0,0.0,0.0,0.0,0.0,0.0,0.0,0.0,0.0,0.0,0.0,0.0,0.0,0.0,0.0,0.0,0.0,0.0,0.0,0.0,0.0,0.0,0.0,0.0,0.0,0.0,0.0,0.0,0.0,0.0,0.0,0.0,0.0,0.0,0.0,0.0,0.0,0.0,0.0,0.0,0.0,0.0,0.0,0.0,0.0,0.0,0.0,0.0,-4.409,-4.8569,-5.1245,-5.1594,-4.6301,-4.3411,0.0,0.0,0.0,0.0,0.0,0.0,0.0,0.0,0.0,0.0,0.0,0.0,0.0,0.0,0.0,0.0,0.0,0.0,0.0,0.0,0.0,0.0,0.0,0.0,0.0,0.0,0.0,0.0,0.0,0.0,0.0,0.0,0.0,0.0,0.0,0.0,0.0,0.0,0.0,0.0,0.0,0.0,0.0,0.0,0.0,0.0,0.0,0.0,0.0,0.0,0.0,0.0,0.0,0.0,0.0,0.0,0.0,0.0,0.0,0.0,0.0,0.0,0.0,0.0,0.0,0.0,0.0,0.0,0.0,0.0,0.0,0.0,0.0,0.0,0.0,0.0,0.0,0.0,0.0,0.0,0.0,0.0,0.0,0.0,0.0,0.0,0.0,0.0,0.0,0.0,0.0,0.0,0.0,0.0,0.0,0.0,0.0,0.0,0.0,0.0,0.0,0.0,0.0,0.0,0.0,0.0,0.0,0.0,-4.1473,-4.7421,-5.1292,-5.1525,-4.806,-4.6375,-4.2229,0.0,0.0,0.0,0.0,0.0,0.0,0.0,0.0,0.0,0.0,0.0,0.0,0.0,0.0,0.0,0.0,0.0,0.0,0.0,0.0,0.0,0.0,0.0,0.0,0.0,0.0,0.0,0.0,0.0,0.0,0.0,0.0,0.0,0.0,0.0,0.0,0.0,0.0,0.0,0.0,0.0,0.0,0.0,0.0,0.0,0.0,0.0,0.0,0.0,0.0,0.0,0.0,0.0,0.0,0.0,0.0,0.0,0.0,0.0,0.0,0.0,0.0,0.0,0.0,0.0,0.0,0.0,0.0,0.0,0.0,0.0,0.0,0.0,0.0,0.0,0.0,0.0,0.0,0.0,0.0,0.0,0.0,0.0,0.0,0.0,0.0,0.0,0.0,0.0,0.0,0.0,0.0,0.0,0.0,0.0,0.0,0.0,0.0,0.0,0.0,0.0,0.0,0.0,0.0,0.0,0.0,0.0,0.0,0.0,-4.1357,0.0,-4.7348,0.0,-4.4149,-4.087,0.0,0.0,0.0,0.0,0.0,0.0,0.0,0.0,0.0,0.0,0.0,0.0,0.0,0.0,0.0,0.0,0.0,0.0,0.0,0.0,0.0,0.0,0.0,0.0,0.0,0.0,0.0,0.0,0.0,0.0,0.0,0.0,0.0,0.0,0.0,0.0,0.0,0.0,0.0,0.0,0.0,0.0,0.0,0.0,0.0,0.0,0.0,0.0,0.0,0.0,0.0,0.0,0.0,0.0,0.0,0.0,0.0,0.0,0.0,0.0,0.0,0.0,0.0,0.0,0.0,0.0,0.0,0.0,0.0,0.0,0.0,0.0,0.0,0.0,0.0,0.0,0.0,0.0,0.0,0.0,0.0,0.0,0.0,0.0,0.0,0.0,0.0,0.0,0.0,0.0,0.0,0.0,0.0,0.0,0.0,0.0,0.0,0.0,0.0,0.0,0.0,0.0,0.0,0.0,0.0,0.0,0.0,0.0,0.0,-4.0987,-4.1802,-4.4596,-4.9151,-4.4131,-4.1531,0.0,0.0,0.0,0.0,0.0,0.0,0.0,0.0,0.0,0.0,0.0,0.0,0.0,0.0,0.0,0.0,0.0,0.0,0.0,0.0,0.0,0.0,0.0,0.0,0.0,0.0,0.0,0.0,0.0,0.0,0.0,0.0,0.0,0.0,0.0,0.0,0.0,0.0,0.0,0.0,0.0,0.0,0.0,0.0,0.0,0.0,0.0,0.0,0.0,0.0,0.0,0.0,0.0,0.0,0.0,0.0,0.0,0.0,0.0,0.0,0.0,0.0,0.0,0.0,0.0,0.0,0.0,0.0,0.0,0.0,0.0,0.0,0.0,0.0,0.0,0.0,0.0,0.0,0.0,0.0,0.0,0.0,0.0,0.0,0.0,0.0,0.0,0.0,0.0,0.0,0.0,0.0,0.0,0.0,0.0,0.0,0.0,0.0,0.0,0.0,0.0,0.0,0.0,0.0,0.0,0.0,0.0,0.0,0.0,-4.5079,-4.3276,-4.3334,-4.5661,-4.5603,-4.3916,0.0,0.0,0.0,0.0,0.0,0.0,0.0,0.0,0.0,0.0,0.0,0.0,0.0,0.0,0.0,0.0,0.0,0.0,0.0,0.0,0.0,0.0,0.0,0.0,0.0,0.0,0.0,0.0,0.0,0.0,0.0,0.0,0.0,0.0,0.0,0.0,0.0,0.0,0.0,0.0,0.0,0.0,0.0,0.0,0.0,0.0,0.0,0.0,0.0,0.0,0.0,0.0,0.0,0.0,0.0,0.0,0.0,0.0,0.0,0.0,0.0,0.0,0.0,0.0,0.0,0.0,0.0,0.0,0.0,0.0,0.0,0.0,0.0,0.0,0.0,0.0,0.0,0.0,0.0,0.0,0.0,0.0,0.0,0.0,0.0,0.0,0.0,0.0,0.0,0.0,0.0,0.0,0.0,0.0,0.0,0.0,0.0,0.0,0.0,0.0,0.0,0.0,0.0,0.0,0.0,0.0,0.0,0.0,0.0,0.0,-4.1589,-4.252,-4.3102,-4.2287,-4.1319,-4.0273,0.0,0.0,0.0,0.0,0.0,0.0,0.0,0.0,0.0,0.0,0.0,0.0,0.0,0.0,0.0,0.0,0.0,0.0,0.0,0.0,0.0,0.0,0.0,0.0,0.0,0.0,0.0,0.0,0.0,0.0,0.0,0.0,0.0,0.0,0.0,0.0,0.0,0.0,0.0,0.0,0.0,0.0,0.0,0.0,0.0,0.0,0.0,0.0,0.0,0.0,0.0,0.0,0.0,0.0,0.0,0.0,0.0,0.0,0.0,0.0,0.0,0.0,0.0,0.0,0.0,0.0,0.0,0.0,0.0,0.0,0.0,0.0,0.0,0.0,0.0,0.0,0.0,0.0,0.0,0.0,0.0,0.0,0.0,0.0,0.0,0.0,0.0,0.0,0.0,0.0,0.0,0.0,0.0,0.0,0.0,0.0,0.0,0.0,0.0,0.0,0.0,0.0,0.0,0.0,0.0,0.0,0.0,0.0,0.0,0.0,-4.1103,-4.2228,-4.1453,-4.1028,0.0,0.0,0.0,0.0,0.0,0.0,0.0,0.0,0.0,0.0,0.0,0.0,0.0,0.0,0.0,0.0,0.0,0.0,0.0,0.0,0.0,0.0,0.0,0.0,0.0,0.0,0.0,0.0,0.0,0.0,0.0,0.0,0.0,0.0,0.0,0.0,0.0,0.0,0.0,0.0,0.0,0.0,0.0,0.0,0.0,0.0,0.0,0.0,0.0,0.0,0.0,0.0,0.0,0.0,0.0,0.0,0.0,0.0,0.0,0.0,0.0,0.0,0.0,0.0,0.0,0.0,0.0,0.0,0.0,0.0,0.0,0.0,0.0,0.0,0.0,0.0,0.0,0.0,0.0,0.0,0.0,0.0,0.0,0.0,0.0,0.0,0.0,0.0,0.0,0.0,0.0,0.0,0.0,0.0,0.0,0.0,0.0,0.0,0.0,0.0,0.0,0.0,0.0,0.0,0.0,0.0,0.0,0.0,0.0,0.0,0.0,-3.9603,-4.1972,-4.215,0.0,-4.1647,0.0,0.0,0.0,0.0,0.0,0.0,0.0,0.0,0.0,0.0,0.0,0.0,0.0,0.0,0.0,0.0,0.0,0.0,0.0,0.0,0.0,0.0,0.0,0.0,0.0,0.0,0.0,0.0,0.0,0.0,0.0,0.0,0.0,0.0,0.0,0.0,0.0,0.0,0.0,0.0,0.0,0.0,0.0,0.0,0.0,0.0,0.0,0.0,0.0,0.0,0.0,0.0,0.0,0.0,0.0,0.0,0.0,0.0,0.0,0.0,0.0,0.0,0.0,0.0,0.0,0.0,0.0,0.0,0.0,0.0,0.0,0.0,0.0,0.0,0.0,0.0,0.0,0.0,0.0,0.0,0.0,0.0,0.0,0.0,0.0,0.0,0.0,0.0,0.0,0.0,0.0,0.0,0.0,0.0,0.0,0.0,0.0,0.0,0.0,0.0,0.0,0.0,0.0,0.0,0.0,0.0,0.0,0.0,0.0,0.0,0.0,0.0,-4.1498,-4.105,-3.7867,0.0,0.0,0.0,0.0,0.0,0.0,0.0,0.0,0.0,0.0,0.0,0.0,0.0,0.0,0.0,0.0,0.0,0.0,0.0,0.0,0.0,0.0,0.0,0.0,0.0,0.0,0.0,0.0,0.0,0.0,0.0,0.0,0.0,0.0,0.0,0.0,0.0,0.0,0.0,0.0,0.0,0.0,0.0,0.0,0.0,0.0,0.0,0.0,0.0,0.0,0.0,0.0,0.0,0.0,0.0,0.0,0.0,0.0,0.0,0.0,0.0,0.0,0.0,0.0,0.0,0.0,0.0,0.0,0.0,0.0,0.0,0.0,0.0,0.0,0.0,0.0,0.0,0.0,0.0,0.0,0.0,0.0,0.0,0.0,0.0,0.0,0.0,0.0,0.0,0.0,0.0,0.0,0.0,0.0,0.0,0.0,0.0,0.0,0.0,0.0,0.0,0.0,0.0,0.0,0.0,0.0,0.0,0.0,0.0,0.0,-4.0079,-3.8877,-4.0173,-3.9573,-3.6762,0.0,0.0,0.0,0.0,0.0,0.0,0.0,0.0,0.0,0.0,0.0,0.0,0.0,0.0,0.0,0.0,0.0,0.0,0.0,0.0,0.0,0.0,0.0,0.0,0.0,0.0,0.0,0.0,0.0,0.0,0.0,0.0,0.0,0.0,0.0,0.0,0.0,0.0,0.0,0.0,0.0,0.0,0.0,0.0,0.0,0.0,0.0,0.0,0.0,0.0,0.0,0.0,0.0,0.0,0.0,0.0,0.0,0.0,0.0,0.0,0.0,0.0,0.0,0.0,0.0,0.0,0.0,0.0,0.0,0.0,0.0,0.0,0.0,0.0,0.0,0.0,0.0,0.0,0.0,0.0,0.0,0.0,0.0,0.0,0.0,0.0,0.0,0.0,0.0,0.0,0.0,0.0,0.0,0.0,0.0,0.0,0.0,0.0,0.0,0.0,0.0,0.0,0.0,0.0,0.0,0.0,0.0,0.0,0.0,0.0,0.0,0.0,0.0,0.0,-3.7228,0.0,0.0,0.0,0.0,0.0,0.0,0.0,0.0,0.0,0.0,0.0,0.0,0.0,0.0,0.0,0.0,0.0,0.0,0.0,0.0,0.0,0.0,0.0,0.0,0.0,0.0,0.0,0.0,0.0,0.0,0.0,0.0,0.0,0.0,0.0,0.0,0.0,0.0,0.0,0.0,0.0,0.0,0.0,0.0,0.0,0.0,0.0,0.0,0.0,0.0,0.0,0.0,0.0,0.0,0.0,0.0,0.0,0.0,0.0,0.0,0.0,0.0,0.0,0.0,0.0,0.0,0.0,0.0,0.0,0.0,0.0,0.0,0.0,0.0,0.0,0.0,0.0,0.0,0.0,0.0,0.0,0.0,0.0,0.0,0.0,0.0,0.0,0.0,0.0,0.0,0.0,0.0,0.0,0.0,0.0,0.0,0.0,0.0,0.0,0.0,0.0,0.0,0.0,0.0,0.0,0.0,0.0,0.0,0.0,0.0,0.0,0.0,0.0,0.0,0.0,0.0,0.0,0.0,0.0,0.0,0.0,0.0,0.0,0.0,0.0,0.0,0.0,0.0,0.0,0.0,0.0,0.0,0.0,0.0,0.0,0.0,0.0,0.0,0.0,0.0,0.0,0.0,0.0,0.0,0.0,0.0,0.0,0.0,0.0,0.0,0.0,0.0,0.0,0.0,0.0,0.0,0.0,0.0,0.0,0.0,0.0,0.0,0.0,0.0,0.0,0.0,0.0,0.0,0.0,0.0,0.0,0.0,0.0,0.0,0.0,0.0,0.0,0.0,0.0,0.0,0.0,0.0,0.0,0.0,0.0,0.0,0.0,0.0,0.0,0.0,0.0,0.0,0.0,0.0,0.0,0.0,0.0,0.0,0.0,0.0,0.0,0.0,0.0,0.0,0.0,0.0,0.0,0.0,0.0,0.0,0.0,0.0,0.0,0.0,0.0,0.0,0.0,0.0,0.0,0.0,0.0,0.0,0.0,0.0,0.0,0.0,0.0,0.0,0.0,0.0,0.0,0.0,0.0,0.0,0.0,0.0,0.0,0.0,0.0,0.0,0.0,0.0,0.0,0.0,0.0,0.0,0.0,0.0,0.0,0.0,0.0,0.0,0.0,0.0,0.0,0.0,0.0,0.0,0.0,0.0,0.0,0.0,0.0,0.0,0.0,0.0,0.0,0.0,0.0,0.0,0.0,0.0,0.0,0.0,0.0,0.0,0.0,0.0,0.0,0.0,0.0,0.0,0.0,0.0,0.0,0.0,0.0,0.0,0.0,0.0,0.0,0.0,0.0,0.0,0.0,0.0,0.0,0.0,0.0,0.0,0.0,0.0,0.0,0.0,0.0,0.0,0.0,0.0,0.0,0.0,0.0,0.0,0.0,0.0,0.0,0.0,0.0,0.0,0.0,0.0,0.0,0.0,0.0,0.0,0.0,0.0,0.0,0.0,0.0,0.0,0.0,0.0,0.0,0.0,0.0,0.0,0.0,0.0,0.0,0.0,0.0,0.0,0.0,0.0,0.0,0.0,0.0,0.0,0.0,0.0,0.0,0.0,0.0,0.0,0.0,0.0,0.0,0.0,0.0,0.0,0.0,0.0,0.0,0.0,0.0,0.0,0.0,0.0,0.0,0.0,0.0,0.0,0.0,0.0,0.0,0.0,0.0,0.0,0.0,0.0,0.0,0.0,0.0,0.0,0.0,0.0,0.0,0.0,0.0,0.0,0.0,0.0,0.0,0.0,0.0,0.0,0.0,0.0,0.0,0.0,0.0,0.0,0.0,0.0,0.0,0.0,0.0,0.0,0.0,0.0,0.0,0.0,0.0,0.0,0.0,0.0,0.0,0.0,0.0,0.0,0.0,0.0,0.0,0.0,0.0,0.0,0.0,0.0,0.0,0.0,0.0,0.0,0.0,0.0,0.0,0.0,0.0,0.0,0.0,0.0,0.0,0.0,0.0,0.0,0.0,0.0,0.0,0.0,0.0,0.0,0.0,0.0,0.0,0.0,0.0,0.0,0.0,0.0,0.0,0.0,0.0,0.0,0.0,0.0,0.0,0.0,0.0,0.0,0.0,0.0,0.0,0.0,0.0,0.0,0.0,0.0,0.0,0.0,0.0,0.0,0.0,0.0,0.0,0.0,0.0,0.0,0.0,0.0,0.0,0.0,0.0,0.0,0.0,0.0,0.0,0.0,0.0,0.0,0.0,0.0,0.0,0.0,0.0,0.0,0.0,0.0,0.0,0.0,0.0,0.0,0.0,0.0,0.0,0.0,0.0,0.0,0.0,0.0,0.0,0.0,0.0,0.0,0.0,0.0,0.0,0.0,0.0,0.0,0.0,0.0,0.0,0.0,0.0,0.0,0.0,0.0,0.0,0.0,0.0,0.0,0.0,0.0,0.0,0.0,0.0,0.0,0.0,0.0,0.0,0.0,0.0,0.0,0.0,0.0,0.0,0.0,0.0,0.0,0.0,0.0,0.0,0.0,0.0,0.0,0.0,0.0,0.0,0.0,0.0,0.0,0.0,0.0,0.0,0.0,0.0,0.0,0.0,0.0,0.0,0.0,0.0,0.0,0.0,0.0,0.0,0.0,0.0,0.0,0.0,0.0,0.0,0.0,0.0,0.0,0.0,0.0,0.0,0.0,0.0,0.0,0.0,0.0,0.0,0.0,0.0,0.0,0.0,0.0,0.0,0.0,0.0,0.0,0.0,0.0,0.0,0.0,0.0,0.0,0.0,0.0,0.0,0.0,0.0,0.0,0.0,0.0,0.0,0.0,0.0,0.0,0.0,0.0,0.0,0.0,0.0,0.0,0.0,0.0,0.0,0.0,0.0,0.0,0.0,0.0,0.0,0.0,0.0,0.0,0.0,0.0,0.0,0.0,0.0,0.0,0.0,0.0,0.0,0.0,0.0,0.0,0.0,0.0,0.0,0.0,0.0,0.0,0.0,0.0,0.0,0.0,0.0,0.0,0.0,0.0,0.0,0.0,0.0,0.0,0.0,0.0,0.0,0.0,0.0,0.0,0.0,0.0,0.0,0.0,0.0,0.0,0.0,0.0,0.0,0.0,0.0,0.0,0.0,0.0,0.0,0.0,0.0,0.0,0.0,0.0,0.0,0.0,0.0,0.0,0.0,0.0,0.0,0.0,0.0,0.0,0.0,0.0,0.0,0.0,0.0,0.0,0.0,0.0,0.0,0.0,0.0,0.0,0.0,0.0,0.0,0.0,0.0,0.0,0.0,0.0,0.0,0.0,0.0,0.0,0.0,0.0,0.0,0.0,0.0,0.0,0.0,0.0,0.0,0.0,0.0,0.0,0.0,0.0,0.0,0.0,0.0,0.0,0.0,0.0,0.0,0.0,0.0,0.0,0.0,0.0,0.0,0.0,0.0,0.0,0.0,0.0,0.0,0.0,0.0,0.0,0.0,0.0,0.0,0.0,0.0,0.0,0.0,0.0,0.0,0.0,0.0,0.0,0.0,0.0,0.0,0.0,0.0,0.0,0.0,0.0,0.0,0.0,0.0,0.0,0.0,0.0,0.0,0.0,0.0,0.0,0.0,0.0,0.0,0.0,0.0,0.0,0.0,0.0,0.0,0.0,0.0,0.0,0.0,0.0,0.0,0.0,0.0,0.0,0.0,0.0,0.0,0.0,0.0,0.0,0.0,0.0,0.0,0.0,0.0,0.0,0.0,0.0,0.0,0.0,0.0,0.0,0.0,0.0,0.0,0.0,0.0,0.0,0.0,0.0,0.0,0.0,0.0,0.0,0.0,0.0,0.0,0.0,0.0,0.0,0.0,0.0,0.0,0.0,0.0,0.0,0.0,0.0,0.0,0.0,0.0,0.0,0.0,0.0,0.0,0.0,0.0,0.0,0.0,0.0,0.0,0.0,0.0,0.0,0.0,0.0,0.0,0.0,0.0,0.0,0.0,0.0,0.0,0.0,0.0,0.0,0.0,0.0,0.0,0.0,0.0,0.0,0.0,0.0,0.0,0.0,0.0,0.0,0.0,0.0,0.0,0.0,0.0,0.0,0.0,0.0,0.0,0.0,0.0,0.0,0.0,0.0,0.0,0.0,0.0,0.0,0.0,0.0,0.0,0.0,0.0,0.0,0.0,0.0,0.0,0.0,0.0,0.0,0.0,0.0,0.0,0.0,0.0,0.0,0.0,0.0,0.0,0.0,0.0,0.0,0.0,0.0,0.0,0.0,0.0,0.0,0.0,0.0,0.0,0.0,0.0,0.0,0.0,0.0,0.0,0.0,0.0,0.0,0.0,0.0,0.0,0.0,0.0,0.0,0.0,0.0,0.0,0.0,0.0,0.0,0.0,0.0,0.0,0.0,0.0,0.0,0.0,0.0,0.0,0.0]}],[{"header":{"parameterUnit":"kt","parameterCategory":2,"dx":1,"dy":1,"la1":29.587661999999998,"la2":31.0,"lo1":-88.76705300000003,"lo2":-86.6583820000003,"nx":115,"ny":88,"refTime":"2022-10-23T06:00:00:Z","depth":0,"parameterNumber":2,"parameterNumberName":"V-component_of_WINDS"},"data":[10.928,10.928,10.928,10.9866,11.0891,11.2062,11.3185,11.3868,11.299,11.255,11.1916,11.0403,10.928,10.928,10.928,10.9706,11.0413,11.1256,11.1956,11.2602,11.3294,11.3621,11.3759,11.3759,11.3759,11.4013,11.4419,11.5182,11.5944,11.7214,11.823,11.884,11.9754,11.9805,11.9856,11.9043,11.8128,11.8535,11.8433,11.8281,11.7874,11.8128,11.8738,11.823,11.7519,11.635,11.5588,11.5232,11.4572,11.4064,11.3759,11.3759,11.3759,11.3759,11.3759,11.3759,11.3759,11.3759,11.3759,11.3962,11.5232,11.6706,11.7316,11.8179,11.9602,12.0611,12.0611,12.0611,12.0611,12.0611,12.0561,12.0262,11.9805,11.9246,11.8941,11.8027,11.7366,11.696,11.6604,11.6147,11.5537,11.4673,11.3911,11.3302,11.3302,11.3607,11.3607,11.3607,11.3556,11.3302,11.2997,11.2931,11.2703,11.1847,11.0794,11.1515,11.1848,11.0637,10.9785,11.0131,11.1195,11.315,11.431,11.4891,11.5267,11.5403,11.513,11.472,11.4172,11.3897,11.3759,11.3744,11.3748,11.3388,11.2292,10.928,10.928,10.928,10.9915,11.0796,11.2062,11.3185,11.3868,11.3039,11.255,11.216,11.0159,10.9378,10.928,10.928,10.9848,11.0413,11.1256,11.1956,11.2602,11.3345,11.3621,11.3759,11.3759,11.3759,11.3911,11.4013,11.4572,11.5182,11.5944,11.7061,11.8332,11.8535,11.8484,11.9246,11.8789,11.8128,11.884,11.8992,11.8789,11.8687,11.8738,11.8586,11.7925,11.6909,11.569,11.5131,11.4673,11.4064,11.3759,11.3759,11.3759,11.3759,11.3759,11.3759,11.3759,11.3759,11.3759,11.3759,11.381,11.5131,11.6401,11.6858,11.7976,11.9805,12.0611,12.0611,12.0611,12.0611,12.0611,12.0561,12.0212,11.9602,11.9043,11.8891,11.8484,11.8078,11.7722,11.7366,11.7011,11.5994,11.4877,11.3861,11.2743,11.2794,11.3251,11.3403,11.3352,11.3149,11.2743,11.2031,11.1622,11.1236,11.0086,10.8831,10.9269,10.9937,10.9089,10.9089,10.9466,11.0449,11.2778,11.443,11.472,11.472,11.4857,11.4583,11.4309,11.4034,11.3759,11.3708,11.3607,11.3458,11.2573,11.145,10.928,10.928,10.928,11.0208,11.1721,11.2306,11.3478,11.4503,11.3234,11.2209,11.1428,11.0061,10.928,10.928,10.928,10.9706,11.0413,11.1256,11.1956,11.2602,11.3294,11.3621,11.3759,11.3759,11.3759,11.3759,11.3759,11.3911,11.4419,11.4978,11.5639,11.6655,11.8078,11.8637,11.9145,11.95,11.9399,11.9703,11.9754,11.9399,11.8789,11.8027,11.762,11.6655,11.5537,11.4775,11.4267,11.4115,11.3759,11.3759,11.3759,11.3759,11.3759,11.3759,11.3759,11.3759,11.3759,11.3759,11.3759,11.4013,11.4826,11.6249,11.7061,11.823,11.9958,12.0611,12.0611,12.0262,12.0262,11.9754,11.9703,11.95,11.8891,11.8332,11.8027,11.8179,11.8078,11.8027,11.8078,11.7468,11.6198,11.4978,11.3556,11.2387,11.1523,11.193,11.1777,11.1574,11.1981,11.193,11.0965,11.0265,10.9568,10.8599,10.8008,10.8214,10.8471,10.8343,10.8317,10.913,11.0316,11.2591,11.4172,11.4172,11.4172,11.4309,11.4309,11.4034,11.3759,11.3759,11.3708,11.3556,11.2676,11.1844,11.0673,10.928,10.928,10.928,11.0354,11.2062,11.2404,11.3478,11.4698,11.3185,11.1916,11.0793,10.9817,10.928,10.9422,10.9422,11.013,11.0835,11.1677,11.2235,11.293,11.3483,11.3759,11.3759,11.3759,11.3759,11.3759,11.3759,11.381,11.4013,11.4521,11.5131,11.569,11.6604,11.8078,11.8891,11.9399,11.9805,12.0212,12.0212,11.9805,11.884,11.7671,11.6553,11.5486,11.4521,11.3962,11.3861,11.3759,11.3759,11.3759,11.3759,11.3759,11.3759,11.3759,11.3759,11.3759,11.3759,11.3759,11.3861,11.4267,11.5232,11.6452,11.762,11.8789,11.9653,12.0212,12.0364,12.011,11.9805,11.9195,11.8738,11.8433,11.8027,11.7417,11.696,11.7366,11.7773,11.8179,11.8687,11.762,11.6299,11.4826,11.3251,11.193,11.071,11.0253,11.0253,11.0304,11.0761,11.0456,10.944,10.9268,10.8415,10.7982,10.7931,10.7957,10.8008,10.7879,10.7801,10.8869,11.0183,11.1608,11.2863,11.3098,11.3759,11.3897,11.3897,11.3759,11.3759,11.3759,11.3657,11.3352,11.2574,11.1404,10.9999,10.928,10.928,10.928,10.9915,11.1086,11.216,11.2599,11.2746,11.255,11.1916,11.0745,10.972,10.928,10.9564,10.9848,11.0413,11.1397,11.1956,11.2513,11.3621,11.3759,11.3759,11.3759,11.3759,11.3759,11.3759,11.3759,11.3759,11.381,11.4013,11.4623,11.5385,11.5944,11.696,11.8433,11.9094,11.9856,12.0262,12.0212,11.9653,11.8637,11.757,11.6503,11.5334,11.4419,11.3759,11.3759,11.3759,11.3759,11.3759,11.3759,11.3759,11.3759,11.3759,11.3759,11.3759,11.3759,11.3759,11.3911,11.4572,11.574,11.6858,11.8027,11.9145,11.9754,12.0212,11.9805,11.95,11.8941,11.8332,11.762,11.7214,11.6655,11.5994,11.5893,11.6299,11.6655,11.7061,11.7417,11.7011,11.5639,11.4115,11.2489,11.0304,10.8983,10.9643,10.9694,10.9491,10.944,10.878,10.8424,10.8526,10.7923,10.7413,10.7492,10.7492,10.7492,10.7464,10.7385,10.8373,11.0355,11.1117,11.1574,11.2641,11.3759,11.3759,11.3759,11.3759,11.3759,11.3759,11.3556,11.3149,11.2235,11.1015,10.9694,10.928,10.928,10.928,10.9476,11.0159,11.177,11.1721,11.0793,11.1281,11.094,10.9915,10.9427,10.9564,10.9848,10.9848,11.0554,11.1906,11.2235,11.2652,11.3483,11.3759,11.3759,11.3759,11.3759,11.3759,11.3759,11.3759,11.3759,11.3759,11.381,11.3861,11.4623,11.6045,11.6858,11.7925,11.9145,11.9907,12.0059,11.9754,11.884,11.7722,11.6604,11.5537,11.447,11.4064,11.3759,11.3759,11.3759,11.3759,11.3759,11.3759,11.3759,11.3759,11.3759,11.3759,11.3759,11.3759,11.3759,11.3911,11.4775,11.5893,11.696,11.8128,11.9246,11.9856,11.9856,11.9246,11.8586,11.7976,11.7366,11.6655,11.5944,11.5232,11.4572,11.4877,11.5182,11.5486,11.5791,11.5893,11.5893,11.4877,11.3403,11.1473,10.9135,10.7967,10.8373,10.8526,10.8526,10.8322,10.7814,10.7865,10.7916,10.7459,10.7103,10.7103,10.7233,10.7589,10.7945,10.7814,10.878,11.071,11.1727,11.2133,11.2895,11.3708,11.3759,11.3759,11.3759,11.3759,11.3759,11.3657,11.2743,11.1625,11.0507,10.9085,10.928,10.928,10.928,10.928,10.9573,11.1281,11.1233,10.9964,11.0308,11.0257,10.928,10.928,10.9564,10.9989,10.9706,11.0504,11.1347,11.2095,11.2652,11.3068,11.3621,11.3759,11.3759,11.3759,11.3759,11.3759,11.3759,11.3759,11.3759,11.3759,11.381,11.4267,11.5639,11.6858,11.8078,11.95,12.0059,12.0212,11.9399,11.8382,11.7214,11.6147,11.5029,11.4216,11.381,11.3759,11.3759,11.3759,11.3759,11.3759,11.3759,11.3759,11.3759,11.3759,11.3759,11.3759,11.3759,11.3759,11.3911,11.4775,11.5842,11.7011,11.8179,11.9195,11.9449,11.9246,11.8535,11.762,11.6807,11.6045,11.5283,11.4978,11.4521,11.4165,11.4216,11.4419,11.4623,11.4978,11.5385,11.5232,11.4521,11.2997,11.1371,10.9186,10.7764,10.7306,10.7256,10.7662,10.7662,10.7459,10.7408,10.7357,10.7103,10.7103,10.7103,10.7205,10.7814,10.8424,10.8526,10.9186,11.0965,11.2133,11.2692,11.32,11.3607,11.3759,11.3759,11.3759,11.3759,11.3759,11.3302,11.2133,11.0965,10.9796,10.8475,10.928,10.928,10.928,10.928,10.9427,11.0403,11.0891,11.0793,11.0793,11.0208,10.928,10.928,10.9422,10.9564,10.9989,11.0554,11.0926,11.1906,11.2324,11.2879,11.3294,11.3621,11.3759,11.3759,11.3759,11.3759,11.3759,11.3759,11.3759,11.3759,11.4318,11.5131,11.5893,11.7265,11.8484,11.9653,12.0008,11.9805,11.9043,11.7874,11.6706,11.574,11.4673,11.4115,11.3759,11.3759,11.3759,11.3759,11.3759,11.3759,11.3759,11.3759,11.3759,11.3759,11.3759,11.3759,11.3759,11.3759,11.3911,11.4775,11.5893,11.7011,11.7976,11.8535,11.8789,11.8535,11.7519,11.6503,11.569,11.4826,11.4216,11.4064,11.3962,11.3861,11.3759,11.381,11.3962,11.4216,11.4673,11.4521,11.3861,11.2641,11.1066,10.9643,10.8119,10.756,10.7154,10.7408,10.7408,10.7154,10.7154,10.7103,10.7103,10.7103,10.7205,10.7357,10.8018,10.9135,10.9237,11.005,11.1066,11.2523,11.2895,11.3352,11.3657,11.3759,11.3759,11.3759,11.3759,11.3149,11.2692,11.1676,11.0812,10.9542,10.8119,10.9915,10.928,10.928,10.928,10.9329,10.9671,10.9817,10.9817,10.9817,10.9622,10.9329,10.928,10.9422,10.9848,10.994,11.0081,11.1766,11.1537,11.1487,11.3294,11.3156,11.3345,11.3621,11.3759,11.3759,11.3759,11.3759,11.3759,11.3759,11.3759,11.4369,11.5486,11.6909,11.8128,11.9094,11.9399,11.9449,11.9145,11.8281,11.7163,11.6096,11.5029,11.4165,11.3911,11.3759,11.3759,11.3759,11.3759,11.3759,11.3759,11.3759,11.3759,11.3759,11.3759,11.3759,11.3759,11.3759,11.3759,11.4013,11.4775,11.5893,11.6909,11.6553,11.7316,11.8382,11.762,11.6401,11.5588,11.4775,11.4216,11.3911,11.3911,11.381,11.381,11.3759,11.3759,11.3861,11.3861,11.4165,11.4115,11.3556,11.2286,11.0863,10.9643,10.8577,10.7814,10.7103,10.7103,10.7154,10.7103,10.7103,10.7103,10.7103,10.7103,10.7205,10.7408,10.8322,10.9593,11.066,11.1625,11.254,11.2844,11.3251,11.3657,11.3708,11.3759,11.3759,11.3759,11.3759,11.3302,11.2286,11.132,11.0609,10.9186,10.7611,11.0452,10.9768,10.9427,10.928,10.928,10.928,10.928,10.928,10.928,10.928,10.928,10.928,10.9564,10.9706,10.9706,10.994,11.1207,11.0554,11.1116,11.293,11.3018,11.3294,11.3621,11.3759,11.3759,11.3759,11.3759,11.3759,11.3759,11.3759,11.4369,11.5486,11.696,11.8789,11.9399,11.9348,11.8789,11.8535,11.7316,11.6198,11.5436,11.4419,11.381,11.3759,11.3759,11.3759,11.3759,11.3759,11.3759,11.3759,11.3759,11.3759,11.3759,11.3759,11.3759,11.3759,11.3759,11.3759,11.4013,11.4775,11.5893,11.6655,11.7061,11.7671,11.8332,11.6909,11.5994,11.5385,11.4521,11.4013,11.3759,11.381,11.381,11.381,11.3759,11.3759,11.3759,11.3759,11.3759,11.3759,11.3759,11.2692,11.1777,11.0914,10.9389,10.8373,10.7408,10.7205,10.7103,10.7103,10.7103,10.7103,10.7103,10.7103,10.7154,10.7306,10.8018,10.9542,11.1066,11.2387,11.3098,11.3454,11.3708,11.3708,11.3708,11.3759,11.3759,11.3759,11.3759,11.3149,11.1727,11.066,10.9796,10.8526,10.7306,11.0842,11.0696,10.9671,10.928,10.928,10.928,10.928,10.928,10.928,10.928,10.928,10.928,10.928,10.928,10.9422,10.9564,11.0081,11.0976,11.1537,11.2095,11.2741,11.3432,11.3621,11.3759,11.3759,11.3759,11.3759,11.3759,11.3759,11.3759,11.4369,11.5486,11.6452,11.762,11.8687,11.8738,11.8687,11.8382,11.6452,11.5639,11.4978,11.4267,11.381,11.3759,11.3759,11.3759,11.3759,11.3759,11.3759,11.3759,11.3759,11.3759,11.3759,11.3759,11.3759,11.3759,11.3759,11.3759,11.381,11.4724,11.5791,11.6807,11.7112,11.7925,11.8332,11.7722,11.6553,11.5842,11.4724,11.4064,11.3962,11.3861,11.3911,11.3911,11.381,11.3759,11.3759,11.3759,11.3759,11.3759,11.3759,11.3607,11.2844,11.1828,11.0152,10.8831,10.7814,10.7256,10.7154,10.7103,10.7103,10.7103,10.7103,10.7103,10.7103,10.7256,10.8068,10.9593,11.1066,11.2286,11.3149,11.3607,11.3759,11.3759,11.3759,11.3759,11.3759,11.3759,11.3759,11.3556,11.1777,11.0253,10.8983,10.8018,10.7408,11.1135,10.9768,10.9378,10.928,10.928,10.928,10.928,10.928,10.928,10.928,10.928,10.928,10.928,10.928,10.928,10.9374,10.9989,11.0554,11.1116,11.1816,11.2324,11.2741,11.3018,11.3294,11.3759,11.3759,11.3759,11.3759,11.3759,11.3759,11.4369,11.508,11.5791,11.6604,11.7366,11.7519,11.7163,11.6553,11.5588,11.5131,11.4318,11.3911,11.3759,11.3759,11.3759,11.3759,11.3759,11.3759,11.3759,11.3759,11.3759,11.3759,11.3759,11.3759,11.3759,11.3759,11.3759,11.3759,11.3759,11.4267,11.508,11.6553,11.7011,11.762,11.8027,11.7722,11.7214,11.6452,11.5639,11.5232,11.6096,11.4673,11.4064,11.4419,11.4267,11.3759,11.3759,11.3759,11.3759,11.3759,11.3759,11.3708,11.2997,11.2336,11.0863,10.9796,10.8627,10.7764,10.7408,10.7103,10.7103,10.7103,10.7103,10.7103,10.7154,10.8018,10.8881,11.0355,11.1371,11.2489,11.32,11.3505,11.3759,11.3759,11.3759,11.3759,11.3759,11.3759,11.3759,11.3657,11.2336,11.071,10.9389,10.7916,10.7408,11.1086,10.9866,10.9427,10.928,10.928,10.928,10.928,10.928,10.928,10.928,10.928,10.928,10.928,10.928,10.928,10.9564,10.9989,11.0272,11.0694,11.1256,11.2095,11.2463,11.2879,11.3345,11.3759,11.3759,11.3759,11.3759,11.3759,11.3759,11.4267,11.4928,11.5791,11.6198,11.6706,11.7316,11.6757,11.5944,11.4978,11.4521,11.381,11.3759,11.3759,11.3759,11.3759,11.3759,11.3759,11.3759,11.3759,11.3759,11.3759,11.3759,11.3759,11.3759,11.3759,11.3759,11.3759,11.3759,11.3759,11.3911,11.4521,11.5944,11.6757,11.757,11.9297,11.8433,11.7874,11.7366,11.6706,11.6198,11.6807,11.5588,11.4521,11.4826,11.4623,11.3962,11.3759,11.3759,11.3759,11.3759,11.3759,11.3759,11.3302,11.2794,11.1727,11.0609,10.9339,10.817,10.751,10.7103,10.7103,10.7103,10.7103,10.7103,10.7205,10.8373,10.9745,11.0761,11.1777,11.2692,11.3454,11.3708,11.3759,11.3759,11.3759,11.3759,11.3759,11.3759,11.3403,11.2794,11.1879,11.0812,10.944,10.7916,10.7408,11.0842,11.0696,10.9671,10.928,10.928,10.928,10.928,10.928,10.928,10.928,10.928,10.928,10.928,10.928,10.928,10.928,10.928,11.013,11.0272,11.0835,11.1766,11.2324,11.2602,11.3156,11.3759,11.3759,11.3759,11.3759,11.3759,11.3911,11.3911,11.4013,11.5588,11.5893,11.6249,11.6706,11.635,11.5639,11.447,11.3861,11.381,11.3759,11.3759,11.3759,11.3759,11.3759,11.3759,11.3759,11.3759,11.3759,11.3759,11.3759,11.3759,11.3759,11.3962,11.3962,11.3962,11.3759,11.3759,11.381,11.4369,11.5537,11.696,11.8586,11.9958,11.9348,11.8992,11.8789,11.7824,11.7468,11.7112,11.6299,11.5639,11.5537,11.508,11.4369,11.3861,11.381,11.3759,11.3759,11.3759,11.3759,11.3403,11.3098,11.2184,11.1219,10.9999,10.8932,10.817,10.7256,10.7205,10.7103,10.7103,10.7306,10.7408,10.8577,11.0202,11.1422,11.2336,11.3098,11.3657,11.3708,11.3759,11.3759,11.3759,11.3759,11.3759,11.3657,11.3302,11.2235,11.1219,11.0304,10.9085,10.7865,10.7306,11.0403,10.9671,10.9378,10.928,10.928,10.928,10.928,10.928,10.928,10.928,10.928,10.928,10.928,10.928,10.928,10.928,10.928,10.9989,10.9989,11.0363,11.1347,11.2045,11.2463,11.3156,11.3759,11.3759,11.3759,11.381,11.4013,11.4318,11.4369,11.3861,11.5283,11.5486,11.5385,11.5486,11.5588,11.508,11.4267,11.381,11.3759,11.3759,11.3759,11.3759,11.3759,11.3759,11.3759,11.3759,11.3759,11.3759,11.3759,11.3759,11.381,11.3861,11.4115,11.4419,11.4013,11.381,11.3861,11.381,11.3911,11.4724,11.6147,11.8382,11.9856,12.0313,12.0059,11.9907,11.8941,11.8941,11.8941,11.7722,11.6858,11.6147,11.5486,11.4673,11.4013,11.3861,11.3759,11.3759,11.3759,11.3759,11.3657,11.3352,11.2743,11.1777,11.0812,10.9796,10.8729,10.7611,10.7357,10.7103,10.7357,10.7916,10.8526,10.9643,11.0812,11.2031,11.2895,11.3505,11.3657,11.3759,11.3759,11.3759,11.3759,11.3759,11.3759,11.3607,11.3403,11.2184,11.1015,10.9999,10.8831,10.7865,10.7154,10.9378,10.928,10.928,10.928,10.928,10.928,10.928,10.928,10.928,10.928,10.928,10.928,10.928,10.928,10.928,10.928,10.928,10.9706,10.9706,11.0272,11.1256,11.2045,11.2235,11.3068,11.3759,11.3759,11.3759,11.3962,11.4369,11.4673,11.4775,11.4419,11.4673,11.4775,11.4521,11.447,11.4572,11.4419,11.4165,11.3759,11.3759,11.3759,11.3759,11.3759,11.3759,11.3759,11.3759,11.3759,11.3759,11.3759,11.3759,11.3759,11.381,11.4216,11.4369,11.4775,11.4064,11.4013,11.4267,11.3962,11.3861,11.4267,11.5791,11.757,11.8738,11.9703,12.0415,12.0611,11.9856,11.9805,11.9856,11.8789,11.7874,11.6858,11.5893,11.4928,11.4064,11.3911,11.3759,11.3759,11.3759,11.3759,11.3708,11.3505,11.3048,11.2082,11.1015,10.9999,10.8932,10.7865,10.7306,10.7154,10.7764,10.8475,10.944,11.0507,11.1523,11.2286,11.3149,11.3607,11.3708,11.3759,11.3759,11.3759,11.3759,11.3759,11.3759,11.3454,11.2946,11.193,11.0863,10.944,10.8068,10.7256,10.7154,10.8109,10.9085,10.9183,10.928,10.928,10.928,10.928,10.928,10.928,10.928,10.928,10.928,10.928,10.928,10.928,10.928,10.928,10.9422,10.9706,11.0272,11.1256,11.1956,11.2513,11.3345,11.3621,11.3483,11.3773,11.4521,11.4928,11.447,11.447,11.4775,11.4369,11.3911,11.4115,11.4419,11.4673,11.3962,11.3759,11.3759,11.3759,11.3759,11.3759,11.3759,11.3759,11.3759,11.3759,11.3759,11.3759,11.3759,11.3759,11.381,11.4064,11.4877,11.4521,11.4064,11.3962,11.4267,11.4673,11.4216,11.3759,11.447,11.5893,11.6858,11.8128,11.9399,12.0611,12.0611,12.0561,12.0561,12.0212,11.95,11.8535,11.7519,11.6503,11.5334,11.4267,11.4216,11.381,11.3759,11.3759,11.3759,11.3759,11.3607,11.3403,11.2336,11.1219,11.0152,10.9085,10.7865,10.7154,10.7408,10.7916,10.878,10.9796,11.0914,11.1828,11.2438,11.3149,11.3708,11.3759,11.3759,11.3759,11.3759,11.3759,11.3759,11.3759,11.3352,11.2489,11.1676,11.0863,10.9339,10.756,10.7205,10.7103,10.7035,10.806,10.889,10.928,10.928,10.928,10.928,10.928,10.928,10.928,10.928,10.928,10.928,10.928,10.928,10.928,10.928,10.928,10.9706,11.0554,11.1256,11.1677,11.2095,11.2879,11.3534,11.3409,11.4193,11.5182,11.5283,11.4928,11.4623,11.4521,11.4978,11.4673,11.3861,11.4115,11.3962,11.3759,11.3759,11.3759,11.3759,11.3759,11.3759,11.3759,11.3759,11.3759,11.3759,11.3759,11.3759,11.3861,11.3911,11.4165,11.4775,11.4419,11.3962,11.3962,11.4572,11.4521,11.4369,11.381,11.4216,11.4877,11.6299,11.7468,11.8433,11.9449,12.0611,12.0611,12.0611,12.0466,12.0262,12.0212,11.95,11.8433,11.7214,11.6249,11.5182,11.4267,11.3861,11.3607,11.3759,11.3759,11.3759,11.3657,11.3657,11.2692,11.1422,11.0355,10.9694,10.8373,10.7459,10.7662,10.8221,10.9186,11.0355,11.1523,11.2082,11.2743,11.3454,11.3759,11.3759,11.3759,11.3759,11.3759,11.3759,11.3759,11.3759,11.3505,11.2336,11.1371,11.0761,10.9593,10.7865,10.7154,10.7103,10.6205,10.767,10.8255,10.8792,10.9232,10.928,10.928,10.928,10.928,10.928,10.928,10.928,10.928,10.928,10.928,10.928,10.9422,10.9564,11.0272,11.0976,11.1677,11.2095,11.2185,11.3207,11.3459,11.3826,11.456,11.5385,11.5334,11.4928,11.4572,11.4369,11.3861,11.3861,11.3708,11.3759,11.3759,11.3759,11.3759,11.3759,11.3759,11.3759,11.3759,11.3759,11.3759,11.3759,11.3759,11.3759,11.3962,11.4419,11.4521,11.4877,11.4877,11.4521,11.3962,11.4419,11.4521,11.4267,11.3911,11.4318,11.4775,11.5537,11.7011,11.8128,11.8891,11.9703,12.0561,12.0611,12.0466,12.0262,11.9703,12.0161,11.9551,11.8332,11.7417,11.6503,11.5486,11.4419,11.3607,11.2946,11.3302,11.3607,11.3657,11.3759,11.3759,11.2895,11.1625,11.0914,11.0406,10.9135,10.7814,10.817,10.8729,10.9847,11.1219,11.193,11.2472,11.3149,11.3759,11.3759,11.3759,11.3759,11.3759,11.3708,11.3759,11.3759,11.3607,11.3048,11.193,11.0863,11.005,10.9135,10.7814,10.7103,10.7103,10.5571,10.7426,10.7572,10.8304,10.9183,10.928,10.928,10.928,10.928,10.928,10.928,10.928,10.928,10.928,10.928,10.928,10.9422,10.9706,11.0413,11.1256,11.1956,11.2045,11.2185,11.3068,11.3699,11.4179,11.4395,11.4724,11.4673,11.4115,11.3962,11.447,11.3454,11.3048,11.3607,11.3759,11.3759,11.3759,11.3759,11.3759,11.3759,11.3759,11.3759,11.3759,11.3759,11.3759,11.3759,11.3962,11.4419,11.5283,11.5385,11.5486,11.5537,11.4724,11.447,11.4572,11.4267,11.4165,11.4267,11.4928,11.5436,11.6299,11.762,11.8687,11.8992,11.9602,11.9703,11.9754,11.9551,11.9449,11.8637,11.9043,11.8687,11.7671,11.6655,11.5893,11.4978,11.381,11.2641,11.2438,11.2946,11.3403,11.3607,11.3759,11.3759,11.32,11.2031,11.132,11.066,10.9593,10.8526,10.878,10.9339,11.071,11.2065,11.2371,11.2743,11.3556,11.3759,11.3759,11.3759,11.3759,11.3657,11.3607,11.3556,11.3352,11.2844,11.2286,11.1269,11.0101,10.9237,10.8424,10.7662,10.7103,10.7103,10.5132,10.6401,10.7279,10.8255,10.9183,10.928,10.928,10.928,10.928,10.928,10.928,10.928,10.928,10.928,10.928,10.928,10.928,10.9564,11.013,11.0835,11.1677,11.1677,11.1577,11.2589,11.3193,11.2841,11.2875,11.32,11.3403,11.3048,11.3098,11.3759,11.3454,11.3505,11.3657,11.3759,11.3759,11.3759,11.3759,11.3759,11.3759,11.3759,11.3759,11.3759,11.3759,11.3759,11.3911,11.4521,11.5182,11.5334,11.5385,11.5893,11.6249,11.574,11.4978,11.3962,11.4013,11.4216,11.4877,11.5385,11.6249,11.823,11.8687,11.8738,11.8738,11.884,11.8687,11.8179,11.7874,11.7773,11.7366,11.7773,11.757,11.6858,11.5283,11.4369,11.3657,11.2184,11.1625,11.1676,11.2082,11.2743,11.32,11.3454,11.3657,11.3556,11.254,11.1625,11.0863,10.9999,10.944,10.9389,11.0304,11.1574,11.2082,11.2438,11.32,11.3759,11.3759,11.3759,11.3759,11.3454,11.3048,11.3149,11.2946,11.2489,11.2031,11.132,11.0355,10.9339,10.8526,10.8018,10.756,10.7154,10.7103,10.4204,10.5278,10.6352,10.7426,10.8402,10.9036,10.928,10.928,10.928,10.928,10.928,10.928,10.928,10.928,10.928,10.928,10.928,10.928,10.9848,11.0976,11.2045,11.2185,11.1945,11.187,11.1573,11.0927,11.0966,11.1473,11.193,11.2082,11.2336,11.2844,11.3454,11.3708,11.3759,11.3759,11.3759,11.3759,11.3759,11.3759,11.3759,11.3759,11.3759,11.3759,11.3759,11.3759,11.381,11.4826,11.5588,11.5994,11.574,11.569,11.5893,11.5131,11.4318,11.3962,11.4216,11.4928,11.5436,11.5944,11.6757,11.7773,11.7874,11.7874,11.7874,11.7874,11.7519,11.7214,11.696,11.6757,11.6299,11.6553,11.6604,11.6096,11.4724,11.3861,11.3302,11.1219,10.9745,11.0152,11.0914,11.1727,11.2387,11.2641,11.2794,11.2997,11.2031,11.1117,11.0406,11.0202,10.9745,10.9847,11.0965,11.1777,11.2184,11.2692,11.3352,11.3657,11.3556,11.3505,11.3251,11.2794,11.2387,11.2082,11.1828,11.1473,11.1015,11.0101,10.9237,10.8627,10.8119,10.7662,10.7306,10.7154,10.7103,10.3472,10.4497,10.5757,10.6694,10.7767,10.8792,10.928,10.928,10.928,10.928,10.928,10.928,10.928,10.928,10.928,10.928,10.928,10.9564,11.013,11.1537,11.2589,11.2563,11.1856,11.0966,11.0004,10.9566,10.9783,11.0101,11.0355,11.1117,11.1964,11.2235,11.32,11.3759,11.3759,11.3759,11.3759,11.3759,11.3759,11.3759,11.3759,11.3759,11.3759,11.3759,11.3759,11.3657,11.3708,11.4673,11.5639,11.5994,11.574,11.5385,11.5423,11.447,11.3861,11.3962,11.4673,11.5334,11.5537,11.6299,11.7112,11.7163,11.7214,11.696,11.6807,11.6706,11.6604,11.635,11.635,11.5791,11.5232,11.5842,11.574,11.4928,11.3759,11.2743,11.2184,11.005,10.8678,10.8881,10.9593,11.0456,11.1523,11.1727,11.1777,11.2133,11.1523,11.0558,11.0253,11.005,10.9745,10.944,11.0558,11.1574,11.1828,11.2031,11.2844,11.3403,11.32,11.3048,11.2387,11.1879,11.1523,11.1168,11.0761,11.0355,10.9999,10.9186,10.8424,10.8119,10.7713,10.7408,10.7205,10.7154,10.7103,10.3472,10.4497,10.562,10.6694,10.767,10.8792,10.9134,10.9232,10.9232,10.928,10.9422,10.928,10.928,10.928,10.928,10.928,10.928,10.97,11.0222,11.0818,11.0856,11.1083,11.0459,11.0018,10.9511,10.8851,10.8699,10.8881,10.9339,11.0152,11.1117,11.2133,11.32,11.3708,11.3759,11.3759,11.3759,11.3759,11.3759,11.3708,11.3556,11.3556,11.3454,11.3403,11.3352,11.2997,11.2946,11.4115,11.4877,11.4115,11.4928,11.5131,11.5182,11.4318,11.381,11.3962,11.4724,11.5385,11.5537,11.6299,11.696,11.6909,11.6909,11.6706,11.5791,11.5537,11.5283,11.4572,11.4115,11.4267,11.4115,11.4064,11.4165,11.3708,11.1981,11.0456,10.9288,10.8068,10.7662,10.8526,10.8678,10.944,11.0152,11.0507,11.0304,11.0558,10.9999,10.9135,10.878,10.9135,10.9339,10.9288,11.0152,11.1219,11.1371,11.1422,11.2235,11.2794,11.2387,11.193,11.1269,11.0609,11.0456,11.0152,10.9491,10.9034,10.8831,10.8373,10.7662,10.7256,10.7408,10.7256,10.7103,10.7103,10.7103,10.3131,10.3619,10.4644,10.5327,10.5961,10.7621,10.8634,10.9014,10.9271,10.9706,11.0272,10.9706,10.9564,10.9848,10.9374,10.928,10.9183,10.8928,10.9681,11.053,10.9969,10.913,10.8617,10.8526,10.8272,10.7814,10.7764,10.8119,10.878,10.9847,11.1015,11.2031,11.32,11.3708,11.3657,11.3759,11.3759,11.3708,11.3759,11.3403,11.2844,11.2794,11.2489,11.193,11.1777,11.1676,11.1523,11.3251,11.3556,11.2438,11.2895,11.381,11.4267,11.3962,11.3759,11.381,11.4775,11.5334,11.5486,11.5791,11.6096,11.5994,11.5436,11.4928,11.4623,11.4419,11.4369,11.381,11.3759,11.3759,11.3759,11.3759,11.3454,11.2743,11.0761,10.9288,10.878,10.7764,10.7408,10.7611,10.7814,10.817,10.9237,10.9389,10.9135,10.8729,10.8373,10.7814,10.7306,10.8221,10.878,10.9135,10.9847,11.0406,11.066,11.0609,11.1117,11.1371,11.1117,11.066,10.9847,10.8881,10.8932,10.8983,10.8272,10.7764,10.7764,10.756,10.7103,10.7103,10.7103,10.7103,10.7103,10.7103,10.7103,10.2753,10.2984,10.396,10.44,10.4692,10.6677,10.7836,10.8351,10.867,10.9237,11.0084,10.9105,10.8726,10.9385,10.8634,10.8451,10.8298,10.7803,10.8835,11.0103,10.8534,10.7488,10.7452,10.7306,10.7154,10.7154,10.7205,10.751,10.8272,10.9339,11.0456,11.1625,11.2336,11.2895,11.32,11.2895,11.2997,11.3251,11.3048,11.2489,11.2082,11.1879,11.1219,11.0456,11.0507,11.066,11.1066,11.193,11.1523,11.0152,11.1269,11.259,11.3657,11.3454,11.32,11.3302,11.3962,11.4369,11.4216,11.4572,11.4775,11.4521,11.4115,11.3759,11.3759,11.3759,11.3759,11.3759,11.3759,11.3759,11.3759,11.3759,11.32,11.2082,11.0558,10.9085,10.8322,10.756,10.7103,10.7103,10.7154,10.751,10.8068,10.8221,10.7967,10.7357,10.7001,10.6747,10.6138,10.6544,10.7205,10.7967,10.8881,10.944,10.9847,10.9745,10.9796,10.9999,10.9847,10.944,10.8577,10.7814,10.7916,10.8068,10.7611,10.7459,10.7256,10.7154,10.7103,10.7103,10.7103,10.7103,10.7103,10.7103,10.7103,10.2753,10.3033,10.396,10.4302,10.4584,10.6305,10.712,10.7306,10.7366,10.7827,10.8188,10.7376,10.7002,10.7179,10.7149,10.6734,10.6392,10.6845,10.7766,10.785,10.7172,10.7028,10.7937,10.7459,10.7103,10.7103,10.7103,10.7205,10.7611,10.8475,10.9389,11.0558,11.0863,11.1168,11.1879,11.1168,11.1422,11.1981,11.132,11.132,11.1964,11.1015,11.0406,11.0355,11.0304,11.066,11.1066,11.005,10.9085,10.9135,11.0761,11.2235,11.32,11.2692,11.232,11.2184,11.2235,11.193,11.1574,11.2844,11.3505,11.2946,11.3403,11.3759,11.3759,11.3759,11.3759,11.3759,11.3759,11.3759,11.3759,11.3759,11.3149,11.2133,11.071,10.9186,10.756,10.7205,10.7103,10.7103,10.7103,10.7154,10.7256,10.7306,10.6392,10.5274,10.4715,10.4715,10.4461,10.4969,10.5376,10.6239,10.7408,10.8068,10.878,10.8678,10.8627,10.878,10.8729,10.8221,10.7459,10.7306,10.7408,10.7357,10.7154,10.7154,10.7103,10.7103,10.7103,10.7103,10.7103,10.7103,10.7103,10.7103,10.7052,10.2753,10.2801,10.3277,10.3692,10.4242,10.5593,10.6578,10.7437,10.7679,10.8385,10.8926,10.7568,10.7295,10.7977,10.7158,10.6796,10.6835,10.669,10.6586,10.619,10.59,10.6554,10.7379,10.7256,10.7103,10.7103,10.7103,10.7459,10.8068,10.8526,10.9237,11.0202,11.0456,11.066,11.0965,11.1269,11.1168,11.1066,11.1269,11.0965,11.0101,10.9542,10.9339,10.9339,10.9339,10.9542,10.9796,10.8526,10.8018,10.8729,10.944,11.0456,11.1473,11.1371,11.1015,11.1015,11.1066,11.1219,11.1523,11.2235,11.2743,11.3149,11.3505,11.3759,11.3759,11.3759,11.3759,11.3759,11.3759,11.3759,11.3759,11.3759,11.2895,11.1269,10.9948,10.8729,10.751,10.7103,10.7052,10.7001,10.7052,10.7103,10.7103,10.7052,10.6443,10.5223,10.4766,10.4563,10.3293,10.3902,10.4309,10.4969,10.6239,10.7205,10.7611,10.7662,10.756,10.7662,10.7814,10.7357,10.7103,10.7103,10.7103,10.7103,10.7103,10.7103,10.7103,10.7103,10.7103,10.7103,10.7103,10.7001,10.6849,10.69,10.6544,10.2532,10.2664,10.3007,10.3687,10.4449,10.5226,10.619,10.7086,10.7339,10.8141,10.8858,10.7387,10.7068,10.769,10.6933,10.6258,10.6122,10.6589,10.6188,10.5637,10.6011,10.6663,10.6973,10.7103,10.7103,10.7103,10.7103,10.7306,10.756,10.756,10.8221,10.9085,10.8983,10.9186,10.9847,11.0253,11.0456,10.9948,11.0304,11.005,10.8831,10.8373,10.8221,10.817,10.8221,10.8373,10.8577,10.7662,10.751,10.8119,10.817,10.9034,11.0558,11.0965,11.0914,11.0914,11.066,11.0812,11.1473,11.2015,11.2489,11.3048,11.3556,11.3708,11.3759,11.3759,11.3759,11.3759,11.3759,11.3759,11.3657,11.3454,11.1828,10.9135,10.8119,10.7154,10.6087,10.5985,10.6189,10.6443,10.6544,10.6747,10.7001,10.7103,10.6595,10.5528,10.4918,10.441,10.3191,10.3953,10.4461,10.4563,10.5833,10.7154,10.7306,10.7357,10.7306,10.7357,10.7408,10.7103,10.7103,10.7103,10.7103,10.7103,10.7103,10.7103,10.7103,10.7103,10.7103,10.7103,10.69,10.6697,10.6595,10.6189,10.568,10.167,10.2424,10.346,10.4202,10.4812,10.5537,10.6011,10.6111,10.6162,10.6756,10.7299,10.5819,10.5706,10.59,10.5756,10.4764,10.4913,10.6313,10.6634,10.596,10.6663,10.7103,10.7103,10.7103,10.7052,10.69,10.7052,10.6493,10.5579,10.5731,10.6239,10.6849,10.6392,10.7103,10.8678,10.8119,10.7967,10.8424,10.8068,10.7916,10.8424,10.7713,10.7306,10.7306,10.7154,10.751,10.8475,10.751,10.6849,10.7001,10.7103,10.8678,11.1066,11.1727,11.193,11.1676,11.0965,11.0507,11.066,11.1574,11.2269,11.254,11.3149,11.3556,11.3505,11.3454,11.3403,11.3352,11.3403,11.3454,11.32,11.2286,11.0101,10.6341,10.5731,10.5223,10.4309,10.3902,10.4258,10.5172,10.5376,10.5884,10.6646,10.6747,10.6138,10.5071,10.4309,10.3547,10.314,10.3547,10.4309,10.5071,10.6138,10.7001,10.7103,10.7052,10.7052,10.7052,10.7001,10.7103,10.7103,10.7103,10.7103,10.7103,10.7103,10.6798,10.6798,10.6189,10.6341,10.629,10.6544,10.6341,10.5884,10.5325,10.4817,10.1707,10.1985,10.3027,10.3865,10.4615,10.5528,10.6221,10.6663,10.6663,10.6843,10.6973,10.6141,10.6011,10.6533,10.6011,10.5437,10.5487,10.6533,10.6663,10.6091,10.6663,10.7103,10.7103,10.7103,10.6697,10.6036,10.5935,10.5376,10.4461,10.502,10.5528,10.5985,10.6443,10.6951,10.756,10.8018,10.7916,10.7764,10.8018,10.7916,10.756,10.7306,10.7459,10.7865,10.6697,10.6138,10.6392,10.5426,10.4868,10.5071,10.6341,10.756,10.8678,11.0152,11.0965,11.0914,11.0609,11.071,11.1473,11.1879,11.2387,11.3098,11.2895,11.2641,11.254,11.193,11.1574,11.1523,11.1473,11.1117,11.0202,10.8627,10.7001,10.5731,10.4715,10.4156,10.3851,10.375,10.3902,10.4156,10.4258,10.4461,10.4766,10.4868,10.441,10.3293,10.2886,10.2226,10.187,10.2632,10.3953,10.441,10.5833,10.6798,10.6798,10.6646,10.6646,10.6697,10.6646,10.6951,10.7103,10.7103,10.7103,10.7103,10.6951,10.6595,10.6087,10.5325,10.4969,10.4766,10.4943,10.5069,10.4461,10.4182,10.3271,10.0677,10.1175,10.2399,10.3491,10.4332,10.5291,10.6055,10.6493,10.69,10.7103,10.6973,10.6533,10.6663,10.7052,10.5724,10.519,10.5241,10.6032,10.6184,10.5875,10.6184,10.6493,10.6443,10.6087,10.5477,10.4868,10.4817,10.4461,10.3953,10.4461,10.4969,10.5426,10.6138,10.6697,10.7154,10.7814,10.7814,10.7256,10.7713,10.7814,10.7205,10.7103,10.7205,10.7357,10.6087,10.5172,10.4817,10.375,10.3394,10.3801,10.5528,10.6849,10.7764,10.9796,11.1015,11.1015,11.1015,11.1168,11.1422,11.1473,11.1828,11.2438,11.1879,11.1473,11.1371,11.0863,11.0456,11.0355,11.0101,10.878,10.7154,10.5274,10.4004,10.3547,10.2937,10.248,10.253,10.253,10.253,10.2581,10.2937,10.3343,10.375,10.3801,10.3496,10.2784,10.2276,10.1819,10.1413,10.2124,10.3089,10.3496,10.4969,10.6392,10.6087,10.5935,10.5935,10.5935,10.5985,10.5935,10.5833,10.563,10.5731,10.563,10.5579,10.5274,10.5071,10.441,10.4056,10.3853,10.3549,10.3423,10.2615,10.2137,10.1458,9.9057,10.0155,10.1834,10.2918,10.3801,10.4868,10.5274,10.5376,10.6392,10.69,10.6798,10.6849,10.69,10.6697,10.4664,10.375,10.3851,10.4614,10.4918,10.4791,10.4969,10.5071,10.5071,10.4156,10.3597,10.3293,10.3242,10.3242,10.3191,10.3496,10.4156,10.5122,10.5376,10.5935,10.6798,10.7103,10.7103,10.7103,10.7154,10.7103,10.7103,10.6951,10.629,10.5477,10.5172,10.4614,10.3699,10.2581,10.248,10.3648,10.4817,10.629,10.8322,11.0558,11.1811,11.176,11.1727,11.1371,11.0507,11.0456,11.0558,11.0507,11.0507,11.0355,11.0304,11.0101,10.9948,11.0202,10.8932,10.7103,10.4512,10.3038,10.1768,10.0803,10.0447,10.0498,10.0447,10.0701,10.0346,10.06,10.1413,10.2276,10.3343,10.3648,10.3293,10.2937,10.248,10.1717,10.1514,10.1819,10.2124,10.2581,10.375,10.4918,10.4004,10.4207,10.4156,10.4258,10.4512,10.4055,10.3851,10.3801,10.3902,10.3953,10.4258,10.4258,10.3902,10.3523,10.3119,10.2514,10.2162,10.1709,10.0706,10.028,9.9855,10.001,10.0263,10.0689,10.1594,10.2632,10.375,10.4207,10.4309,10.4563,10.4715,10.4715,10.4715,10.4715,10.4512,10.3191,10.253,10.2429,10.1921,10.1667,10.1667,10.1667,10.1667,10.1667,10.1362,10.0854,10.0244,10.0193,9.9685,9.9075,10.0346,10.1819,10.3089,10.4563,10.5528,10.5884,10.6747,10.7103,10.7052,10.7103,10.7103,10.6849,10.5528,10.4563,10.4156,10.3394,10.2835,10.248,10.1413,10.1311,10.248,10.4359,10.563,10.6341,10.8373,10.9288,10.8627,10.9186,10.944,10.9186,10.9948,11.0456,11.0355,10.9593,10.9135,10.9034,10.8475,10.8068,10.7916,10.6239,10.4969,10.3648,10.1972,10.0752,10.0396,10.0295,10.0295,10.0244,10.0295,10.0244,10.0295,10.0447,10.0955,10.1159,10.1311,10.1159,10.0651,10.06,10.0549,9.999,10.1057,10.1972,10.2124,10.3242,10.3648,10.2835,10.3038,10.375,10.3801,10.3648,10.3597,10.3801,10.375,10.375,10.314,10.3648,10.3597,10.2784,10.2056,10.1531,10.0577,9.9853,9.9381,9.8909,9.8884,9.8436,10.0295,10.0295,10.0295,10.0701,10.1413,10.2581,10.3089,10.314,10.3597,10.3801,10.3699,10.2784,10.2378,10.2327,10.1667,10.1108,10.0701,10.0447,10.0092,9.9685,9.9634,9.9685,9.9584,9.9177,9.8618,9.8059,9.8008,9.7653,9.7399,9.8771,10.0498,10.2073,10.3851,10.4715,10.4766,10.5426,10.5782,10.5731,10.5731,10.5782,10.5579,10.4461,10.3547,10.3089,10.2429,10.1819,10.1311,10.0701,10.06,10.1413,10.3902,10.5376,10.5376,10.7916,10.9135,10.8577,10.8627,10.8475,10.8068,10.8678,10.9085,10.9085,10.8424,10.8018,10.8018,10.7459,10.6697,10.5782,10.4156,10.2835,10.2276,10.0752,9.9431,9.9025,9.8974,9.8923,9.8923,9.8923,9.8923,9.8923,9.8974,9.9075,9.9533,9.9685,9.9584,9.9634,9.9838,10.0193,9.9634,10.0447,10.126,10.1413,10.187,10.1972,10.1565,10.1972,10.2226,10.2327,10.2378,10.2378,10.2276,10.2378,10.2378,10.2327,10.2175,10.187,10.1463,10.0769,10.0225,9.9749,9.8755,9.7891,9.7593,9.7593,9.6975,10.0092,9.999,10.0092,10.0142,10.0295,10.1362,10.187,10.2022,10.2988,10.3394,10.2734,10.0905,9.999,9.999,9.9838,9.9279,9.8517,9.9279,9.9126,9.8415,9.8415,9.8517,9.8466,9.75,9.6992,9.6992,9.7043,9.7043,9.7043,9.8212,9.9736,10.1667,10.3038,10.3648,10.3648,10.3801,10.3851,10.3801,10.3597,10.3445,10.3496,10.3496,10.2937,10.1768,10.1717,10.1159,9.999,10.0193,10.0295,10.0549,10.3547,10.5325,10.5605,10.8301,10.9929,10.9573,10.8657,10.7662,10.6747,10.6747,10.6798,10.6798,10.6747,10.6747,10.6747,10.6747,10.5884,10.4258,10.2784,10.1667,10.0396,9.9431,9.8415,9.745,9.7196,9.6992,9.7145,9.6992,9.6992,9.6992,9.7246,9.7348,9.8364,9.8567,9.8872,9.938,9.9736,9.9888,9.9838,10.0244,10.0447,10.0041,9.999,9.999,9.9939,9.999,9.999,9.999,9.999,10.0142,10.0346,10.0346,10.0244,10.0854,10.06,10.0529,10.0204,9.9585,9.9096,9.8478,9.7518,9.6751,9.6303,9.6032,9.525,9.8567,9.7856,9.872,9.9075,9.9177,10.0244,10.0701,10.0701,10.0955,10.0092,9.8567,9.8008,9.7704,9.7653,9.6891,9.6383,9.6078,9.5468,9.557,9.6129,9.6179,9.6586,9.7297,9.7145,9.6992,9.6992,9.6992,9.6992,9.7094,9.8161,9.9025,9.9634,10.1463,10.2429,10.2429,10.3343,10.3801,10.3699,10.1972,10.1057,10.1057,10.1108,10.06,9.9584,9.9482,9.8923,9.7907,9.938,10.0295,10.0447,10.3547,10.5223,10.5013,10.6395,10.6446,10.486,10.4399,10.4019,10.3367,10.4004,10.4563,10.4563,10.4563,10.4563,10.4563,10.4512,10.4309,10.3801,10.2632,10.1514,10.0295,9.9279,9.8263,9.7145,9.6992,9.684,9.6942,9.6992,9.6992,9.6992,9.6992,9.6992,9.7297,9.7348,9.7551,9.7907,9.8517,9.9025,9.9177,9.9838,9.9431,9.8364,9.7704,9.7856,9.7754,9.7805,9.7856,9.7704,9.7805,9.8263,9.8872,9.9075,9.9329,9.9939,10.0193,9.9849,9.9463,9.8421,9.7312,9.6724,9.5447,9.4248,9.4052,9.4052,9.3467,9.7551,9.7094,9.7653,9.7907,9.7958,9.8517,9.8771,9.872,9.8263,9.7399,9.6332,9.6789,9.6992,9.6942,9.6383,9.5875,9.5417,9.4757,9.4554,9.4604,9.4604,9.4909,9.5417,9.5468,9.5163,9.4808,9.5722,9.5976,9.5671,9.7145,9.8212,9.8821,9.9888,10.0752,10.126,10.187,10.2226,10.2124,9.9482,9.8059,9.8059,9.7551,9.6738,9.5722,9.6738,9.6687,9.5519,9.6637,9.7246,9.7246,9.9533,10.1373,10.2392,10.3418,10.4054,10.4147,10.39,10.3529,10.3282,10.357,10.3801,10.3801,10.3801,10.3343,10.2327,10.2226,10.2175,10.2175,10.1616,10.06,9.8923,9.8263,9.7246,9.5621,9.5468,9.5468,9.5468,9.5468,9.5468,9.5468,9.5468,9.5671,9.6179,9.6281,9.6383,9.6992,9.745,9.7907,9.7958,9.8415,9.8313,9.7297,9.6942,9.6942,9.6992,9.6992,9.6992,9.6992,9.6706,9.7011,9.7704,9.7669,9.7753,9.8139,9.836,9.8051,9.7568,9.6514,9.5732,9.5027,9.4001,9.3223,9.3125,9.3125,9.2588,9.6637,9.6535,9.6687,9.6687,9.6535,9.6687,9.6637,9.6433,9.5214,9.4808,9.5011,9.5875,9.6383,9.6535,9.6484,9.6027,9.5163,9.5163,9.4706,9.3944,9.3893,9.3893,9.3893,9.3944,9.3334,9.247,9.4401,9.4858,9.4249,9.6027,9.75,9.8364,9.8669,9.9177,9.999,10.0244,10.0142,9.9787,9.7043,9.5621,9.5621,9.4655,9.3334,9.1648,9.3893,9.4401,9.2623,9.3283,9.3385,9.2775,9.4147,9.5968,9.8134,9.9211,10.1041,10.3534,10.3201,10.3038,10.3171,10.283,10.2784,10.3242,10.3293,10.2276,9.9888,9.9888,10.0142,10.0295,10.0193,9.9228,9.7297,9.6891,9.5976,9.4096,9.369,9.369,9.3791,9.3791,9.3791,9.3791,9.3639,9.4147,9.5011,9.5163,9.5468,9.623,9.6281,9.6586,9.6687,9.6637,9.6535,9.6484,9.6484,9.6535,9.6281,9.6484,9.6332,9.6535,9.5864,9.563,9.6453,9.6033,9.5779,9.593,9.6131,9.5893,9.5297,9.4619,9.4062,9.3822,9.3047,9.2491,9.2442,9.2491,9.2051,9.5112,9.435,9.5316,9.5112,9.435,9.5265,9.5163,9.4096,9.2115,0.0,0.0,9.2826,9.3385,9.4249,9.4249,9.4147,9.3995,9.3944,9.4401,9.5112,9.5112,9.5112,9.5112,9.5112,9.4503,9.3436,9.4757,9.5265,9.5163,9.6383,9.7094,9.7348,9.8263,9.8821,9.9025,9.9888,9.938,9.7653,9.6992,9.6687,9.6687,9.6484,9.4147,8.9263,9.2318,9.1708,8.7139,9.12,9.1962,8.8457,9.0997,9.2185,9.1465,9.2447,9.3791,9.524,9.5231,9.5711,9.6972,9.7008,9.8059,10.0752,10.0905,9.9584,9.6484,9.7958,9.938,10.0244,9.9533,9.8466,9.7094,9.623,9.5112,9.3791,9.3639,9.3639,9.3639,9.3639,9.3639,9.3639,9.3639,9.3741,9.3995,9.4045,9.4096,9.4198,9.4401,9.4554,9.5316,9.496,9.4452,9.4452,9.4554,9.435,9.43,9.435,9.4249,9.4452,9.3892,9.3749,9.4555,9.4339,9.4337,9.5036,9.5386,9.5098,9.445,9.3519,9.2689,9.2144,9.1222,9.0587,9.0587,9.0587,9.0538,9.2521,9.2064,9.2623,9.2521,0.0,9.2623,9.1861,9.0184,8.9117,8.927,9.0278,9.0895,9.1454,9.1962,9.1962,9.1962,9.2013,9.2572,9.3131,9.369,9.4249,9.4503,9.4503,9.4503,9.3944,9.2928,9.4554,9.5112,9.4655,9.6179,9.6687,9.623,9.7297,9.6992,9.5468,9.75,9.7805,9.6179,9.5621,9.557,9.6129,9.5062,9.2623,8.8965,9.1403,0.0,0.0,0.0,0.0,0.0,0.0,0.0,0.0,8.9423,0.0,9.0316,8.5813,8.3254,8.3931,8.4291,8.6323,9.0641,9.1556,9.0692,8.7999,9.1912,9.4249,9.3639,9.5163,9.6129,9.6179,9.5722,9.496,9.3791,9.3639,9.3639,9.3639,9.3639,9.3639,9.3639,9.3639,9.3639,9.3639,9.3639,9.3639,9.3639,9.3639,9.3893,9.435,9.3995,9.3639,9.3639,9.3639,9.3639,9.3639,9.3639,9.369,9.3184,9.2678,9.247,9.3021,9.2657,9.2339,9.2885,9.3033,9.2915,9.2275,9.1646,9.1136,9.0851,9.0392,9.005,9.005,9.005,9.005,9.0387,9.0387,9.0387,9.0235,9.0032,8.9778,8.866,8.6878,8.6878,8.7491,8.8457,8.9524,9.0133,9.0336,9.0387,9.0387,9.0387,9.1505,9.1902,9.2064,9.3131,9.3588,9.3334,9.3131,9.242,9.1445,9.3487,9.3944,9.308,9.5265,9.5925,9.5112,9.6179,9.5214,9.2623,0.0,0.0,0.0,9.3944,9.3995,9.4655,9.2979,9.0743,8.8203,9.0387,0.0,8.8253,8.9524,9.0192,8.9422,8.9422,0.0,0.0,0.0,0.0,0.0,0.0,0.0,0.0,0.0,0.0,0.0,7.9972,7.987,7.9311,8.4595,8.7186,8.5103,8.9625,9.2775,9.2877,9.3029,9.2979,9.247,9.2369,9.2572,9.3029,9.3029,9.3029,9.3029,9.3233,9.3334,9.3334,9.3537,9.3639,9.3639,9.3639,9.3639,9.369,9.369,9.3639,9.3639,9.3639,9.3639,9.3639,9.3639,9.3412,9.2842,9.222,9.176,9.1629,9.1215,9.0751,9.0916,9.0751,9.0683,9.0216,9.005,9.0099,9.005,9.005,8.9953,8.9757,8.9708,8.9806,9.0387,9.0387,9.0387,8.9778,8.8812,8.7796,8.7237,8.6878,8.6878,8.6928,8.7131,8.8299,8.9473,9.0336,9.0387,9.0387,9.0438,9.1505,9.1902,9.1952,9.3131,9.3131,9.2216,9.1251,9.0184,8.9111,9.0387,9.0895,9.0845,9.3029,9.3995,9.3944,9.5011,9.4858,9.3537,9.3893,9.308,9.1048,9.2775,9.3283,9.247,9.2054,8.9981,8.6119,8.8863,8.9066,8.5967,8.8711,8.9123,8.6275,8.6071,8.6024,8.6027,8.2656,7.9286,0.0,7.18,0.0,0.0,0.0,0.0,0.0,0.0,0.0,0.0,7.7939,7.9108,7.6923,8.4392,8.7796,8.4036,8.4544,8.5865,8.7644,8.7796,8.8558,9.0489,9.0794,9.0743,9.0743,9.1607,9.2216,9.2216,9.308,9.3639,9.3588,9.3272,9.2854,9.3487,9.3272,9.3385,9.3639,9.3639,9.3385,9.3436,9.3537,9.3311,9.2741,9.1955,9.1694,9.1018,9.0487,9.0118,9.0069,8.9972,9.0021,9.0001,8.9953,8.9953,8.9855,8.9806,8.9562,8.883,8.8635,8.8928,8.9066,8.8457,8.8457,8.8203,8.7694,8.7186,8.6878,8.6878,8.6878,8.6878,8.6928,8.8203,8.932,9.0336,9.0387,9.0387,9.0387,9.0845,9.1403,9.1902,9.1861,9.1912,9.1851,9.0895,9.0082,8.9625,9.0082,9.0692,9.1302,9.2267,9.2724,9.2775,9.3893,9.2013,8.7597,8.9676,9.0743,9.0387,9.1912,9.3131,9.3842,9.3893,9.2623,9.0082,9.0845,9.054,8.9066,9.0438,9.0591,8.9117,8.9015,8.8523,8.7207,7.7653,7.2409,0.0,0.0,0.0,0.0,0.0,0.0,0.0,0.0,0.0,0.0,0.0,6.8424,7.1385,8.0277,8.4036,7.9616,8.0175,8.1242,8.2207,8.0124,8.0734,8.6069,8.6069,8.617,8.739,8.9066,9.0075,9.0075,9.0641,9.1353,9.2572,8.9327,8.665,8.6094,8.8634,9.0454,9.0454,9.1182,9.181,9.181,9.1587,9.1252,9.0866,9.0079,8.9401,8.9109,8.8653,8.8195,8.8195,8.8195,8.8195,8.8195,8.8195,8.8195,8.8195,8.8195,8.8049,8.7561,8.7463,8.7561,8.7639,8.678,8.4951,8.4494,8.4951,8.4951,8.5457,8.6526,8.6526,8.6729,8.6983,8.7593,8.7791,8.7791,8.6725,8.7085,8.8355,8.8609,8.9778,9.1556,9.1302,9.1454,9.1851,9.0895,9.0387,9.0336,8.9778,9.0133,9.1149,9.0836,9.0328,8.9727,9.0743,8.805,8.1953,8.551,8.8406,9.0336,9.1708,9.3233,9.4909,9.4503,9.3791,9.2877,9.2064,9.1759,9.2013,9.1902,9.1902,9.1851,9.0126,8.8416,8.6746,7.2905,0.0,0.0,0.0,0.0,0.0,0.0,0.0,0.0,0.0,5.6803,4.7607,0.0,5.9909,0.0,7.5145,7.926,7.6466,7.5958,0.0,0.0,7.1944,7.169,7.8092,7.926,8.0327,8.2309,8.5205,8.6874,8.6399,8.6545,8.7566,8.9567,8.559,8.1834,8.0588,8.4431,8.7351,8.6791,8.7724,8.8603,8.8495,8.8576,8.8854,8.9136,8.8461,8.7903,8.7679,8.7181,8.6844,8.6731,8.6731,8.6731,8.678,8.6731,8.6487,8.5462,8.5218,8.5365,8.5901,8.595,8.6146,8.6928,8.6218,7.9159,7.738,7.921,7.921,8.1598,8.5357,8.5357,8.5967,8.6776,8.5967,8.3782,8.0345,7.6305,0.0,8.2765,8.3681,8.6373,9.054,9.2521,9.2928,9.1851,9.0845,9.0387,9.0286,8.8203,8.7796,8.8755,8.7842,8.5764,8.2968,8.3884,8.3071,8.0683,8.2817,8.6119,9.0235,9.242,9.3588,9.3741,9.181,9.0692,9.0751,9.0489,9.0946,9.1962,9.1902,9.1902,9.1648,8.5103,8.0466,7.8529,0.0,0.0,0.0,0.0,0.0,0.0,0.0,0.0,0.0,0.0,0.0,0.0,0.0,0.0,6.186,6.7778,0.0,7.3773,7.0217,0.0,0.0,0.0,6.2189,6.4831,6.9658,7.3214,7.4434,0.0,0.0,7.9937,8.0618,8.2084,8.3984,8.4643,8.4437,8.2865,8.4473,8.5533,8.3158,8.3216,8.3625,8.4183,8.5084,8.6483,8.7905,8.8683,8.8051,8.7446,8.7272,8.7245,8.66,8.6682,8.6585,8.6682,8.6438,8.54,8.1598,8.0915,8.1558,8.3363,8.3803,8.434,8.1547,7.7533,7.3773,7.3113,7.4535,7.4586,7.672,8.0277,8.0277,7.9768,7.8956,7.8967,7.66,7.258,7.1571,0.0,0.0,0.0,7.9718,8.5307,8.551,8.7186,8.972,8.8812,8.8304,8.8253,8.739,8.7436,8.866,8.8914,8.1547,6.7504,0.0,6.9979,6.932,7.611,8.1496,8.5256,8.8812,9.0997,9.1657,9.0794,9.0997,9.2216,9.0387,9.0184,9.18,9.0633,8.8101,8.3934,7.9667,7.4168,0.0,0.0,0.0,0.0,0.0,0.0,0.0,0.0,0.0,0.0,0.0,4.5981,3.9376,0.0,0.0,0.0,5.3002,5.5078,5.8014,6.0899,0.0,0.0,0.0,0.0,0.0,0.0,0.0,6.7066,7.2452,7.6086,7.6594,7.6087,7.5115,7.385,7.531,7.6045,7.4481,0.0,8.0603,8.1153,8.1056,8.1457,8.3072,8.1857,8.1203,8.281,8.3087,8.3064,8.3219,8.3233,8.3198,8.3306,8.2983,8.2816,8.2768,8.2816,8.2134,8.0623,8.0233,8.0477,8.1411,8.1606,8.1802,7.2973,0.0,0.0,0.0,0.0,6.7835,6.9961,7.3442,7.2998,7.2188,7.1024,7.0952,0.0,0.0,0.0,0.0,0.0,0.0,7.4078,7.9565,8.1445,8.3986,8.7186,8.6373,8.617,8.6424,8.5406,8.5002,8.4798,8.3427,7.3862,5.6803,0.0,0.0,0.0,0.0,7.7177,8.1496,8.6882,9.0184,9.1251,9.0692,9.1099,9.2674,9.0082,8.9117,9.0032,8.7288,8.3122,7.738,7.1944,0.0,0.0,0.0,0.0,0.0,0.0,0.0,0.0,0.0,0.0,0.0,0.0,0.0,0.0,0.0,0.0,0.0,0.0,0.0,4.8033,5.3529,5.5078,0.0,0.0,0.0,0.0,0.0,0.0,0.0,0.0,0.0,7.042,7.0904,7.0802,0.0,0.0,7.215,6.9895,7.3448,7.633,7.6724,7.6263,0.0,7.8435,7.6709,7.5757,7.7593,7.8808,7.9305,7.8707,7.8657,7.8494,7.7565,7.854,7.8776,7.7113,7.5895,7.5212,7.5553,7.5407,7.5457,7.5992,7.6675,7.7162,0.0,0.0,0.0,0.0,5.8794,0.0,0.0,0.0,6.3769,6.3741,0.0,6.2385,0.0,0.0,0.0,0.0,5.9322,6.5491,0.0,0.0,8.2309,8.5611,8.3731,8.363,8.424,8.5206,8.1902,7.8701,7.5247,6.8032,0.0,0.0,0.0,0.0,0.0,0.0,7.3671,8.0226,8.7796,9.2369,9.3334,9.1403,9.0387,9.0387,8.932,8.7694,8.5459,8.1242,7.7279,7.3773,6.1251,0.0,0.0,0.0,0.0,0.0,0.0,0.0,0.0,0.0,0.0,0.0,0.0,0.0,0.0,0.0,0.0,0.0,0.0,0.0,0.0,4.9509,0.0,0.0,0.0,0.0,0.0,0.0,0.0,0.0,0.0,6.3815,5.9699,6.4702,7.0198,7.4213,0.0,0.0,0.0,0.0,7.3747,6.894,6.7448,6.7336,6.7485,6.9318,7.1475,7.367,0.0,0.0,7.4661,7.4541,7.3728,7.0179,7.37,7.5261,6.8876,6.5366,6.384,6.4768,6.4329,6.4036,6.5939,6.7949,6.9802,0.0,0.0,0.0,0.0,0.0,0.0,0.0,0.0,0.0,5.4521,5.3536,5.2718,0.0,0.0,0.0,0.0,0.0,0.0,0.0,0.0,6.8946,7.2452,7.3926,7.611,7.6212,7.4383,7.2452,6.7168,0.0,0.0,0.0,0.0,0.0,0.0,0.0,0.0,6.8845,7.4891,8.3274,8.8507,9.0286,8.9676,8.8914,8.8152,8.9168,8.6272,7.8956,7.5094,7.0217,0.0,0.0,0.0,0.0,0.0,0.0,0.0,0.0,0.0,0.0,0.0,0.0,0.0,0.0,0.0,0.0,0.0,0.0,0.0,0.0,0.0,0.0,0.0,4.7,0.0,0.0,0.0,0.0,0.0,0.0,0.0,0.0,0.0,5.2345,5.975,6.6406,6.9404,7.2087,7.3538,7.2775,0.0,0.0,0.0,0.0,0.0,0.0,0.0,6.6587,6.7385,6.6005,6.4697,6.4963,6.6672,6.7606,6.6612,0.0,0.0,5.7824,5.6257,5.682,5.7859,5.8228,5.8472,5.8569,5.9614,6.0674,0.0,0.0,0.0,0.0,0.0,0.0,0.0,0.0,0.0,4.6037,4.4452,0.0,0.0,0.0,0.0,0.0,0.0,0.0,0.0,0.0,0.0,0.0,6.5288,6.7575,0.0,0.0,0.0,0.0,0.0,0.0,0.0,0.0,0.0,0.0,0.0,0.0,6.5593,7.0979,8.0378,8.6221,8.805,8.7284,8.6831,8.6424,8.7136,8.3477,7.4992,0.0,0.0,0.0,0.0,0.0,0.0,0.0,0.0,0.0,0.0,0.0,0.0,0.0,0.0,0.0,0.0,0.0,0.0,0.0,0.0,0.0,0.0,0.0,0.0,0.0,4.3175,0.0,0.0,0.0,0.0,0.0,0.0,0.0,0.0,0.0,0.0,5.3166,5.9749,6.3886,6.7387,7.0004,7.1596,7.1481,7.1854,0.0,0.0,0.0,0.0,0.0,0.0,0.0,0.0,0.0,0.0,0.0,0.0,0.0,0.0,5.6889,4.8856,4.7883,4.8657,4.9699,0.0,0.0,0.0,0.0,0.0,0.0,0.0,0.0,0.0,0.0,0.0,0.0,0.0,0.0,0.0,3.7616,0.0,0.0,3.6387,0.0,0.0,0.0,0.0,0.0,0.0,0.0,0.0,0.0,0.0,0.0,0.0,0.0,0.0,0.0,0.0,0.0,0.0,0.0,0.0,0.0,0.0,6.394,6.8642,7.9514,8.5713,8.6729,8.4798,8.4189,8.5155,8.3222,7.9311,7.3671,0.0,0.0,0.0,0.0,0.0,0.0,0.0,0.0,0.0,0.0,0.0,0.0,0.0,0.0,0.0,0.0,0.0,0.0,0.0,0.0,0.0,0.0,0.0,0.0,0.0,0.0,3.6164,4.0099,4.2867,0.0,0.0,0.0,0.0,0.0,0.0,0.0,0.0,0.0,5.8543,6.3325,6.6941,6.9211,6.9533,6.9426,6.8523,6.5685,6.4009,6.5915,6.6232,6.5439,0.0,0.0,0.0,0.0,0.0,0.0,0.0,0.0,0.0,0.0,0.0,0.0,0.0,0.0,0.0,0.0,0.0,0.0,0.0,0.0,0.0,0.0,0.0,0.0,0.0,0.0,0.0,0.0,0.0,0.0,0.0,0.0,0.0,0.0,0.0,0.0,0.0,0.0,0.0,0.0,0.0,0.0,0.0,0.0,0.0,0.0,0.0,0.0,0.0,0.0,0.0,0.0,0.0,0.0,6.1708,6.6254,7.7279,8.2766,8.236,8.3173,8.302,8.1852,8.114,7.7431,0.0,0.0,0.0,0.0,0.0,0.0,0.0,0.0,0.0,0.0,0.0,0.0,0.0,0.0,0.0,0.0,0.0,0.0,0.0,0.0,0.0,0.0,0.0,0.0,0.0,0.0,0.0,0.0,4.7086,4.6264,4.1811,0.0,0.0,0.0,0.0,0.0,0.0,0.0,0.0,0.0,0.0,6.4711,6.7398,6.8795,6.9533,6.919,6.7791,6.6636,6.6452,6.6232,6.4691,6.0855,0.0,0.0,0.0,0.0,0.0,0.0,0.0,0.0,0.0,0.0,0.0,0.0,0.0,0.0,0.0,0.0,0.0,0.0,0.0,0.0,0.0,0.0,0.0,0.0,0.0,0.0,0.0,0.0,0.0,0.0,0.0,0.0,0.0,0.0,0.0,0.0,0.0,0.0,0.0,0.0,0.0,0.0,0.0,0.0,0.0,0.0,0.0,0.0,0.0,0.0,0.0,0.0,0.0,5.9791,6.4207,7.5378,8.0693,8.0086,8.1549,8.1496,7.9667,7.926,7.4535,0.0,0.0,0.0,0.0,0.0,0.0,0.0,0.0,0.0,0.0,0.0,0.0,0.0,0.0,0.0,0.0,0.0,0.0,0.0,0.0,0.0,0.0,0.0,0.0,0.0,0.0,0.0,0.0,4.3994,4.4241,4.1157,0.0,0.0,0.0,0.0,0.0,0.0,0.0,0.0,0.0,0.0,6.1266,6.4469,6.6171,0.0,0.0,6.6933,6.5503,6.6711,6.704,6.4817,5.813,5.5592,0.0,0.0,0.0,0.0,0.0,0.0,0.0,0.0,0.0,0.0,0.0,0.0,0.0,0.0,0.0,0.0,0.0,0.0,0.0,0.0,0.0,0.0,0.0,0.0,0.0,0.0,0.0,0.0,0.0,0.0,0.0,0.0,0.0,0.0,0.0,0.0,0.0,0.0,0.0,0.0,0.0,0.0,0.0,0.0,0.0,0.0,0.0,0.0,0.0,0.0,0.0,0.0,5.8053,6.2447,7.3527,7.9294,7.9143,7.9782,7.952,7.8346,7.7177,7.0877,0.0,0.0,0.0,0.0,0.0,0.0,0.0,0.0,0.0,0.0,0.0,0.0,0.0,0.0,0.0,0.0,0.0,0.0,0.0,0.0,0.0,0.0,0.0,0.0,0.0,0.0,0.0,0.0,0.0,0.0,0.0,0.0,0.0,0.0,0.0,0.0,0.0,0.0,0.0,0.0,0.0,5.7058,6.0854,6.2264,6.42,0.0,6.3641,6.1503,6.5842,6.7559,6.4927,5.4616,0.0,0.0,0.0,0.0,0.0,0.0,0.0,0.0,0.0,0.0,0.0,0.0,0.0,0.0,0.0,0.0,0.0,0.0,0.0,0.0,0.0,0.0,0.0,0.0,0.0,0.0,0.0,0.0,0.0,0.0,0.0,0.0,0.0,0.0,0.0,0.0,0.0,0.0,0.0,0.0,0.0,0.0,0.0,0.0,0.0,0.0,0.0,0.0,0.0,0.0,0.0,0.0,0.0,0.0,6.0053,7.1664,7.71,7.583,7.7478,7.7618,7.611,7.3367,0.0,0.0,0.0,0.0,0.0,0.0,0.0,0.0,0.0,0.0,0.0,0.0,0.0,0.0,0.0,0.0,0.0,0.0,0.0,0.0,0.0,0.0,0.0,0.0,0.0,0.0,0.0,2.8684,0.0,0.0,0.0,0.0,0.0,0.0,0.0,0.0,0.0,0.0,0.0,0.0,0.0,0.0,5.6052,6.0421,6.0606,6.0803,0.0,0.0,5.9183,5.8032,6.0766,6.0473,0.0,0.0,0.0,0.0,0.0,0.0,0.0,0.0,0.0,0.0,0.0,0.0,0.0,0.0,0.0,0.0,0.0,0.0,0.0,0.0,0.0,0.0,0.0,0.0,0.0,0.0,0.0,0.0,0.0,0.0,0.0,0.0,0.0,0.0,0.0,0.0,0.0,0.0,0.0,0.0,0.0,0.0,0.0,0.0,0.0,0.0,0.0,0.0,0.0,0.0,0.0,0.0,0.0,0.0,5.3268,5.8833,6.7841,7.3378,7.4847,7.6288,7.6463,7.5297,7.1944,6.6304,0.0,0.0,0.0,0.0,0.0,0.0,0.0,0.0,0.0,0.0,0.0,0.0,0.0,0.0,0.0,0.0,0.0,0.0,0.0,0.0,0.0,0.0,0.0,0.0,0.0,0.0,0.0,0.0,0.0,0.0,0.0,0.0,0.0,0.0,0.0,0.0,0.0,0.0,0.0,0.0,0.0,0.0,5.7454,5.6493,0.0,0.0,0.0,5.5836,5.5397,0.0,0.0,0.0,0.0,0.0,0.0,0.0,0.0,0.0,0.0,0.0,0.0,0.0,0.0,0.0,0.0,0.0,0.0,0.0,0.0,0.0,0.0,0.0,0.0,0.0,0.0,0.0,0.0,0.0,0.0,0.0,0.0,0.0,0.0,0.0,0.0,0.0,0.0,0.0,0.0,0.0,0.0,0.0,0.0,0.0,0.0,0.0,0.0,0.0,0.0,0.0,0.0,0.0,0.0,0.0,0.0,0.0,5.7721,6.391,6.96,7.4922,7.5692,7.5656,7.4952,7.1893,6.5999,0.0,0.0,0.0,0.0,0.0,0.0,0.0,0.0,0.0,0.0,0.0,0.0,0.0,0.0,0.0,0.0,0.0,0.0,0.0,0.0,0.0,0.0,0.0,0.0,0.0,0.0,0.0,0.0,0.0,0.0,0.0,0.0,0.0,0.0,0.0,0.0,0.0,0.0,0.0,0.0,0.0,5.3314,5.3839,5.1779,5.0443,0.0,0.0,5.1657,5.4665,5.5543,0.0,0.0,0.0,0.0,0.0,0.0,0.0,0.0,0.0,0.0,0.0,0.0,0.0,0.0,0.0,0.0,0.0,0.0,0.0,0.0,0.0,0.0,0.0,0.0,0.0,0.0,0.0,0.0,0.0,0.0,0.0,0.0,0.0,0.0,0.0,0.0,0.0,0.0,0.0,0.0,0.0,0.0,0.0,0.0,0.0,0.0,0.0,0.0,0.0,0.0,0.0,0.0,0.0,0.0,0.0,0.0,5.542,6.407,7.0338,7.3833,7.4125,7.4088,7.3937,7.1538,6.5999,0.0,0.0,0.0,0.0,0.0,0.0,0.0,0.0,0.0,0.0,0.0,0.0,0.0,0.0,0.0,0.0,0.0,0.0,0.0,0.0,0.0,0.0,0.0,0.0,0.0,0.0,0.0,0.0,0.0,0.0,0.0,0.0,0.0,0.0,0.0,0.0,0.0,0.0,0.0,0.0,0.0,4.9954,5.3898,5.0728,0.0,0.0,0.0,0.0,4.8222,4.583,0.0,0.0,0.0,0.0,0.0,0.0,0.0,0.0,0.0,0.0,0.0,0.0,0.0,0.0,0.0,0.0,0.0,0.0,0.0,0.0,0.0,0.0,0.0,0.0,0.0,0.0,0.0,0.0,0.0,0.0,0.0,0.0,0.0,0.0,0.0,0.0,0.0,0.0,0.0,0.0,0.0,0.0,0.0,0.0,0.0,0.0,0.0,0.0,0.0,0.0,0.0,0.0,0.0,0.0,0.0,0.0,5.6935,6.2129,6.7325,7.2689,7.2888,7.3186,7.3531,7.1385,6.5999,0.0,0.0,0.0,0.0,0.0,0.0,0.0,0.0,0.0,0.0,0.0,0.0,0.0,0.0,0.0,0.0,0.0,0.0,0.0,0.0,0.0,0.0,0.0,0.0,0.0,0.0,0.0,0.0,0.0,0.0,0.0,0.0,0.0,0.0,0.0,0.0,0.0,0.0,0.0,0.0,4.4539,4.651,4.9491,0.0,0.0,0.0,0.0,0.0,0.0,4.256,4.0266,0.0,0.0,0.0,0.0,0.0,0.0,0.0,0.0,0.0,0.0,0.0,0.0,0.0,0.0,0.0,0.0,0.0,0.0,0.0,0.0,0.0,0.0,0.0,0.0,0.0,0.0,0.0,0.0,0.0,0.0,0.0,0.0,0.0,0.0,0.0,0.0,0.0,0.0,0.0,0.0,0.0,0.0,0.0,0.0,0.0,0.0,0.0,0.0,0.0,0.0,0.0,0.0,0.0,0.0,0.0,5.7794,5.932,6.3646,7.1206,7.1843,7.2634,7.3442,7.1349,6.5949,5.7108,0.0,0.0,0.0,0.0,0.0,0.0,0.0,0.0,0.0,0.0,0.0,0.0,0.0,0.0,0.0,0.0,0.0,0.0,0.0,0.0,0.0,0.0,0.0,0.0,0.0,0.0,0.0,0.0,0.0,0.0,0.0,0.0,0.0,0.0,0.0,0.0,0.0,0.0,0.0,4.134,4.27,0.0,0.0,0.0,0.0,0.0,0.0,0.0,0.0,3.9095,0.0,0.0,0.0,0.0,0.0,0.0,0.0,0.0,0.0,0.0,0.0,0.0,0.0,0.0,0.0,0.0,0.0,0.0,0.0,0.0,0.0,0.0,0.0,0.0,0.0,0.0,0.0,0.0,0.0,0.0,0.0,0.0,0.0,0.0,0.0,0.0,0.0,0.0,0.0,0.0,0.0,0.0,0.0,0.0,0.0,0.0,0.0,0.0,0.0,0.0,0.0,0.0,0.0,0.0,0.0,0.0,5.6348,6.2602,6.8584,7.1007,7.2404,7.2994,7.1125,6.5542,5.5906,0.0,0.0,0.0,0.0,0.0,0.0,0.0,0.0,0.0,0.0,0.0,0.0,0.0,0.0,0.0,0.0,0.0,0.0,0.0,0.0,0.0,0.0,0.0,0.0,0.0,0.0,0.0,0.0,0.0,0.0,0.0,0.0,0.0,0.0,0.0,0.0,0.0,0.0,3.1969,3.5532,0.0,0.0,0.0,0.0,0.0,0.0,0.0,0.0,3.7484,0.0,0.0,0.0,0.0,0.0,0.0,0.0,0.0,0.0,0.0,0.0,0.0,0.0,0.0,0.0,0.0,0.0,0.0,0.0,0.0,0.0,0.0,0.0,0.0,0.0,0.0,0.0,0.0,0.0,0.0,0.0,0.0,0.0,0.0,0.0,0.0,0.0,0.0,0.0,0.0,0.0,0.0,0.0,0.0,0.0,0.0,0.0,0.0,0.0,0.0,0.0,0.0,0.0,0.0,0.0,0.0,0.0,0.0,6.2025,6.8052,7.05,7.2133,7.2613,6.7435,6.1155,0.0,0.0,0.0,0.0,0.0,0.0,0.0,0.0,0.0,0.0,0.0,0.0,0.0,0.0,0.0,0.0,0.0,0.0,0.0,0.0,0.0,0.0,0.0,0.0,0.0,0.0,0.0,0.0,0.0,0.0,0.0,0.0,0.0,0.0,0.0,0.0,0.0,0.0,0.0,0.0,0.0,0.0,0.0,0.0,0.0,0.0,0.0,0.0,0.0,0.0,0.0,0.0,0.0,0.0,0.0,0.0,0.0,0.0,0.0,0.0,0.0,0.0,0.0,0.0,0.0,0.0,0.0,0.0,0.0,0.0,0.0,0.0,0.0,0.0,0.0,0.0,0.0,0.0,0.0,0.0,0.0,0.0,0.0,0.0,0.0,0.0,0.0,0.0,0.0,0.0,0.0,0.0,0.0,0.0,0.0,0.0,0.0,0.0,0.0,0.0,0.0,0.0,0.0,0.0,0.0,0.0,0.0,0.0,6.0873,6.719,6.9739,7.1423,7.2144,6.3582,5.6674,0.0,0.0,0.0,0.0,0.0,0.0,0.0,0.0,0.0,0.0,0.0,0.0,0.0,0.0,0.0,0.0,0.0,0.0,0.0,0.0,0.0,0.0,0.0,0.0,0.0,0.0,0.0,0.0,0.0,0.0,0.0,0.0,0.0,0.0,0.0,0.0,0.0,0.0,0.0,0.0,0.0,0.0,0.0,0.0,0.0,0.0,0.0,0.0,3.6264,0.0,0.0,0.0,0.0,0.0,0.0,0.0,0.0,0.0,0.0,0.0,0.0,0.0,0.0,0.0,0.0,0.0,0.0,0.0,0.0,0.0,0.0,0.0,0.0,0.0,0.0,0.0,0.0,0.0,0.0,0.0,0.0,0.0,0.0,0.0,0.0,0.0,0.0,0.0,0.0,0.0,0.0,0.0,0.0,0.0,0.0,0.0,0.0,0.0,0.0,0.0,0.0,0.0,0.0,0.0,0.0,0.0,0.0,0.0,5.8205,6.4559,6.8124,7.0016,6.9858,6.1651,5.4548,0.0,0.0,0.0,0.0,0.0,0.0,0.0,0.0,0.0,0.0,0.0,0.0,0.0,0.0,0.0,0.0,0.0,0.0,0.0,0.0,0.0,0.0,0.0,0.0,0.0,0.0,0.0,0.0,0.0,0.0,0.0,0.0,0.0,0.0,0.0,0.0,0.0,0.0,0.0,0.0,0.0,0.0,0.0,0.0,0.0,0.0,0.0,0.0,0.0,0.0,0.0,0.0,0.0,0.0,0.0,0.0,0.0,0.0,0.0,0.0,0.0,0.0,0.0,0.0,0.0,0.0,0.0,0.0,0.0,0.0,0.0,0.0,0.0,0.0,0.0,0.0,0.0,0.0,0.0,0.0,0.0,0.0,0.0,0.0,0.0,0.0,0.0,0.0,0.0,0.0,0.0,0.0,0.0,0.0,0.0,0.0,0.0,0.0,0.0,0.0,0.0,0.0,0.0,0.0,0.0,0.0,0.0,0.0,5.4079,6.0473,6.5167,6.6085,6.2945,5.5237,4.9813,0.0,0.0,0.0,0.0,0.0,0.0,0.0,0.0,0.0,0.0,0.0,0.0,0.0,0.0,0.0,0.0,0.0,0.0,0.0,0.0,0.0,0.0,0.0,0.0,0.0,0.0,0.0,0.0,0.0,0.0,0.0,0.0,0.0,0.0,0.0,0.0,0.0,0.0,0.0,0.0,0.0,0.0,0.0,0.0,0.0,0.0,0.0,0.0,0.0,0.0,0.0,0.0,0.0,0.0,0.0,0.0,0.0,0.0,0.0,0.0,0.0,0.0,0.0,0.0,0.0,0.0,0.0,0.0,0.0,0.0,0.0,0.0,0.0,0.0,0.0,0.0,0.0,0.0,0.0,0.0,0.0,0.0,0.0,0.0,0.0,0.0,0.0,0.0,0.0,0.0,0.0,0.0,0.0,0.0,0.0,0.0,0.0,0.0,0.0,0.0,0.0,0.0,0.0,0.0,0.0,0.0,0.0,0.0,0.0,5.6129,6.0912,6.0961,5.603,4.9552,4.5163,0.0,0.0,0.0,0.0,0.0,0.0,0.0,0.0,0.0,0.0,0.0,0.0,0.0,0.0,0.0,0.0,0.0,0.0,0.0,0.0,0.0,0.0,0.0,0.0,0.0,0.0,0.0,0.0,0.0,0.0,0.0,0.0,0.0,0.0,0.0,0.0,0.0,0.0,0.0,0.0,0.0,0.0,0.0,0.0,0.0,0.0,0.0,0.0,0.0,0.0,0.0,0.0,0.0,0.0,0.0,0.0,0.0,0.0,0.0,0.0,0.0,0.0,0.0,0.0,0.0,0.0,0.0,0.0,0.0,0.0,0.0,0.0,0.0,0.0,0.0,0.0,0.0,0.0,0.0,0.0,0.0,0.0,0.0,0.0,0.0,0.0,0.0,0.0,0.0,0.0,0.0,0.0,0.0,0.0,0.0,0.0,0.0,0.0,0.0,0.0,0.0,0.0,0.0,0.0,0.0,0.0,0.0,0.0,0.0,5.1803,5.5055,5.4807,5.0826,4.6058,4.1412,0.0,0.0,0.0,0.0,0.0,0.0,0.0,0.0,0.0,0.0,0.0,0.0,0.0,0.0,0.0,0.0,0.0,0.0,0.0,0.0,0.0,0.0,0.0,0.0,0.0,0.0,0.0,0.0,0.0,0.0,0.0,0.0,0.0,0.0,0.0,0.0,0.0,0.0,0.0,0.0,0.0,0.0,0.0,0.0,0.0,0.0,0.0,0.0,0.0,0.0,0.0,0.0,0.0,0.0,0.0,0.0,0.0,0.0,0.0,0.0,0.0,0.0,0.0,0.0,0.0,0.0,0.0,0.0,0.0,0.0,0.0,0.0,0.0,0.0,0.0,0.0,0.0,0.0,0.0,0.0,0.0,0.0,0.0,0.0,0.0,0.0,0.0,0.0,0.0,0.0,0.0,0.0,0.0,0.0,0.0,0.0,0.0,0.0,0.0,0.0,0.0,0.0,0.0,0.0,0.0,0.0,0.0,0.0,0.0,4.1633,4.5147,4.7063,4.6879,4.1345,3.8463,3.8662,0.0,0.0,0.0,0.0,0.0,0.0,0.0,0.0,0.0,0.0,0.0,0.0,0.0,0.0,0.0,0.0,0.0,0.0,0.0,0.0,0.0,0.0,0.0,0.0,0.0,0.0,0.0,0.0,0.0,0.0,0.0,0.0,0.0,0.0,0.0,0.0,0.0,0.0,0.0,0.0,0.0,0.0,0.0,0.0,0.0,0.0,0.0,0.0,0.0,0.0,0.0,0.0,0.0,0.0,0.0,0.0,0.0,0.0,0.0,0.0,0.0,0.0,0.0,0.0,0.0,0.0,0.0,0.0,0.0,0.0,0.0,0.0,0.0,0.0,0.0,0.0,0.0,0.0,0.0,0.0,0.0,0.0,0.0,0.0,0.0,0.0,0.0,0.0,0.0,0.0,0.0,0.0,0.0,0.0,0.0,0.0,0.0,0.0,0.0,0.0,0.0,0.0,0.0,0.0,0.0,0.0,0.0,0.0,3.6996,4.0754,4.3,4.3292,3.8851,3.6507,0.0,0.0,0.0,0.0,0.0,0.0,0.0,0.0,0.0,0.0,0.0,0.0,0.0,0.0,0.0,0.0,0.0,0.0,0.0,0.0,0.0,0.0,0.0,0.0,0.0,0.0,0.0,0.0,0.0,0.0,0.0,0.0,0.0,0.0,0.0,0.0,0.0,0.0,0.0,0.0,0.0,0.0,0.0,0.0,0.0,0.0,0.0,0.0,0.0,0.0,0.0,0.0,0.0,0.0,0.0,0.0,0.0,0.0,0.0,0.0,0.0,0.0,0.0,0.0,0.0,0.0,0.0,0.0,0.0,0.0,0.0,0.0,0.0,0.0,0.0,0.0,0.0,0.0,0.0,0.0,0.0,0.0,0.0,0.0,0.0,0.0,0.0,0.0,0.0,0.0,0.0,0.0,0.0,0.0,0.0,0.0,0.0,0.0,0.0,0.0,0.0,0.0,0.0,0.0,0.0,0.0,0.0,0.0,3.48,3.9879,4.2944,4.3139,4.0416,3.8999,3.5434,0.0,0.0,0.0,0.0,0.0,0.0,0.0,0.0,0.0,0.0,0.0,0.0,0.0,0.0,0.0,0.0,0.0,0.0,0.0,0.0,0.0,0.0,0.0,0.0,0.0,0.0,0.0,0.0,0.0,0.0,0.0,0.0,0.0,0.0,0.0,0.0,0.0,0.0,0.0,0.0,0.0,0.0,0.0,0.0,0.0,0.0,0.0,0.0,0.0,0.0,0.0,0.0,0.0,0.0,0.0,0.0,0.0,0.0,0.0,0.0,0.0,0.0,0.0,0.0,0.0,0.0,0.0,0.0,0.0,0.0,0.0,0.0,0.0,0.0,0.0,0.0,0.0,0.0,0.0,0.0,0.0,0.0,0.0,0.0,0.0,0.0,0.0,0.0,0.0,0.0,0.0,0.0,0.0,0.0,0.0,0.0,0.0,0.0,0.0,0.0,0.0,0.0,0.0,0.0,0.0,0.0,0.0,0.0,0.0,3.4702,0.0,3.9729,0.0,3.7045,3.4218,0.0,0.0,0.0,0.0,0.0,0.0,0.0,0.0,0.0,0.0,0.0,0.0,0.0,0.0,0.0,0.0,0.0,0.0,0.0,0.0,0.0,0.0,0.0,0.0,0.0,0.0,0.0,0.0,0.0,0.0,0.0,0.0,0.0,0.0,0.0,0.0,0.0,0.0,0.0,0.0,0.0,0.0,0.0,0.0,0.0,0.0,0.0,0.0,0.0,0.0,0.0,0.0,0.0,0.0,0.0,0.0,0.0,0.0,0.0,0.0,0.0,0.0,0.0,0.0,0.0,0.0,0.0,0.0,0.0,0.0,0.0,0.0,0.0,0.0,0.0,0.0,0.0,0.0,0.0,0.0,0.0,0.0,0.0,0.0,0.0,0.0,0.0,0.0,0.0,0.0,0.0,0.0,0.0,0.0,0.0,0.0,0.0,0.0,0.0,0.0,0.0,0.0,0.0,0.0,0.0,0.0,0.0,0.0,0.0,3.4316,3.4998,3.7338,4.1242,3.6948,3.4849,0.0,0.0,0.0,0.0,0.0,0.0,0.0,0.0,0.0,0.0,0.0,0.0,0.0,0.0,0.0,0.0,0.0,0.0,0.0,0.0,0.0,0.0,0.0,0.0,0.0,0.0,0.0,0.0,0.0,0.0,0.0,0.0,0.0,0.0,0.0,0.0,0.0,0.0,0.0,0.0,0.0,0.0,0.0,0.0,0.0,0.0,0.0,0.0,0.0,0.0,0.0,0.0,0.0,0.0,0.0,0.0,0.0,0.0,0.0,0.0,0.0,0.0,0.0,0.0,0.0,0.0,0.0,0.0,0.0,0.0,0.0,0.0,0.0,0.0,0.0,0.0,0.0,0.0,0.0,0.0,0.0,0.0,0.0,0.0,0.0,0.0,0.0,0.0,0.0,0.0,0.0,0.0,0.0,0.0,0.0,0.0,0.0,0.0,0.0,0.0,0.0,0.0,0.0,0.0,0.0,0.0,0.0,0.0,0.0,3.7826,3.6313,3.6362,3.8314,3.8265,3.685,0.0,0.0,0.0,0.0,0.0,0.0,0.0,0.0,0.0,0.0,0.0,0.0,0.0,0.0,0.0,0.0,0.0,0.0,0.0,0.0,0.0,0.0,0.0,0.0,0.0,0.0,0.0,0.0,0.0,0.0,0.0,0.0,0.0,0.0,0.0,0.0,0.0,0.0,0.0,0.0,0.0,0.0,0.0,0.0,0.0,0.0,0.0,0.0,0.0,0.0,0.0,0.0,0.0,0.0,0.0,0.0,0.0,0.0,0.0,0.0,0.0,0.0,0.0,0.0,0.0,0.0,0.0,0.0,0.0,0.0,0.0,0.0,0.0,0.0,0.0,0.0,0.0,0.0,0.0,0.0,0.0,0.0,0.0,0.0,0.0,0.0,0.0,0.0,0.0,0.0,0.0,0.0,0.0,0.0,0.0,0.0,0.0,0.0,0.0,0.0,0.0,0.0,0.0,0.0,0.0,0.0,0.0,0.0,0.0,0.0,3.4897,3.5678,3.6166,3.5483,3.4747,3.3868,0.0,0.0,0.0,0.0,0.0,0.0,0.0,0.0,0.0,0.0,0.0,0.0,0.0,0.0,0.0,0.0,0.0,0.0,0.0,0.0,0.0,0.0,0.0,0.0,0.0,0.0,0.0,0.0,0.0,0.0,0.0,0.0,0.0,0.0,0.0,0.0,0.0,0.0,0.0,0.0,0.0,0.0,0.0,0.0,0.0,0.0,0.0,0.0,0.0,0.0,0.0,0.0,0.0,0.0,0.0,0.0,0.0,0.0,0.0,0.0,0.0,0.0,0.0,0.0,0.0,0.0,0.0,0.0,0.0,0.0,0.0,0.0,0.0,0.0,0.0,0.0,0.0,0.0,0.0,0.0,0.0,0.0,0.0,0.0,0.0,0.0,0.0,0.0,0.0,0.0,0.0,0.0,0.0,0.0,0.0,0.0,0.0,0.0,0.0,0.0,0.0,0.0,0.0,0.0,0.0,0.0,0.0,0.0,0.0,0.0,3.4413,3.5199,3.4706,3.4503,0.0,0.0,0.0,0.0,0.0,0.0,0.0,0.0,0.0,0.0,0.0,0.0,0.0,0.0,0.0,0.0,0.0,0.0,0.0,0.0,0.0,0.0,0.0,0.0,0.0,0.0,0.0,0.0,0.0,0.0,0.0,0.0,0.0,0.0,0.0,0.0,0.0,0.0,0.0,0.0,0.0,0.0,0.0,0.0,0.0,0.0,0.0,0.0,0.0,0.0,0.0,0.0,0.0,0.0,0.0,0.0,0.0,0.0,0.0,0.0,0.0,0.0,0.0,0.0,0.0,0.0,0.0,0.0,0.0,0.0,0.0,0.0,0.0,0.0,0.0,0.0,0.0,0.0,0.0,0.0,0.0,0.0,0.0,0.0,0.0,0.0,0.0,0.0,0.0,0.0,0.0,0.0,0.0,0.0,0.0,0.0,0.0,0.0,0.0,0.0,0.0,0.0,0.0,0.0,0.0,0.0,0.0,0.0,0.0,0.0,0.0,3.3011,3.4676,3.5056,0.0,3.4946,0.0,0.0,0.0,0.0,0.0,0.0,0.0,0.0,0.0,0.0,0.0,0.0,0.0,0.0,0.0,0.0,0.0,0.0,0.0,0.0,0.0,0.0,0.0,0.0,0.0,0.0,0.0,0.0,0.0,0.0,0.0,0.0,0.0,0.0,0.0,0.0,0.0,0.0,0.0,0.0,0.0,0.0,0.0,0.0,0.0,0.0,0.0,0.0,0.0,0.0,0.0,0.0,0.0,0.0,0.0,0.0,0.0,0.0,0.0,0.0,0.0,0.0,0.0,0.0,0.0,0.0,0.0,0.0,0.0,0.0,0.0,0.0,0.0,0.0,0.0,0.0,0.0,0.0,0.0,0.0,0.0,0.0,0.0,0.0,0.0,0.0,0.0,0.0,0.0,0.0,0.0,0.0,0.0,0.0,0.0,0.0,0.0,0.0,0.0,0.0,0.0,0.0,0.0,0.0,0.0,0.0,0.0,0.0,0.0,0.0,0.0,0.0,3.4056,3.3764,3.1774,0.0,0.0,0.0,0.0,0.0,0.0,0.0,0.0,0.0,0.0,0.0,0.0,0.0,0.0,0.0,0.0,0.0,0.0,0.0,0.0,0.0,0.0,0.0,0.0,0.0,0.0,0.0,0.0,0.0,0.0,0.0,0.0,0.0,0.0,0.0,0.0,0.0,0.0,0.0,0.0,0.0,0.0,0.0,0.0,0.0,0.0,0.0,0.0,0.0,0.0,0.0,0.0,0.0,0.0,0.0,0.0,0.0,0.0,0.0,0.0,0.0,0.0,0.0,0.0,0.0,0.0,0.0,0.0,0.0,0.0,0.0,0.0,0.0,0.0,0.0,0.0,0.0,0.0,0.0,0.0,0.0,0.0,0.0,0.0,0.0,0.0,0.0,0.0,0.0,0.0,0.0,0.0,0.0,0.0,0.0,0.0,0.0,0.0,0.0,0.0,0.0,0.0,0.0,0.0,0.0,0.0,0.0,0.0,0.0,0.0,3.2673,3.1623,3.2677,3.2332,3.0371,0.0,0.0,0.0,0.0,0.0,0.0,0.0,0.0,0.0,0.0,0.0,0.0,0.0,0.0,0.0,0.0,0.0,0.0,0.0,0.0,0.0,0.0,0.0,0.0,0.0,0.0,0.0,0.0,0.0,0.0,0.0,0.0,0.0,0.0,0.0,0.0,0.0,0.0,0.0,0.0,0.0,0.0,0.0,0.0,0.0,0.0,0.0,0.0,0.0,0.0,0.0,0.0,0.0,0.0,0.0,0.0,0.0,0.0,0.0,0.0,0.0,0.0,0.0,0.0,0.0,0.0,0.0,0.0,0.0,0.0,0.0,0.0,0.0,0.0,0.0,0.0,0.0,0.0,0.0,0.0,0.0,0.0,0.0,0.0,0.0,0.0,0.0,0.0,0.0,0.0,0.0,0.0,0.0,0.0,0.0,0.0,0.0,0.0,0.0,0.0,0.0,0.0,0.0,0.0,0.0,0.0,0.0,0.0,0.0,0.0,0.0,0.0,0.0,0.0,3.0281,0.0,0.0,0.0,0.0,0.0,0.0,0.0,0.0,0.0,0.0,0.0,0.0,0.0,0.0,0.0,0.0,0.0,0.0,0.0,0.0,0.0,0.0,0.0,0.0,0.0,0.0,0.0,0.0,0.0,0.0,0.0,0.0,0.0,0.0,0.0,0.0,0.0,0.0,0.0,0.0,0.0,0.0,0.0,0.0,0.0,0.0,0.0,0.0,0.0,0.0,0.0,0.0,0.0,0.0,0.0,0.0,0.0,0.0,0.0,0.0,0.0,0.0,0.0,0.0,0.0,0.0,0.0,0.0,0.0,0.0,0.0,0.0,0.0,0.0,0.0,0.0,0.0,0.0,0.0,0.0,0.0,0.0,0.0,0.0,0.0,0.0,0.0,0.0,0.0,0.0,0.0,0.0,0.0,0.0,0.0,0.0,0.0,0.0,0.0,0.0,0.0,0.0,0.0,0.0,0.0,0.0,0.0,0.0,0.0,0.0,0.0,0.0,0.0,0.0,0.0,0.0,0.0,0.0,0.0,0.0,0.0,0.0,0.0,0.0,0.0,0.0,0.0,0.0,0.0,0.0,0.0,0.0,0.0,0.0,0.0,0.0,0.0,0.0,0.0,0.0,0.0,0.0,0.0,0.0,0.0,0.0,0.0,0.0,0.0,0.0,0.0,0.0,0.0,0.0,0.0,0.0,0.0,0.0,0.0,0.0,0.0,0.0,0.0,0.0,0.0,0.0,0.0,0.0,0.0,0.0,0.0,0.0,0.0,0.0,0.0,0.0,0.0,0.0,0.0,0.0,0.0,0.0,0.0,0.0,0.0,0.0,0.0,0.0,0.0,0.0,0.0,0.0,0.0,0.0,0.0,0.0,0.0,0.0,0.0,0.0,0.0,0.0,0.0,0.0,0.0,0.0,0.0,0.0,0.0,0.0,0.0,0.0,0.0,0.0,0.0,0.0,0.0,0.0,0.0,0.0,0.0,0.0,0.0,0.0,0.0,0.0,0.0,0.0,0.0,0.0,0.0,0.0,0.0,0.0,0.0,0.0,0.0,0.0,0.0,0.0,0.0,0.0,0.0,0.0,0.0,0.0,0.0,0.0,0.0,0.0,0.0,0.0,0.0,0.0,0.0,0.0,0.0,0.0,0.0,0.0,0.0,0.0,0.0,0.0,0.0,0.0,0.0,0.0,0.0,0.0,0.0,0.0,0.0,0.0,0.0,0.0,0.0,0.0,0.0,0.0,0.0,0.0,0.0,0.0,0.0,0.0,0.0,0.0,0.0,0.0,0.0,0.0,0.0,0.0,0.0,0.0,0.0,0.0,0.0,0.0,0.0,0.0,0.0,0.0,0.0,0.0,0.0,0.0,0.0,0.0,0.0,0.0,0.0,0.0,0.0,0.0,0.0,0.0,0.0,0.0,0.0,0.0,0.0,0.0,0.0,0.0,0.0,0.0,0.0,0.0,0.0,0.0,0.0,0.0,0.0,0.0,0.0,0.0,0.0,0.0,0.0,0.0,0.0,0.0,0.0,0.0,0.0,0.0,0.0,0.0,0.0,0.0,0.0,0.0,0.0,0.0,0.0,0.0,0.0,0.0,0.0,0.0,0.0,0.0,0.0,0.0,0.0,0.0,0.0,0.0,0.0,0.0,0.0,0.0,0.0,0.0,0.0,0.0,0.0,0.0,0.0,0.0,0.0,0.0,0.0,0.0,0.0,0.0,0.0,0.0,0.0,0.0,0.0,0.0,0.0,0.0,0.0,0.0,0.0,0.0,0.0,0.0,0.0,0.0,0.0,0.0,0.0,0.0,0.0,0.0,0.0,0.0,0.0,0.0,0.0,0.0,0.0,0.0,0.0,0.0,0.0,0.0,0.0,0.0,0.0,0.0,0.0,0.0,0.0,0.0,0.0,0.0,0.0,0.0,0.0,0.0,0.0,0.0,0.0,0.0,0.0,0.0,0.0,0.0,0.0,0.0,0.0,0.0,0.0,0.0,0.0,0.0,0.0,0.0,0.0,0.0,0.0,0.0,0.0,0.0,0.0,0.0,0.0,0.0,0.0,0.0,0.0,0.0,0.0,0.0,0.0,0.0,0.0,0.0,0.0,0.0,0.0,0.0,0.0,0.0,0.0,0.0,0.0,0.0,0.0,0.0,0.0,0.0,0.0,0.0,0.0,0.0,0.0,0.0,0.0,0.0,0.0,0.0,0.0,0.0,0.0,0.0,0.0,0.0,0.0,0.0,0.0,0.0,0.0,0.0,0.0,0.0,0.0,0.0,0.0,0.0,0.0,0.0,0.0,0.0,0.0,0.0,0.0,0.0,0.0,0.0,0.0,0.0,0.0,0.0,0.0,0.0,0.0,0.0,0.0,0.0,0.0,0.0,0.0,0.0,0.0,0.0,0.0,0.0,0.0,0.0,0.0,0.0,0.0,0.0,0.0,0.0,0.0,0.0,0.0,0.0,0.0,0.0,0.0,0.0,0.0,0.0,0.0,0.0,0.0,0.0,0.0,0.0,0.0,0.0,0.0,0.0,0.0,0.0,0.0,0.0,0.0,0.0,0.0,0.0,0.0,0.0,0.0,0.0,0.0,0.0,0.0,0.0,0.0,0.0,0.0,0.0,0.0,0.0,0.0,0.0,0.0,0.0,0.0,0.0,0.0,0.0,0.0,0.0,0.0,0.0,0.0,0.0,0.0,0.0,0.0,0.0,0.0,0.0,0.0,0.0,0.0,0.0,0.0,0.0,0.0,0.0,0.0,0.0,0.0,0.0,0.0,0.0,0.0,0.0,0.0,0.0,0.0,0.0,0.0,0.0,0.0,0.0,0.0,0.0,0.0,0.0,0.0,0.0,0.0,0.0,0.0,0.0,0.0,0.0,0.0,0.0,0.0,0.0,0.0,0.0,0.0,0.0,0.0,0.0,0.0,0.0,0.0,0.0,0.0,0.0,0.0,0.0,0.0,0.0,0.0,0.0,0.0,0.0,0.0,0.0,0.0,0.0,0.0,0.0,0.0,0.0,0.0,0.0,0.0,0.0,0.0,0.0,0.0,0.0,0.0,0.0,0.0,0.0,0.0,0.0,0.0,0.0,0.0,0.0,0.0,0.0,0.0,0.0,0.0,0.0,0.0,0.0,0.0,0.0,0.0,0.0,0.0,0.0,0.0,0.0,0.0,0.0,0.0,0.0,0.0,0.0,0.0,0.0,0.0,0.0,0.0,0.0,0.0,0.0,0.0,0.0,0.0,0.0,0.0,0.0,0.0,0.0,0.0,0.0,0.0,0.0,0.0,0.0,0.0,0.0,0.0,0.0,0.0,0.0,0.0,0.0,0.0,0.0,0.0,0.0,0.0,0.0,0.0,0.0,0.0,0.0,0.0,0.0,0.0,0.0,0.0,0.0,0.0,0.0,0.0,0.0,0.0,0.0,0.0,0.0,0.0,0.0,0.0,0.0,0.0,0.0,0.0,0.0,0.0,0.0,0.0,0.0,0.0,0.0,0.0,0.0,0.0,0.0,0.0,0.0,0.0,0.0,0.0,0.0,0.0,0.0,0.0,0.0,0.0,0.0,0.0,0.0,0.0,0.0,0.0,0.0,0.0,0.0,0.0,0.0,0.0,0.0,0.0,0.0,0.0,0.0,0.0,0.0,0.0,0.0,0.0,0.0,0.0,0.0,0.0,0.0,0.0,0.0,0.0,0.0,0.0,0.0,0.0,0.0,0.0,0.0,0.0,0.0,0.0,0.0,0.0,0.0,0.0,0.0,0.0,0.0,0.0,0.0,0.0,0.0,0.0,0.0,0.0,0.0,0.0,0.0,0.0,0.0,0.0,0.0,0.0,0.0,0.0,0.0,0.0,0.0,0.0,0.0,0.0,0.0,0.0,0.0,0.0,0.0,0.0,0.0,0.0,0.0,0.0,0.0,0.0,0.0,0.0,0.0,0.0,0.0,0.0,0.0,0.0,0.0,0.0,0.0,0.0,0.0,0.0,0.0,0.0,0.0,0.0,0.0,0.0,0.0,0.0,0.0,0.0,0.0,0.0,0.0,0.0,0.0,0.0,0.0,0.0,0.0,0.0,0.0,0.0,0.0,0.0,0.0,0.0,0.0,0.0,0.0,0.0,0.0,0.0,0.0,0.0,0.0,0.0,0.0,0.0,0.0,0.0,0.0,0.0,0.0,0.0,0.0,0.0,0.0,0.0,0.0,0.0,0.0,0.0,0.0,0.0,0.0,0.0,0.0,0.0,0.0,0.0,0.0,0.0,0.0,0.0,0.0,0.0,0.0,0.0,0.0,0.0,0.0,0.0,0.0,0.0,0.0,0.0,0.0,0.0,0.0,0.0,0.0,0.0,0.0,0.0,0.0,0.0,0.0]}]]]